[[{"header":{"parameterUnit":"m.s-1","parameterCategory":1,"la1":31.0,"la2":29.5877,"lo1":-88.7671,"lo2":-86.6584,"dy":0.0162,"dx":0.0185,"nx":115,"ny":88,"refTime":"2026-04-22T00:00:00:Z","depth":0,"parameterNumber":2,"parameterNumberName":"U-component_of_WINDS"},"data":[0.0,0.0,0.0,0.0,0.0,0.0,0.0,0.0,0.0,0.0,0.0,0.0,0.0,0.0,0.0,0.0,0.0,0.0,0.0,0.0,0.0,0.0,0.0,0.0,0.0,0.0,0.0,0.0,0.0,0.0,0.0,0.0,0.0,0.0,0.0,0.0,0.0,0.0,0.0,0.0,0.0,0.0,0.0,0.0,0.0,0.0,0.0,0.0,0.0,0.0,0.0,0.0,0.0,0.0,0.0,0.0,0.0,0.0,0.0,0.0,0.0,0.0,0.0,0.0,0.0,0.0,0.0,0.0,0.0,0.0,0.0,0.0,0.0,0.0,0.0,0.0,0.0,0.0,0.0,0.0,0.0,0.0,0.0,0.0,0.0,0.0,0.0,0.0,0.0,0.0,0.0,0.0,0.0,0.0,0.0,0.0,0.0,0.0,0.0,0.0,0.0,0.0,0.0,0.0,0.0,0.0,0.0,0.0,0.0,0.0,0.0,0.0,0.0,0.0,0.0,0.0,0.0,0.0,0.0,0.0,0.0,0.0,0.0,0.0,0.0,0.0,0.0,0.0,0.0,0.0,0.0,0.0,0.0,0.0,0.0,0.0,0.0,0.0,0.0,0.0,0.0,0.0,0.0,0.0,0.0,0.0,0.0,0.0,0.0,0.0,0.0,0.0,0.0,0.0,0.0,0.0,0.0,0.0,0.0,0.0,0.0,0.0,0.0,0.0,0.0,0.0,0.0,0.0,0.0,0.0,0.0,0.0,0.0,0.0,0.0,0.0,0.0,0.0,0.0,0.0,0.0,0.0,0.0,0.0,0.0,0.0,0.0,0.0,0.0,0.0,0.0,0.0,0.0,0.0,0.0,0.0,0.0,0.0,0.0,0.0,0.0,0.0,0.0,0.0,0.0,0.0,0.0,0.0,0.0,0.0,0.0,0.0,0.0,0.0,0.0,0.0,0.0,0.0,0.0,0.0,0.0,0.0,0.0,0.0,0.0,0.0,0.0,0.0,0.0,0.0,0.0,0.0,0.0,0.0,0.0,0.0,0.0,0.0,0.0,0.0,0.0,0.0,0.0,0.0,0.0,0.0,0.0,0.0,0.0,0.0,0.0,0.0,0.0,0.0,0.0,0.0,0.0,0.0,0.0,0.0,0.0,0.0,0.0,0.0,0.0,0.0,0.0,0.0,0.0,0.0,0.0,0.0,0.0,0.0,0.0,0.0,0.0,0.0,0.0,0.0,0.0,0.0,0.0,0.0,0.0,0.0,0.0,0.0,0.0,0.0,0.0,0.0,0.0,0.0,0.0,0.0,0.0,0.0,0.0,0.0,0.0,0.0,0.0,0.0,0.0,0.0,0.0,0.0,0.0,0.0,0.0,0.0,0.0,0.0,0.0,0.0,0.0,0.0,0.0,0.0,0.0,0.0,0.0,0.0,0.0,0.0,0.0,0.0,0.0,0.0,0.0,0.0,0.0,0.0,0.0,0.0,0.0,0.0,0.0,0.0,0.0,0.0,0.0,0.0,0.0,0.0,0.0,0.0,0.0,0.0,0.0,0.0,0.0,0.0,0.0,0.0,0.0,0.0,0.0,0.0,0.0,0.0,0.0,0.0,0.0,0.0,0.0,0.0,0.0,0.0,0.0,0.0,0.0,0.0,0.0,0.0,0.0,0.0,0.0,0.0,0.0,0.0,0.0,0.0,0.0,0.0,0.0,0.0,0.0,0.0,0.0,0.0,0.0,0.0,0.0,0.0,0.0,0.0,0.0,0.0,0.0,0.0,0.0,0.0,0.0,0.0,0.0,0.0,0.0,0.0,0.0,0.0,0.0,0.0,0.0,0.0,0.0,0.0,0.0,0.0,0.0,0.0,0.0,0.0,0.0,0.0,0.0,0.0,0.0,0.0,0.0,0.0,0.0,0.0,0.0,0.0,0.0,0.0,0.0,0.0,0.0,0.0,0.0,0.0,0.0,0.0,0.0,0.0,0.0,0.0,0.0,0.0,0.0,0.0,0.0,0.0,0.0,0.0,0.0,0.0,0.0,0.0,0.0,0.0,0.0,0.0,0.0,0.0,0.0,0.0,0.0,0.0,0.0,0.0,0.0,0.0,0.0,0.0,0.0,0.0,0.0,0.0,0.0,0.0,0.0,0.0,0.0,0.0,0.0,0.0,0.0,0.0,0.0,0.0,0.0,0.0,0.0,0.0,0.0,0.0,0.0,0.0,0.0,0.0,0.0,0.0,0.0,0.0,0.0,0.0,0.0,0.0,0.0,0.0,0.0,0.0,0.0,0.0,0.0,0.0,0.0,0.0,0.0,0.0,0.0,0.0,0.0,0.0,0.0,0.0,0.0,0.0,0.0,0.0,0.0,0.0,0.0,0.0,0.0,0.0,0.0,0.0,0.0,0.0,0.0,0.0,0.0,0.0,0.0,0.0,0.0,0.0,0.0,0.0,0.0,0.0,0.0,0.0,0.0,0.0,0.0,0.0,0.0,0.0,0.0,0.0,0.0,0.0,0.0,0.0,0.0,0.0,0.0,0.0,0.0,0.0,0.0,0.0,0.0,0.0,0.0,0.0,0.0,0.0,0.0,0.0,0.0,0.0,0.0,0.0,0.0,0.0,0.0,0.0,0.0,0.0,0.0,0.0,0.0,0.0,0.0,0.0,0.0,0.0,0.0,0.0,0.0,0.0,0.0,0.0,0.0,0.0,0.0,0.0,0.0,0.0,0.0,0.0,0.0,0.0,0.0,0.0,0.0,0.0,0.0,0.0,0.0,0.0,0.0,0.0,0.0,0.0,0.0,0.0,0.0,0.0,0.0,0.0,0.0,0.0,0.0,0.0,0.0,0.0,0.0,0.0,0.0,0.0,0.0,0.0,0.0,0.0,0.0,0.0,0.0,0.0,0.0,0.0,0.0,0.0,0.0,0.0,0.0,0.0,0.0,0.0,0.0,0.0,0.0,0.0,0.0,0.0,0.0,0.0,0.0,0.0,0.0,0.0,0.0,0.0,0.0,0.0,0.0,0.0,0.0,0.0,0.0,0.0,0.0,0.0,0.0,0.0,0.0,0.0,0.0,0.0,0.0,0.0,0.0,0.0,0.0,0.0,0.0,0.0,0.0,0.0,0.0,0.0,0.0,0.0,0.0,0.0,0.0,0.0,0.0,0.0,0.0,0.0,0.0,0.0,0.0,0.0,0.0,0.0,0.0,0.0,0.0,0.0,0.0,0.0,0.0,0.0,0.0,0.0,0.0,0.0,0.0,0.0,0.0,0.0,0.0,0.0,0.0,0.0,0.0,0.0,0.0,0.0,0.0,0.0,0.0,0.0,0.0,0.0,0.0,0.0,0.0,0.0,0.0,0.0,0.0,0.0,0.0,0.0,0.0,0.0,0.0,0.0,0.0,0.0,0.0,0.0,0.0,0.0,0.0,0.0,0.0,0.0,0.0,0.0,0.0,0.0,0.0,0.0,0.0,0.0,0.0,0.0,0.0,0.0,0.0,0.0,0.0,0.0,0.0,0.0,0.0,0.0,0.0,0.0,0.0,0.0,0.0,0.0,0.0,0.0,0.0,0.0,0.0,0.0,0.0,0.0,0.0,0.0,0.0,0.0,0.0,0.0,0.0,0.0,0.0,0.0,0.0,0.0,0.0,0.0,0.0,0.0,0.0,0.0,0.0,0.0,0.0,0.0,0.0,0.0,0.0,0.0,0.0,0.0,0.0,0.0,0.0,0.0,0.0,0.0,0.0,0.0,0.0,0.0,0.0,0.0,0.0,0.0,0.0,0.0,0.0,0.0,0.0,0.0,0.0,0.0,0.0,0.0,0.0,0.0,0.0,0.0,0.0,0.0,0.0,0.0,0.0,0.0,0.0,0.0,0.0,0.0,0.0,0.0,0.0,0.0,0.0,0.0,0.0,0.0,0.0,0.0,0.0,0.0,0.0,0.0,0.0,0.0,0.0,0.0,0.0,0.0,0.0,0.0,0.0,0.0,0.0,0.0,0.0,0.0,0.0,0.0,0.0,0.0,0.0,0.0,0.0,0.0,0.0,0.0,0.0,0.0,0.0,0.0,0.0,0.0,0.0,0.0,0.0,0.0,0.0,0.0,0.0,0.0,0.0,0.0,0.0,0.0,0.0,0.0,0.0,0.0,0.0,0.0,0.0,0.0,0.0,0.0,0.0,0.0,0.0,0.0,0.0,0.0,0.0,0.0,0.0,0.0,0.0,0.0,0.0,0.0,0.0,0.0,0.0,0.0,0.0,0.0,0.0,0.0,-4.1085,0.0,0.0,0.0,0.0,0.0,0.0,0.0,0.0,0.0,0.0,0.0,0.0,0.0,0.0,0.0,0.0,0.0,0.0,0.0,0.0,0.0,0.0,0.0,0.0,0.0,0.0,0.0,0.0,0.0,0.0,0.0,0.0,0.0,0.0,0.0,0.0,0.0,0.0,0.0,0.0,0.0,0.0,0.0,0.0,0.0,0.0,0.0,0.0,0.0,0.0,0.0,0.0,0.0,0.0,0.0,0.0,0.0,0.0,0.0,0.0,0.0,0.0,0.0,0.0,0.0,0.0,0.0,0.0,0.0,0.0,0.0,0.0,0.0,0.0,0.0,0.0,0.0,0.0,0.0,0.0,0.0,0.0,0.0,0.0,0.0,0.0,0.0,0.0,0.0,0.0,0.0,0.0,0.0,0.0,0.0,0.0,0.0,0.0,0.0,0.0,0.0,0.0,0.0,0.0,0.0,0.0,0.0,0.0,0.0,0.0,-4.4476,-4.5254,-4.4512,-4.3258,-4.1479,0.0,0.0,0.0,0.0,0.0,0.0,0.0,0.0,0.0,0.0,0.0,0.0,0.0,0.0,0.0,0.0,0.0,0.0,0.0,0.0,0.0,0.0,0.0,0.0,0.0,0.0,0.0,0.0,0.0,0.0,0.0,0.0,0.0,0.0,0.0,0.0,0.0,0.0,0.0,0.0,0.0,0.0,0.0,0.0,0.0,0.0,0.0,0.0,0.0,0.0,0.0,0.0,0.0,0.0,0.0,0.0,0.0,0.0,0.0,0.0,0.0,0.0,0.0,0.0,0.0,0.0,0.0,0.0,0.0,0.0,0.0,0.0,0.0,0.0,0.0,0.0,0.0,0.0,0.0,0.0,0.0,0.0,0.0,0.0,0.0,0.0,0.0,0.0,0.0,0.0,0.0,0.0,0.0,0.0,0.0,0.0,0.0,0.0,0.0,0.0,0.0,0.0,0.0,0.0,0.0,0.0,0.0,0.0,0.0,0.0,0.0,0.0,-4.5055,-4.362,-4.1479,0.0,0.0,0.0,0.0,0.0,0.0,0.0,0.0,0.0,0.0,0.0,0.0,0.0,0.0,0.0,0.0,0.0,0.0,0.0,0.0,0.0,0.0,0.0,0.0,0.0,0.0,0.0,0.0,0.0,0.0,0.0,0.0,0.0,0.0,0.0,0.0,0.0,0.0,0.0,0.0,0.0,0.0,0.0,0.0,0.0,0.0,0.0,0.0,0.0,0.0,0.0,0.0,0.0,0.0,0.0,0.0,0.0,0.0,0.0,0.0,0.0,0.0,0.0,0.0,0.0,0.0,0.0,0.0,0.0,0.0,0.0,0.0,0.0,0.0,0.0,0.0,0.0,0.0,0.0,0.0,0.0,0.0,0.0,0.0,0.0,0.0,0.0,0.0,0.0,0.0,0.0,0.0,0.0,0.0,0.0,0.0,0.0,0.0,0.0,0.0,0.0,0.0,0.0,0.0,0.0,0.0,0.0,0.0,0.0,0.0,-4.5924,-4.7388,-4.6667,0.0,-4.0866,0.0,0.0,0.0,0.0,0.0,0.0,0.0,0.0,0.0,0.0,0.0,0.0,0.0,0.0,0.0,0.0,0.0,0.0,0.0,0.0,0.0,0.0,0.0,0.0,0.0,0.0,0.0,0.0,0.0,0.0,0.0,0.0,0.0,0.0,0.0,0.0,0.0,0.0,0.0,0.0,0.0,0.0,0.0,0.0,0.0,0.0,0.0,0.0,0.0,0.0,0.0,0.0,0.0,0.0,0.0,0.0,0.0,0.0,0.0,0.0,0.0,0.0,0.0,0.0,0.0,0.0,0.0,0.0,0.0,0.0,0.0,0.0,0.0,0.0,0.0,0.0,0.0,0.0,0.0,0.0,0.0,0.0,0.0,0.0,0.0,0.0,0.0,0.0,0.0,0.0,0.0,0.0,0.0,0.0,0.0,0.0,0.0,0.0,0.0,0.0,0.0,0.0,0.0,0.0,0.0,0.0,0.0,0.0,0.0,0.0,-4.6558,-4.7681,-4.5544,-4.3282,0.0,0.0,0.0,0.0,0.0,0.0,0.0,0.0,0.0,0.0,0.0,0.0,0.0,0.0,0.0,0.0,0.0,0.0,0.0,0.0,0.0,0.0,0.0,0.0,0.0,0.0,0.0,0.0,0.0,0.0,0.0,0.0,0.0,0.0,0.0,0.0,0.0,0.0,0.0,0.0,0.0,0.0,0.0,0.0,0.0,0.0,0.0,0.0,0.0,0.0,0.0,0.0,0.0,0.0,0.0,0.0,0.0,0.0,0.0,0.0,0.0,0.0,0.0,0.0,0.0,0.0,0.0,0.0,0.0,0.0,0.0,0.0,0.0,0.0,0.0,0.0,0.0,0.0,0.0,0.0,0.0,0.0,0.0,0.0,0.0,0.0,0.0,0.0,0.0,0.0,0.0,0.0,0.0,0.0,0.0,0.0,0.0,0.0,0.0,0.0,0.0,0.0,0.0,0.0,0.0,0.0,0.0,0.0,0.0,0.0,-4.6087,-4.6794,-4.7246,-4.5367,-4.329,-4.1169,0.0,0.0,0.0,0.0,0.0,0.0,0.0,0.0,0.0,0.0,0.0,0.0,0.0,0.0,0.0,0.0,0.0,0.0,0.0,0.0,0.0,0.0,0.0,0.0,0.0,0.0,0.0,0.0,0.0,0.0,0.0,0.0,0.0,0.0,0.0,0.0,0.0,0.0,0.0,0.0,0.0,0.0,0.0,0.0,0.0,0.0,0.0,0.0,0.0,0.0,0.0,0.0,0.0,0.0,0.0,0.0,0.0,0.0,0.0,0.0,0.0,0.0,0.0,0.0,0.0,0.0,0.0,0.0,0.0,0.0,0.0,0.0,0.0,0.0,0.0,0.0,0.0,0.0,0.0,0.0,0.0,0.0,0.0,0.0,0.0,0.0,0.0,0.0,0.0,0.0,0.0,0.0,0.0,0.0,0.0,0.0,0.0,0.0,0.0,0.0,0.0,0.0,0.0,0.0,0.0,0.0,0.0,0.0,-4.5291,-4.6087,-4.6522,-4.6595,-4.7257,-4.561,0.0,0.0,0.0,0.0,0.0,0.0,0.0,0.0,0.0,0.0,0.0,0.0,0.0,0.0,0.0,0.0,0.0,0.0,0.0,0.0,0.0,0.0,0.0,0.0,0.0,0.0,0.0,0.0,0.0,0.0,0.0,0.0,0.0,0.0,0.0,0.0,0.0,0.0,0.0,0.0,0.0,0.0,0.0,0.0,0.0,0.0,0.0,0.0,0.0,0.0,0.0,0.0,0.0,0.0,0.0,0.0,0.0,0.0,0.0,0.0,0.0,0.0,0.0,0.0,0.0,0.0,0.0,0.0,0.0,0.0,0.0,0.0,0.0,0.0,0.0,0.0,0.0,0.0,0.0,0.0,0.0,0.0,0.0,0.0,0.0,0.0,0.0,0.0,0.0,0.0,0.0,0.0,0.0,0.0,0.0,0.0,0.0,0.0,0.0,0.0,0.0,0.0,0.0,0.0,0.0,0.0,0.0,0.0,0.0,-4.5309,-4.6087,-4.6757,-4.7174,-4.5111,-4.3387,0.0,0.0,0.0,0.0,0.0,0.0,0.0,0.0,0.0,0.0,0.0,0.0,0.0,0.0,0.0,0.0,0.0,0.0,0.0,0.0,0.0,0.0,0.0,0.0,0.0,0.0,0.0,0.0,0.0,0.0,0.0,0.0,0.0,0.0,0.0,0.0,0.0,0.0,0.0,0.0,0.0,0.0,0.0,0.0,0.0,0.0,0.0,0.0,0.0,0.0,0.0,0.0,0.0,0.0,0.0,0.0,0.0,0.0,0.0,0.0,0.0,0.0,0.0,0.0,0.0,0.0,0.0,0.0,0.0,0.0,0.0,0.0,0.0,0.0,0.0,0.0,0.0,0.0,0.0,0.0,0.0,0.0,0.0,0.0,0.0,0.0,0.0,0.0,0.0,0.0,0.0,0.0,0.0,0.0,0.0,0.0,0.0,0.0,0.0,0.0,0.0,0.0,0.0,0.0,0.0,0.0,0.0,0.0,0.0,-4.5767,0.0,-4.6985,-4.6889,-4.4644,-4.2994,0.0,0.0,0.0,0.0,0.0,0.0,0.0,0.0,0.0,0.0,0.0,0.0,0.0,0.0,0.0,0.0,0.0,0.0,0.0,0.0,0.0,0.0,0.0,0.0,0.0,0.0,0.0,0.0,0.0,0.0,0.0,0.0,0.0,0.0,0.0,0.0,0.0,0.0,0.0,0.0,0.0,0.0,0.0,0.0,0.0,0.0,0.0,0.0,0.0,0.0,0.0,0.0,0.0,0.0,0.0,0.0,0.0,0.0,0.0,0.0,0.0,0.0,0.0,0.0,0.0,0.0,0.0,0.0,0.0,0.0,0.0,0.0,0.0,0.0,0.0,0.0,0.0,0.0,0.0,0.0,0.0,0.0,0.0,0.0,0.0,0.0,0.0,0.0,0.0,0.0,0.0,0.0,0.0,0.0,0.0,0.0,0.0,0.0,0.0,0.0,0.0,0.0,0.0,0.0,0.0,0.0,0.0,0.0,-4.5749,-4.6648,-4.7476,-4.7185,-4.5632,-4.6182,-4.4706,0.0,0.0,0.0,0.0,0.0,0.0,0.0,0.0,0.0,0.0,0.0,0.0,0.0,0.0,0.0,0.0,0.0,0.0,0.0,0.0,0.0,0.0,0.0,0.0,0.0,0.0,0.0,0.0,0.0,0.0,0.0,0.0,0.0,0.0,0.0,0.0,0.0,0.0,0.0,0.0,0.0,0.0,0.0,0.0,0.0,0.0,0.0,0.0,0.0,0.0,0.0,0.0,0.0,0.0,0.0,0.0,0.0,0.0,0.0,0.0,0.0,0.0,0.0,0.0,0.0,0.0,0.0,0.0,0.0,0.0,0.0,0.0,0.0,0.0,0.0,0.0,0.0,0.0,0.0,0.0,0.0,0.0,0.0,0.0,0.0,0.0,0.0,0.0,0.0,0.0,0.0,0.0,0.0,0.0,0.0,0.0,0.0,0.0,0.0,0.0,0.0,0.0,0.0,0.0,0.0,0.0,0.0,0.0,0.0,-4.5749,-4.669,-4.7185,-4.7084,-4.5251,-4.3632,0.0,0.0,0.0,0.0,0.0,0.0,0.0,0.0,0.0,0.0,0.0,0.0,0.0,0.0,0.0,0.0,0.0,0.0,0.0,0.0,0.0,0.0,0.0,0.0,0.0,0.0,0.0,0.0,0.0,0.0,0.0,0.0,0.0,0.0,0.0,0.0,0.0,0.0,0.0,0.0,0.0,0.0,0.0,0.0,0.0,0.0,0.0,0.0,0.0,0.0,0.0,0.0,0.0,0.0,0.0,0.0,0.0,0.0,0.0,0.0,0.0,0.0,0.0,0.0,0.0,0.0,0.0,0.0,0.0,0.0,0.0,0.0,0.0,0.0,0.0,0.0,0.0,0.0,0.0,0.0,0.0,0.0,0.0,0.0,0.0,0.0,0.0,0.0,0.0,0.0,0.0,0.0,0.0,0.0,0.0,0.0,0.0,0.0,0.0,0.0,0.0,0.0,0.0,0.0,0.0,0.0,0.0,0.0,0.0,-4.6731,-4.7696,-4.8119,-4.7945,-4.6,-4.4361,-4.303,0.0,0.0,0.0,0.0,0.0,0.0,0.0,0.0,0.0,0.0,0.0,0.0,0.0,0.0,0.0,0.0,0.0,0.0,0.0,0.0,0.0,0.0,0.0,0.0,0.0,0.0,0.0,0.0,0.0,0.0,0.0,0.0,0.0,0.0,0.0,0.0,0.0,0.0,0.0,0.0,0.0,0.0,0.0,0.0,0.0,0.0,0.0,0.0,0.0,0.0,0.0,0.0,0.0,0.0,0.0,0.0,0.0,0.0,0.0,0.0,0.0,0.0,0.0,0.0,0.0,0.0,0.0,0.0,0.0,0.0,0.0,0.0,0.0,0.0,0.0,0.0,0.0,0.0,0.0,0.0,0.0,0.0,0.0,0.0,0.0,0.0,0.0,0.0,0.0,0.0,0.0,0.0,0.0,0.0,0.0,0.0,0.0,0.0,0.0,0.0,0.0,0.0,0.0,0.0,0.0,0.0,0.0,0.0,-4.9161,-5.0263,-4.9976,-4.8304,-4.8105,-4.6493,0.0,0.0,0.0,0.0,0.0,0.0,0.0,0.0,0.0,0.0,0.0,0.0,0.0,0.0,0.0,0.0,0.0,0.0,0.0,0.0,0.0,0.0,0.0,0.0,0.0,0.0,0.0,0.0,0.0,0.0,0.0,0.0,0.0,0.0,0.0,0.0,0.0,0.0,0.0,0.0,0.0,0.0,0.0,0.0,0.0,0.0,0.0,0.0,0.0,0.0,0.0,0.0,0.0,0.0,0.0,0.0,0.0,0.0,0.0,0.0,0.0,0.0,0.0,0.0,0.0,0.0,0.0,0.0,0.0,0.0,0.0,0.0,0.0,0.0,0.0,0.0,0.0,0.0,0.0,0.0,0.0,0.0,0.0,0.0,0.0,0.0,0.0,0.0,0.0,0.0,0.0,0.0,0.0,0.0,0.0,0.0,0.0,0.0,0.0,0.0,0.0,0.0,0.0,0.0,0.0,0.0,0.0,0.0,0.0,-5.0154,-5.2294,-5.2572,-5.0837,-4.9058,-4.6924,0.0,0.0,0.0,0.0,0.0,0.0,0.0,0.0,0.0,0.0,0.0,0.0,0.0,0.0,0.0,0.0,0.0,0.0,0.0,0.0,0.0,0.0,0.0,0.0,0.0,0.0,0.0,0.0,0.0,0.0,0.0,0.0,0.0,0.0,0.0,0.0,0.0,0.0,0.0,0.0,0.0,0.0,0.0,0.0,0.0,0.0,0.0,0.0,0.0,0.0,0.0,0.0,0.0,0.0,0.0,0.0,0.0,0.0,0.0,0.0,0.0,0.0,0.0,0.0,0.0,0.0,0.0,0.0,0.0,0.0,0.0,0.0,0.0,0.0,0.0,0.0,0.0,0.0,0.0,0.0,0.0,0.0,0.0,0.0,0.0,0.0,0.0,0.0,0.0,0.0,0.0,0.0,0.0,0.0,0.0,0.0,0.0,0.0,0.0,0.0,0.0,0.0,0.0,0.0,0.0,0.0,0.0,0.0,-4.8788,-5.1553,-5.3748,-5.4598,-5.3909,-5.1456,-4.8894,0.0,0.0,0.0,0.0,0.0,0.0,0.0,0.0,0.0,0.0,0.0,0.0,0.0,0.0,0.0,0.0,0.0,0.0,0.0,0.0,0.0,0.0,0.0,0.0,0.0,0.0,0.0,0.0,0.0,0.0,0.0,0.0,0.0,0.0,0.0,0.0,0.0,0.0,0.0,0.0,0.0,0.0,0.0,0.0,0.0,0.0,0.0,0.0,0.0,0.0,0.0,0.0,0.0,0.0,0.0,0.0,0.0,0.0,0.0,0.0,0.0,0.0,0.0,0.0,0.0,0.0,0.0,0.0,0.0,0.0,0.0,0.0,0.0,0.0,0.0,0.0,0.0,0.0,0.0,0.0,0.0,0.0,0.0,0.0,0.0,0.0,0.0,0.0,0.0,0.0,0.0,0.0,0.0,0.0,0.0,0.0,0.0,0.0,0.0,0.0,0.0,0.0,0.0,0.0,0.0,0.0,0.0,0.0,-4.9909,-5.3075,-5.4759,-5.6033,-5.6781,-5.4239,-5.1267,0.0,0.0,0.0,0.0,0.0,0.0,0.0,0.0,0.0,0.0,0.0,0.0,0.0,0.0,0.0,0.0,0.0,0.0,0.0,0.0,0.0,0.0,0.0,0.0,0.0,0.0,0.0,0.0,0.0,0.0,0.0,0.0,0.0,0.0,0.0,0.0,0.0,0.0,0.0,0.0,0.0,0.0,0.0,0.0,0.0,0.0,0.0,0.0,0.0,0.0,0.0,0.0,0.0,0.0,0.0,0.0,0.0,0.0,0.0,0.0,0.0,0.0,0.0,0.0,0.0,0.0,0.0,0.0,0.0,0.0,0.0,0.0,0.0,0.0,0.0,0.0,0.0,0.0,0.0,0.0,0.0,0.0,0.0,0.0,0.0,0.0,0.0,0.0,0.0,0.0,0.0,0.0,0.0,0.0,0.0,0.0,0.0,0.0,0.0,0.0,0.0,0.0,0.0,0.0,0.0,0.0,0.0,0.0,-5.0755,-5.4008,-5.5078,-5.6226,-5.7528,-5.3939,-5.0667,0.0,0.0,0.0,0.0,0.0,0.0,0.0,0.0,0.0,0.0,0.0,0.0,0.0,0.0,0.0,0.0,0.0,0.0,0.0,0.0,0.0,0.0,0.0,0.0,0.0,0.0,0.0,0.0,0.0,0.0,0.0,0.0,0.0,0.0,0.0,0.0,0.0,0.0,0.0,0.0,0.0,0.0,0.0,0.0,0.0,0.0,0.0,0.0,-4.9166,0.0,0.0,0.0,0.0,0.0,0.0,0.0,0.0,0.0,0.0,0.0,0.0,0.0,0.0,0.0,0.0,0.0,0.0,0.0,0.0,0.0,0.0,0.0,0.0,0.0,0.0,0.0,0.0,0.0,0.0,0.0,0.0,0.0,0.0,0.0,0.0,0.0,0.0,0.0,0.0,0.0,0.0,0.0,0.0,0.0,0.0,0.0,0.0,0.0,0.0,0.0,0.0,0.0,0.0,0.0,0.0,0.0,0.0,0.0,-5.1092,-5.4271,-5.5188,-5.63,-5.7591,-5.4537,-5.1479,0.0,0.0,0.0,0.0,0.0,0.0,0.0,0.0,0.0,0.0,0.0,0.0,0.0,0.0,0.0,0.0,0.0,0.0,0.0,0.0,0.0,0.0,0.0,0.0,0.0,0.0,0.0,0.0,0.0,0.0,0.0,0.0,0.0,0.0,0.0,0.0,0.0,0.0,0.0,0.0,0.0,0.0,0.0,0.0,0.0,0.0,0.0,0.0,0.0,0.0,0.0,0.0,0.0,0.0,0.0,0.0,0.0,0.0,0.0,0.0,0.0,0.0,0.0,0.0,0.0,0.0,0.0,0.0,0.0,0.0,0.0,0.0,0.0,0.0,0.0,0.0,0.0,0.0,0.0,0.0,0.0,0.0,0.0,0.0,0.0,0.0,0.0,0.0,0.0,0.0,0.0,0.0,0.0,0.0,0.0,0.0,0.0,0.0,0.0,0.0,0.0,0.0,0.0,0.0,0.0,0.0,0.0,-4.8907,-5.1261,-5.4289,-5.528,-5.6351,-5.7536,-5.5263,-5.2595,-4.9572,0.0,0.0,0.0,0.0,0.0,0.0,0.0,0.0,0.0,0.0,0.0,0.0,0.0,0.0,0.0,0.0,0.0,0.0,0.0,0.0,0.0,0.0,0.0,0.0,0.0,0.0,0.0,0.0,0.0,0.0,0.0,0.0,0.0,0.0,0.0,0.0,0.0,0.0,-4.5003,-4.7464,0.0,0.0,0.0,0.0,0.0,0.0,0.0,0.0,-4.9691,0.0,0.0,0.0,0.0,0.0,0.0,0.0,0.0,0.0,0.0,0.0,0.0,0.0,0.0,0.0,0.0,0.0,0.0,0.0,0.0,0.0,0.0,0.0,0.0,0.0,0.0,0.0,0.0,0.0,0.0,0.0,0.0,0.0,0.0,0.0,0.0,0.0,0.0,0.0,0.0,0.0,0.0,0.0,0.0,0.0,0.0,0.0,0.0,0.0,0.0,0.0,0.0,0.0,0.0,0.0,0.0,-4.8916,-5.0045,-5.183,-5.4344,-5.5849,-5.6662,-5.6749,-5.4971,-5.2421,-4.9155,0.0,0.0,0.0,0.0,0.0,0.0,0.0,0.0,0.0,0.0,0.0,0.0,0.0,0.0,0.0,0.0,0.0,0.0,0.0,0.0,0.0,0.0,0.0,0.0,0.0,0.0,0.0,0.0,0.0,0.0,0.0,0.0,0.0,0.0,0.0,0.0,0.0,0.0,0.0,-4.9177,-4.9945,0.0,0.0,0.0,0.0,0.0,0.0,0.0,0.0,-5.0397,0.0,0.0,0.0,0.0,0.0,0.0,0.0,0.0,0.0,0.0,0.0,0.0,0.0,0.0,0.0,0.0,0.0,0.0,0.0,0.0,0.0,0.0,0.0,0.0,0.0,0.0,0.0,0.0,0.0,0.0,0.0,0.0,0.0,0.0,0.0,0.0,0.0,0.0,0.0,0.0,0.0,0.0,0.0,0.0,0.0,0.0,0.0,0.0,0.0,0.0,0.0,0.0,0.0,0.0,0.0,-4.8694,-5.0483,-5.238,-5.4363,-5.5489,-5.6205,-5.6432,-5.4442,-5.1907,0.0,0.0,0.0,0.0,0.0,0.0,0.0,0.0,0.0,0.0,0.0,0.0,0.0,0.0,0.0,0.0,0.0,0.0,0.0,0.0,0.0,0.0,0.0,0.0,0.0,0.0,0.0,0.0,0.0,0.0,0.0,0.0,0.0,0.0,0.0,0.0,0.0,0.0,0.0,0.0,-5.0832,-5.1484,-5.19,0.0,0.0,0.0,0.0,0.0,0.0,-5.0619,-5.0365,0.0,0.0,0.0,0.0,0.0,0.0,0.0,0.0,0.0,0.0,0.0,0.0,0.0,0.0,0.0,0.0,0.0,0.0,0.0,0.0,0.0,0.0,0.0,0.0,0.0,0.0,0.0,0.0,0.0,0.0,0.0,0.0,0.0,0.0,0.0,0.0,0.0,0.0,0.0,0.0,0.0,0.0,0.0,0.0,0.0,0.0,0.0,0.0,0.0,0.0,0.0,0.0,0.0,0.0,0.0,-4.8163,-5.0684,-5.2692,-5.4124,-5.4986,-5.5588,-5.5892,-5.3681,-5.12,0.0,0.0,0.0,0.0,0.0,0.0,0.0,0.0,0.0,0.0,0.0,0.0,0.0,0.0,0.0,0.0,0.0,0.0,0.0,0.0,0.0,0.0,0.0,0.0,0.0,0.0,0.0,0.0,0.0,0.0,0.0,0.0,0.0,0.0,0.0,0.0,0.0,0.0,0.0,0.0,0.0,-5.2915,-5.3367,-5.277,0.0,0.0,0.0,0.0,-5.0818,-5.0941,0.0,0.0,0.0,0.0,0.0,0.0,0.0,0.0,0.0,0.0,0.0,0.0,0.0,0.0,0.0,0.0,0.0,0.0,0.0,0.0,0.0,0.0,0.0,0.0,0.0,0.0,0.0,0.0,0.0,0.0,0.0,0.0,0.0,0.0,0.0,0.0,0.0,0.0,0.0,0.0,0.0,0.0,0.0,0.0,0.0,0.0,0.0,0.0,0.0,0.0,0.0,0.0,0.0,0.0,0.0,0.0,-4.8224,-5.0707,-5.2435,-5.3332,-5.4693,-5.5103,-5.4436,-5.2634,-5.0434,0.0,0.0,0.0,0.0,0.0,0.0,0.0,0.0,0.0,0.0,0.0,0.0,0.0,0.0,0.0,0.0,0.0,0.0,0.0,0.0,0.0,0.0,0.0,0.0,0.0,0.0,0.0,0.0,0.0,0.0,0.0,0.0,0.0,0.0,0.0,0.0,0.0,0.0,0.0,0.0,0.0,-5.3331,-5.2733,-5.1955,-5.1357,0.0,0.0,-5.2462,-5.3186,-5.3874,0.0,0.0,0.0,0.0,0.0,0.0,0.0,0.0,0.0,0.0,0.0,0.0,0.0,0.0,0.0,0.0,0.0,0.0,0.0,0.0,0.0,0.0,0.0,0.0,0.0,0.0,0.0,0.0,0.0,0.0,0.0,0.0,0.0,0.0,0.0,0.0,0.0,0.0,0.0,0.0,0.0,0.0,0.0,0.0,0.0,0.0,0.0,0.0,0.0,0.0,0.0,0.0,0.0,0.0,0.0,-4.7276,-4.8083,-5.0503,-5.1935,-5.23,-5.2886,-5.3239,-5.3294,-5.0891,-4.8749,0.0,0.0,0.0,0.0,0.0,0.0,0.0,0.0,0.0,0.0,0.0,0.0,0.0,0.0,0.0,0.0,0.0,0.0,0.0,0.0,0.0,0.0,0.0,0.0,0.0,0.0,0.0,0.0,0.0,0.0,0.0,0.0,0.0,0.0,0.0,0.0,0.0,0.0,0.0,0.0,0.0,0.0,-5.3168,-5.2878,0.0,0.0,0.0,-5.2462,-5.2353,0.0,0.0,0.0,0.0,0.0,0.0,0.0,0.0,0.0,0.0,0.0,0.0,0.0,0.0,0.0,0.0,0.0,0.0,0.0,0.0,0.0,0.0,0.0,0.0,0.0,0.0,0.0,0.0,0.0,0.0,0.0,0.0,0.0,0.0,0.0,0.0,0.0,0.0,0.0,0.0,0.0,0.0,0.0,0.0,0.0,0.0,0.0,0.0,0.0,0.0,0.0,0.0,0.0,0.0,0.0,0.0,0.0,-4.7632,-5.0229,-5.1602,-5.1602,-5.1548,-5.1663,-5.1954,-4.9472,0.0,0.0,0.0,0.0,0.0,0.0,0.0,0.0,0.0,0.0,0.0,0.0,0.0,0.0,0.0,0.0,0.0,0.0,0.0,0.0,0.0,0.0,0.0,0.0,0.0,0.0,0.0,-3.6276,0.0,0.0,0.0,0.0,0.0,0.0,0.0,0.0,0.0,0.0,0.0,0.0,0.0,0.0,-5.2715,-5.3313,-5.3403,-5.3603,0.0,0.0,-5.2498,-5.248,-5.3657,-5.3675,0.0,0.0,0.0,0.0,0.0,0.0,0.0,0.0,0.0,0.0,0.0,0.0,0.0,0.0,0.0,0.0,0.0,0.0,0.0,0.0,0.0,0.0,0.0,0.0,0.0,0.0,0.0,0.0,0.0,0.0,0.0,0.0,0.0,0.0,0.0,0.0,0.0,0.0,0.0,0.0,0.0,0.0,0.0,0.0,0.0,0.0,0.0,0.0,0.0,0.0,0.0,0.0,0.0,0.0,-4.6051,-4.687,-4.9956,-5.1584,-5.1602,-5.1548,-5.1173,-5.0464,-4.8933,-4.6854,0.0,0.0,0.0,0.0,0.0,0.0,0.0,0.0,0.0,0.0,0.0,0.0,0.0,0.0,0.0,0.0,0.0,0.0,0.0,0.0,0.0,0.0,0.0,0.0,0.0,0.0,0.0,0.0,0.0,0.0,0.0,0.0,0.0,0.0,0.0,0.0,0.0,0.0,0.0,0.0,0.0,-5.2516,-5.257,-5.257,-5.3349,0.0,-5.3947,-5.3222,-5.5341,-5.6355,-5.5903,-5.2824,0.0,0.0,0.0,0.0,0.0,0.0,0.0,0.0,0.0,0.0,0.0,0.0,0.0,0.0,0.0,0.0,0.0,0.0,0.0,0.0,0.0,0.0,0.0,0.0,0.0,0.0,0.0,0.0,0.0,0.0,0.0,0.0,0.0,0.0,0.0,0.0,0.0,0.0,0.0,0.0,0.0,0.0,0.0,0.0,0.0,0.0,0.0,0.0,0.0,0.0,0.0,0.0,0.0,-4.5533,-4.5878,-4.8529,-4.993,-4.993,-4.9452,-4.9013,-4.8705,-4.7515,-4.5517,0.0,0.0,0.0,0.0,0.0,0.0,0.0,0.0,0.0,0.0,0.0,0.0,0.0,0.0,0.0,0.0,0.0,0.0,0.0,0.0,0.0,0.0,0.0,0.0,0.0,0.0,0.0,0.0,-3.8667,-3.9047,-3.9608,0.0,0.0,0.0,0.0,0.0,0.0,0.0,0.0,0.0,0.0,-5.0814,-5.2299,-5.2498,0.0,0.0,-5.4128,-5.3548,-5.4436,-5.4852,-5.4128,-5.147,-5.0343,0.0,0.0,0.0,0.0,0.0,0.0,0.0,0.0,0.0,0.0,0.0,0.0,0.0,0.0,0.0,0.0,0.0,0.0,0.0,0.0,0.0,0.0,0.0,0.0,0.0,0.0,0.0,0.0,0.0,0.0,0.0,0.0,0.0,0.0,0.0,0.0,0.0,0.0,0.0,0.0,0.0,0.0,0.0,0.0,0.0,0.0,0.0,0.0,0.0,0.0,0.0,0.0,-4.4711,-4.4947,-4.7319,-4.8529,-4.8529,-4.7772,-4.7166,-4.6765,-4.6111,-4.4389,0.0,0.0,0.0,0.0,0.0,0.0,0.0,0.0,0.0,0.0,0.0,0.0,0.0,0.0,0.0,0.0,0.0,0.0,0.0,0.0,0.0,0.0,0.0,0.0,0.0,0.0,0.0,0.0,-3.9538,-3.9772,-3.9956,0.0,0.0,0.0,0.0,0.0,0.0,0.0,0.0,0.0,0.0,-5.0234,-5.1882,-5.2136,-5.2607,-5.3983,-5.3295,-5.2788,-5.3277,-5.3548,-5.2969,-5.0796,0.0,0.0,0.0,0.0,0.0,0.0,0.0,0.0,0.0,0.0,0.0,0.0,0.0,0.0,0.0,0.0,0.0,0.0,0.0,0.0,0.0,0.0,0.0,0.0,0.0,0.0,0.0,-4.3086,0.0,0.0,-4.2919,0.0,0.0,0.0,0.0,0.0,0.0,0.0,0.0,0.0,0.0,0.0,0.0,0.0,0.0,0.0,0.0,0.0,0.0,0.0,0.0,0.0,0.0,-4.3335,-4.4114,-4.6468,-4.7696,-4.7696,-4.6918,-4.5918,-4.4757,-4.4823,-4.3674,-4.1029,0.0,0.0,0.0,0.0,0.0,0.0,0.0,0.0,0.0,0.0,0.0,0.0,0.0,0.0,0.0,0.0,0.0,0.0,0.0,0.0,0.0,0.0,0.0,0.0,0.0,0.0,-3.7659,-3.8247,-3.8899,0.0,0.0,0.0,0.0,0.0,0.0,0.0,0.0,0.0,-4.6413,-4.9238,-5.123,-5.1303,-5.1303,-5.1629,-5.2462,-5.1249,-5.0764,-5.2281,-5.315,-5.315,0.0,0.0,0.0,0.0,0.0,0.0,0.0,0.0,0.0,0.0,0.0,0.0,0.0,0.0,0.0,0.0,0.0,0.0,0.0,0.0,0.0,0.0,0.0,0.0,0.0,0.0,0.0,-4.3906,-4.3849,0.0,0.0,0.0,0.0,0.0,0.0,0.0,0.0,0.0,0.0,0.0,-4.4135,-4.3319,0.0,0.0,0.0,0.0,0.0,0.0,0.0,0.0,0.0,0.0,0.0,0.0,-4.2502,-4.3354,-4.5146,-4.6359,-4.6866,-4.5798,-4.5011,-4.4531,-4.4482,-4.3379,-4.1154,0.0,0.0,0.0,0.0,0.0,0.0,0.0,0.0,0.0,0.0,0.0,0.0,0.0,0.0,0.0,0.0,0.0,0.0,0.0,0.0,0.0,0.0,0.0,0.0,0.0,-3.9294,0.0,0.0,0.0,0.0,0.0,0.0,0.0,0.0,0.0,0.0,0.0,-4.578,-4.712,-4.8242,-4.9293,-5.0343,-5.0488,-5.0981,0.0,0.0,0.0,0.0,0.0,0.0,0.0,0.0,0.0,0.0,0.0,0.0,0.0,0.0,-4.9564,-4.6649,-4.5888,-4.5617,-4.5345,0.0,0.0,0.0,0.0,0.0,0.0,0.0,0.0,0.0,0.0,0.0,0.0,0.0,0.0,-4.4617,-4.427,-4.3722,0.0,0.0,0.0,0.0,0.0,0.0,0.0,0.0,-4.4228,-4.4501,-4.4915,-4.4154,-4.4044,0.0,-4.3444,-4.214,0.0,0.0,0.0,0.0,0.0,0.0,0.0,0.0,-4.1958,-4.252,-4.4116,-4.5108,-4.5356,-4.4408,-4.3625,-4.3235,-4.293,-4.227,-4.1221,-3.8853,-3.7337,0.0,0.0,0.0,0.0,0.0,0.0,0.0,0.0,0.0,0.0,0.0,0.0,0.0,0.0,0.0,0.0,0.0,0.0,0.0,0.0,0.0,0.0,0.0,-3.9717,0.0,0.0,0.0,0.0,0.0,0.0,0.0,0.0,0.0,-4.4005,-4.5291,-4.6522,-4.7572,-4.8188,-4.8822,-4.9564,0.0,0.0,0.0,0.0,0.0,0.0,0.0,-4.9677,-4.8333,-4.8351,-4.8424,-4.8094,-4.9383,-5.0126,-4.9039,0.0,0.0,-4.7337,-4.6739,-4.6558,-4.6558,-4.6776,-4.6757,-4.6232,-4.6558,-4.6543,0.0,0.0,0.0,0.0,0.0,0.0,0.0,0.0,-4.5603,-4.5127,0.0,-4.4211,0.0,0.0,0.0,0.0,-4.4097,-4.4974,0.0,0.0,-4.5818,-4.5855,-4.4486,-4.5067,-4.5372,-4.5309,-4.5254,-4.4421,-4.2883,-4.1379,0.0,0.0,0.0,0.0,0.0,0.0,-4.1687,-4.1813,-4.3375,-4.3961,-4.3435,-4.2726,-4.1878,-4.0912,-4.0438,-4.0519,-4.1119,-3.9749,-3.8311,-3.6948,-3.6829,0.0,0.0,0.0,0.0,0.0,0.0,0.0,0.0,0.0,0.0,0.0,0.0,0.0,0.0,0.0,0.0,0.0,0.0,0.0,0.0,-3.8641,0.0,0.0,0.0,0.0,0.0,0.0,0.0,0.0,0.0,0.0,-4.4059,-4.6142,-4.7645,-4.7609,0.0,0.0,0.0,0.0,-4.8601,-4.7935,-4.7772,-4.7787,-4.7844,-4.9075,-4.9764,-4.9021,0.0,0.0,-4.6993,-4.7916,-4.8514,-4.692,-4.7391,-4.8242,-4.9641,-4.9148,-4.8731,-4.871,-4.8094,-4.7717,-4.7681,-4.7518,-4.736,-4.6471,0.0,0.0,0.0,0.0,-4.4435,-4.5132,-4.5902,-4.581,-4.5644,-4.5351,-4.4748,0.0,0.0,0.0,0.0,0.0,0.0,-4.4389,-4.4154,-4.4064,-4.4372,-4.5006,-4.466,-4.4787,-4.5291,-4.5291,-4.4747,-4.3751,-4.3299,-4.1832,-3.9441,0.0,0.0,0.0,0.0,-4.1397,-4.2502,-4.2722,-4.3005,-4.3397,-4.1991,-4.1209,-4.1103,-4.0959,-4.0984,-4.1187,-3.9783,-3.8785,-3.8362,-3.7371,0.0,0.0,0.0,0.0,0.0,0.0,0.0,0.0,0.0,0.0,0.0,0.0,0.0,0.0,0.0,0.0,0.0,0.0,0.0,-3.8415,-3.9151,-3.9679,0.0,0.0,0.0,0.0,0.0,0.0,0.0,0.0,0.0,-4.4784,-4.6069,-4.6631,0.0,0.0,-4.8098,-4.7301,-4.7699,-4.8188,-4.8514,-4.8547,0.0,-4.9329,-4.9311,-4.9166,-4.8927,-4.9112,-4.9003,-4.8312,-4.9075,-4.942,-4.8387,-4.8402,-4.8529,-4.8369,-4.8224,-4.804,-4.8043,-4.7862,-4.7717,-4.7681,-4.7283,-4.6817,-4.726,-4.5627,-4.5296,-4.5076,-4.4966,-4.5443,-4.6085,-4.6838,-4.6489,-4.614,-4.5736,-4.4857,-4.4254,-4.3852,-4.3305,0.0,0.0,0.0,-4.4095,-4.4077,-4.3608,-4.3715,-4.4332,-4.4168,-4.4349,-4.4802,-4.482,-4.4403,-4.3607,-4.3299,-4.1886,-3.9496,0.0,0.0,-3.9006,-4.002,-4.0908,-4.1524,-4.1611,-4.1699,-4.178,-4.0677,-4.0446,-4.1153,-4.0933,-4.0899,-4.1187,-4.007,-3.9317,-3.9078,-3.8166,-3.7445,0.0,0.0,0.0,0.0,0.0,0.0,0.0,0.0,0.0,0.0,0.0,-3.8369,-3.7297,0.0,0.0,0.0,-3.7914,-3.8572,-3.9535,-3.9716,0.0,0.0,0.0,0.0,0.0,0.0,0.0,-4.2936,-4.2991,-4.3263,-4.4222,-4.5037,-4.5599,-4.5761,-4.6613,-4.6939,-4.6142,0.0,-4.6939,-4.7428,-4.7482,-4.7753,-4.8514,-4.855,-4.8532,-4.8855,-4.8619,-4.842,-4.8442,-4.884,-4.8967,-4.8568,-4.8402,-4.8279,-4.779,-4.7464,-4.7228,-4.7228,-4.7228,-4.7138,-4.6848,-4.6359,-4.6074,-4.7865,-4.7131,-4.6416,-4.6415,-4.6984,-4.7058,-4.7516,-4.8122,-4.7256,-4.6505,-4.5736,-4.4782,-4.3905,-4.3232,-4.3157,0.0,-4.4044,-4.4097,-4.4079,-4.4024,-4.4024,-4.3626,-4.2955,-4.3662,-4.3969,-4.3934,-4.3988,-4.3571,-4.2701,-4.205,-4.0926,-3.9495,-4.0908,-4.0528,-3.848,-3.9835,-4.027,-3.9616,-4.0359,-4.0238,-3.9268,-3.9077,-3.9673,-4.095,-4.0434,-4.0434,-4.1077,-4.0493,-3.9866,-3.9312,-3.9069,-3.8367,-3.7177,0.0,0.0,0.0,0.0,0.0,0.0,0.0,0.0,0.0,0.0,0.0,0.0,0.0,0.0,0.0,-3.8953,0.0,-4.086,-4.029,0.0,0.0,0.0,-4.0546,-4.0691,-4.127,-4.1723,-4.1777,0.0,0.0,-4.301,-4.3662,-4.4639,-4.6124,-4.6359,-4.6106,-4.5309,-4.5291,-4.5291,-4.5436,-4.5417,-4.5707,-4.6649,-4.7301,-4.7932,-4.842,-4.8094,-4.7624,-4.7591,-4.7497,-4.7497,-4.7482,-4.7518,-4.7482,-4.75,-4.6827,-4.6395,-4.6287,-4.6359,-4.6196,-4.558,-4.5309,-4.526,-4.8196,-4.8012,-4.7829,-4.7131,-4.6232,-4.6837,-4.7204,-4.7314,-4.6507,-4.6049,-4.5828,-4.4985,-4.4491,-4.4345,-4.4876,-4.4546,-4.3579,-4.4033,-4.3921,-4.3358,-4.3228,-4.3137,-4.3067,-4.3137,-4.2902,-4.2468,-4.3049,-4.2558,-4.1162,-4.1651,-4.1087,-3.9599,-4.0487,-4.0379,-3.9187,-3.9564,-3.9997,-4.0397,-4.0257,-3.9686,-3.8759,-3.8901,-3.9206,-3.9661,-4.0051,-4.0373,-4.0643,-4.0497,-4.0302,-4.0016,-3.8921,-3.8126,-3.7699,-3.6535,0.0,0.0,0.0,0.0,0.0,0.0,0.0,0.0,0.0,-3.6603,-3.6197,0.0,-3.6573,0.0,-3.8872,-3.9914,-4.0563,-4.0437,0.0,0.0,-4.0963,-4.0999,-4.2194,-4.194,-4.1922,-4.2538,-4.2792,-4.3118,-4.3733,-4.3969,-4.4222,-4.4621,-4.52,-4.5291,-4.453,-4.4928,-4.5291,-4.5309,-4.5743,-4.6287,-4.6432,-4.7192,-4.7515,-4.7138,-4.6902,-4.6794,-4.6776,-4.6269,-4.587,-4.587,-4.587,-4.587,-4.5906,-4.5689,-4.5345,-4.4874,-4.5146,-4.5544,-4.5327,-4.4802,-4.4444,-4.8324,-4.8324,-4.8324,-4.7774,-4.7003,-4.7462,-4.7424,-4.7039,-4.625,-4.57,-4.5314,-4.4472,-4.4088,-4.4053,-4.4474,-4.4163,-4.3359,-4.3652,-4.3579,-4.3142,-4.3031,-4.2831,-4.2577,-4.243,-4.1977,-4.1288,-4.1397,-4.098,-4.011,-4.025,-3.9866,-3.9046,-3.948,-3.9379,-3.874,-3.929,-3.9541,-3.9406,-3.8993,-3.8541,-3.8126,-3.8423,-3.8625,-3.8761,-3.9477,-3.9764,-3.9477,-3.9477,-3.9453,-3.9364,-3.851,-3.7885,-3.7509,-3.6626,-3.5977,0.0,0.0,0.0,0.0,0.0,0.0,0.0,0.0,0.0,0.0,0.0,-3.6281,-3.7361,-3.905,-4.0219,-4.0474,-4.0818,-4.1343,-4.2158,-4.185,-4.194,-4.281,-4.2212,-4.185,-4.2321,-4.2049,-4.2122,-4.2918,-4.3045,-4.3172,-4.3517,-4.3932,-4.4059,-4.3715,-4.3969,-4.4222,-4.4258,-4.4621,-4.5055,-4.5345,-4.6106,-4.6486,-4.6087,-4.5979,-4.5852,-4.5508,-4.5073,-4.4657,-4.4331,-4.4512,-4.4765,-4.4747,-4.444,-4.4077,-4.3715,-4.3317,-4.3444,-4.4059,-4.3588,-4.3102,-4.8324,-4.8287,-4.8177,-4.8159,-4.8159,-4.8049,-4.7645,-4.7021,-4.614,-4.5296,-4.4507,-4.374,-4.3267,-4.3105,-4.3178,-4.3178,-4.3105,-4.3178,-4.3233,-4.3214,-4.3051,-4.2596,-4.1941,-4.1706,-4.1162,-4.0365,-3.973,-3.9385,-3.9258,-3.8584,-3.8254,-3.8285,-3.8285,-3.8066,-3.7739,-3.8841,-3.8874,-3.7774,-3.7359,-3.7235,-3.7459,-3.7792,-3.8001,-3.8094,-3.8852,-3.8937,-3.8294,-3.8259,-3.8236,-3.8213,-3.8018,-3.7631,-3.7007,-3.682,-3.6344,0.0,-3.5487,0.0,0.0,0.0,0.0,0.0,0.0,0.0,0.0,-3.5507,-3.6083,-3.747,-3.9175,-4.0239,-4.0365,-4.1071,-4.1813,-4.2502,-4.2792,-4.2865,-4.2719,-4.2121,-4.1687,-4.1687,-4.0999,-4.0764,-4.1469,-4.1542,-4.1831,-4.2411,-4.2556,-4.2574,-4.2611,-4.2829,-4.3046,-4.2919,-4.2829,-4.3118,-4.3534,-4.4277,-4.4784,-4.4784,-4.4729,-4.4584,-4.3896,-4.3661,-4.3389,-4.2828,-4.3099,-4.3552,-4.3625,-4.3027,-4.2611,-4.2539,-4.1578,-4.1198,-4.2194,-4.2103,-4.1651,-4.8324,-4.8233,-4.759,-4.7314,-4.7278,-4.6636,-4.6654,-4.7003,-4.5553,-4.4488,-4.3718,-4.3571,-4.3132,-4.2547,-4.3152,-4.3097,-4.2512,-4.3083,-4.3358,-4.334,-4.2558,-4.2193,-4.2081,-4.1355,-4.0539,-3.9791,-3.9645,-3.904,-3.8043,-3.8057,-3.7897,-3.7596,-3.765,-3.7414,-3.698,0.0,0.0,0.0,-3.7038,-3.6794,-3.6797,-3.7131,-3.7348,-3.7482,-3.818,0.0,-3.8527,-3.851,-3.8419,-3.8196,-3.7701,0.0,0.0,0.0,0.0,0.0,0.0,0.0,0.0,0.0,0.0,0.0,-3.5404,-3.5132,-3.5291,-3.6389,-3.7344,-3.8002,-3.843,-3.888,-3.955,-4.0293,-4.0782,-4.0981,-4.2103,-4.2665,-4.2031,-4.1777,-4.1687,-4.1687,-4.0981,-4.0528,-4.0673,-4.0727,-4.0782,-4.0999,-4.0981,-4.0963,-4.0999,-4.2067,-4.2865,-4.2864,-4.2303,-4.1741,-4.1252,-4.1922,-4.2537,-4.2375,-4.2375,-4.2338,-4.2175,-4.1614,-4.1216,-4.0981,-4.1071,-4.1234,-4.1216,-4.1053,-4.1017,-4.0963,-4.0709,-4.0601,-4.0908,-4.0836,-4.0781,-4.748,-4.7058,-4.6691,-4.6507,0.0,-4.5645,-4.5553,-4.5865,-4.5076,-4.425,-4.3497,-4.3479,-4.3057,-4.2323,-4.2708,-4.269,-4.2323,-4.2675,-4.286,-4.2823,-4.2335,-4.1697,-4.0999,-4.0458,-3.9786,-3.9021,-3.8802,-3.8414,-3.788,-3.7739,-3.7614,-3.745,-3.7487,-3.7266,-3.6823,-3.688,-3.6958,-3.7038,-3.6825,-3.6603,-3.6437,-3.6908,-3.7087,-3.6836,-3.7558,0.0,0.0,0.0,0.0,0.0,0.0,0.0,0.0,0.0,0.0,-3.5381,-3.53,-3.5064,-3.4648,-3.4549,-3.4614,-3.4848,-3.5264,-3.5566,-3.5778,-3.6859,-3.7685,-3.8158,-3.8554,-3.8952,-3.9369,-4.0075,-4.0492,-4.0546,-4.1234,-4.1542,-4.1144,-4.0764,-4.0564,-4.0474,-3.984,-3.9496,-3.9894,-3.9967,-4.013,-4.0456,-4.0492,-4.0474,-4.0546,-4.118,-4.1705,-4.1705,-4.1397,-4.0981,-4.0619,-4.0782,-4.1107,-4.1089,-4.1107,-4.0945,-4.0619,-4.0238,-3.984,-3.9514,-3.9659,-3.9948,-3.9967,-3.9967,-3.9967,-3.9912,-3.9641,-3.9387,-3.9387,-3.9677,-4.0001,-4.6507,-4.5883,-4.5755,-4.5681,-4.5626,-4.4819,-4.4507,-4.4507,-4.4488,0.0,0.0,-4.3479,-4.2965,-4.2121,-4.2378,-4.2341,-4.2103,-4.2231,-4.2304,-4.2286,-4.1945,-4.1088,-3.9843,-3.9559,-3.9071,-3.8417,-3.8085,-3.7948,-3.7984,-3.7667,-3.7487,-3.7487,-3.7414,-3.7208,-3.6818,-3.6471,-3.6392,-3.6623,-3.6643,-3.6498,-3.6247,-3.681,-3.6853,-3.6318,-3.6939,-3.6904,-3.6128,-3.6232,-3.6207,-3.6015,-3.6122,-3.6165,-3.6058,-3.6041,-3.5921,-3.5643,-3.5518,-3.5129,-3.4376,-3.4342,-3.4232,-3.3918,-3.5349,-3.6306,-3.6488,-3.7184,-3.7774,-3.8157,-3.8807,-3.917,-3.9205,-3.9858,-4.0256,-4.0112,-4.0329,-4.0474,-4.0311,-3.9786,-3.9478,-3.9315,-3.8771,-3.8444,-3.9079,-3.9188,-3.9369,-3.993,-3.9967,-4.0094,-4.013,-4.0365,-4.0583,-4.042,-4.0329,-4.0257,-4.0076,-4.0039,-4.0093,-4.0039,-4.0057,-3.9876,-3.9369,-3.9188,-3.8916,-3.8445,-3.8771,-3.9097,-3.9188,-3.9188,-3.917,-3.9187,-3.8698,-3.8209,-3.8281,-3.8717,-3.9202,-4.5993,-4.5828,-4.5168,-4.4874,-4.4783,-4.3993,-4.3644,-4.3663,-4.3663,-4.3608,-4.3479,-4.3479,-4.2671,-4.1352,-4.2708,-4.258,-4.1334,-4.1992,-4.2304,-4.2231,-4.0857,-4.0104,-3.9866,-3.9153,-3.8703,-3.8494,-3.8446,-3.8251,-3.8018,-3.7949,-3.7774,-3.7505,-3.717,-3.6781,-3.6426,-3.6343,-3.6322,-3.6346,-3.6329,-3.6326,-3.628,-3.6383,-3.64,-3.6318,-3.6404,-3.6111,-3.5387,-3.5956,-3.5949,-3.5221,-3.5893,-3.6255,-3.6165,-3.6182,-3.5648,-3.4346,-3.4185,-3.3778,-3.2931,-3.3386,-3.4341,-3.579,-3.7107,-3.7578,-3.6916,-3.7614,-3.8123,-3.8209,-3.8337,-3.8372,-3.8408,-3.9079,-3.9297,-3.8788,-3.9713,-4.022,-3.9623,-3.9441,-3.9333,-3.9332,-3.8698,-3.8227,-3.8391,-3.8427,-3.8464,-3.8536,-3.8753,-3.859,-3.8844,-3.9677,-4.013,-3.9731,-3.955,-3.926,-3.8862,-3.8554,-3.8663,-3.8518,-3.8627,-3.8663,-3.8518,-3.8408,-3.8336,-3.8245,-3.8301,-3.8372,-3.8426,-3.839,-3.8444,-3.8462,-3.8281,-3.8209,-3.8209,-3.8354,-3.8493,-4.5002,-4.4562,-4.4195,-4.4048,-4.4011,-4.3662,-4.3479,-4.3479,-4.3479,-4.3479,-4.3479,-4.3479,-4.2616,-4.1224,-4.1882,-4.1552,-4.0469,-4.0818,-4.1001,-4.0946,-4.023,-3.9662,-3.9239,-3.8872,-3.8676,-3.8593,-3.8382,-3.8219,-3.8034,-3.7826,-3.765,-3.7487,-3.7095,-3.6698,-3.6305,-3.6284,-3.6284,-3.6284,-3.6284,-3.6284,-3.6284,-3.6284,-3.6111,-3.5714,-3.5697,-3.5352,-3.4648,-3.4904,-3.4918,-3.4533,-3.4884,-3.5073,-3.505,-3.509,-3.478,-3.4068,-3.412,-3.4174,-3.414,-3.4915,-3.5729,-3.6586,-3.7357,-3.7667,-3.7265,-3.781,-3.8192,-3.8209,-3.8209,-3.8209,-3.8209,-3.8535,-3.8607,-3.8245,-3.8862,-3.9079,-3.8826,-3.8752,-3.8735,-3.8716,-3.8444,-3.8209,-3.8209,-3.8209,-3.8209,-3.8209,-3.8209,-3.8209,-3.8209,-3.8771,-3.9152,-3.8808,-3.8735,-3.8608,-3.8264,-3.8209,-3.8209,-3.8209,-3.8209,-3.8209,-3.8172,-3.7919,-3.7774,-3.8082,-3.7865,-3.7774,-3.8064,-3.8209,-3.8209,-3.8209,-3.8209,-3.8209,-3.8209,-3.8239,-3.832,-4.4066,-4.3479,-4.3479,-4.3479,-4.3479,-4.3479,-4.3479,-4.3479,-4.3479,-4.3479,-4.3478,-4.3331,-4.2433,-4.1187,-4.1113,-4.0671,-3.9955,-3.9882,-3.9882,-3.9882,-3.9698,-3.9313,-3.8744,-3.8707,-3.8707,-3.8676,-3.8385,-3.8236,-3.8186,-3.7826,-3.7542,-3.734,-3.7055,-3.6698,-3.6305,-3.6128,-3.6042,-3.6042,-3.5904,-3.5973,-3.6284,-3.6146,-3.5766,-3.5249,-3.5025,-3.4596,-3.3906,-3.4071,-3.4088,-3.3872,-3.4071,-3.4157,-3.4113,-3.4096,-3.4007,-3.3891,-3.394,-3.4328,-3.505,-3.5902,-3.6512,-3.6781,-3.7321,-3.7596,-3.7542,-3.7933,-3.8209,-3.8209,-3.8209,-3.8209,-3.8209,-3.8227,-3.8209,-3.8209,-3.8209,-3.8281,-3.8227,-3.8209,-3.8209,-3.8209,-3.8209,-3.8209,-3.8209,-3.8209,-3.8209,-3.8209,-3.8209,-3.8209,-3.8209,-3.8209,-3.8209,-3.8209,-3.8209,-3.8245,-3.8209,-3.8209,-3.8209,-3.8209,-3.8028,-3.7901,-3.7756,-3.7249,-3.6961,-3.7359,-3.714,-3.6961,-3.7486,-3.7594,-3.754,-3.7486,-3.7468,-3.7612,-3.781,-3.796,-3.82,-4.3588,-4.3497,-4.3479,-4.3479,-4.3479,-4.3479,-4.3479,-4.3479,-4.3479,-4.3479,-4.3387,-4.2727,-4.1937,-4.1168,-4.1095,-4.0616,-3.9882,-3.9882,-3.9863,-3.9787,-3.9148,-3.8762,-3.8707,-3.8707,-3.8707,-3.8692,-3.8643,-3.8611,-3.8596,-3.8236,-3.7685,-3.7036,-3.69,-3.6701,-3.6277,-3.5611,-3.5283,-3.5304,-3.4628,-3.4938,-3.6163,-3.5645,-3.5266,-3.5197,-3.4545,-3.3818,-3.3097,-3.4006,-3.4059,-3.3185,-3.3971,-3.4373,-3.4101,-3.4079,-3.3768,-3.3095,-3.3003,-3.321,-3.3775,-3.4472,-3.5402,-3.6318,-3.7486,-3.7932,-3.7596,-3.7915,-3.8209,-3.8209,-3.8209,-3.8209,-3.8209,-3.8209,-3.8209,-3.8209,-3.8209,-3.8209,-3.8209,-3.8209,-3.8209,-3.8209,-3.8209,-3.8209,-3.8209,-3.8209,-3.8209,-3.8209,-3.8209,-3.8209,-3.8209,-3.8209,-3.8209,-3.8209,-3.8209,-3.8209,-3.8209,-3.8191,-3.81,-3.8047,-3.7557,-3.7212,-3.6959,-3.6472,-3.6019,-3.6363,-3.6057,-3.6021,-3.6112,-3.6021,-3.6146,-3.6363,-3.6363,-3.6309,-3.6902,-3.7287,-3.7583,-4.3682,-4.3496,-4.3479,-4.3479,-4.3479,-4.3479,-4.3479,-4.3461,-4.3002,-4.2782,-4.2616,-4.146,-4.0965,-4.1058,-4.0616,-3.9955,-3.9203,-3.9184,-3.9203,-3.9166,-3.8854,-3.8707,-3.8707,-3.8707,-3.8707,-3.8707,-3.8707,-3.8707,-3.8658,-3.8549,-3.817,-3.756,-3.695,-3.6404,-3.5946,-3.5045,-3.4562,-3.4545,-3.4467,-3.4588,-3.491,-3.4697,-3.4419,-3.4144,-3.3832,-3.3345,-3.2684,-3.3001,-3.2947,-3.2339,-3.2708,-3.2883,-3.275,-3.2939,-3.291,-3.2596,-3.3053,-3.3492,-3.388,-3.5031,-3.6007,-3.6665,-3.7629,-3.8106,-3.795,-3.8106,-3.8209,-3.8209,-3.8209,-3.8209,-3.8209,-3.8209,-3.8209,-3.8209,-3.8209,-3.8209,-3.8209,-3.8209,-3.8209,-3.8209,-3.8209,-3.8209,-3.8209,-3.8209,-3.8209,-3.8209,-3.8209,-3.8209,-3.8209,-3.8209,-3.8209,-3.8209,-3.8209,-3.8209,-3.8154,-3.7756,-3.7575,-3.7375,-3.6832,-3.6309,-3.6182,-3.5639,-3.524,-3.5659,-3.5369,-3.5333,-3.5804,-3.5768,-3.5786,-3.5713,-3.5768,-3.5928,-3.6254,-3.678,-3.7148,-4.3923,-4.3649,-4.3531,-4.3479,-4.3479,-4.3479,-4.3368,-4.3112,-4.2543,-4.2194,-4.1846,-4.0506,-4.0212,-4.0598,-3.9937,-3.9221,-3.8744,-3.8707,-3.8707,-3.8707,-3.8707,-3.8707,-3.8707,-3.8707,-3.8707,-3.8707,-3.8707,-3.8627,-3.8564,-3.8549,-3.8227,-3.757,-3.6772,-3.6114,-3.5575,-3.4574,-3.4019,-3.3925,-3.3978,-3.3801,-3.3496,-3.3475,-3.3382,-3.326,-3.3069,-3.2703,-3.2214,-3.2249,-3.2144,-3.1837,-3.1892,-3.1947,-3.193,-3.2162,-3.2335,-3.2439,-3.3016,-3.3541,-3.392,-3.5274,-3.627,-3.6813,-3.7654,-3.8209,-3.8209,-3.8209,-3.8209,-3.8209,-3.8209,-3.8209,-3.8209,-3.8209,-3.8209,-3.8209,-3.8209,-3.8209,-3.8209,-3.8209,-3.8209,-3.8209,-3.8209,-3.8209,-3.8209,-3.8209,-3.8209,-3.8209,-3.8209,-3.8209,-3.8209,-3.8209,-3.8209,-3.8191,-3.8046,-3.783,-3.7828,-3.7466,-3.6995,-3.6508,-3.6019,-3.546,-3.5406,-3.4787,-3.4335,-3.4591,-3.441,-3.441,-3.4679,-3.4953,-3.5152,-3.5134,-3.5152,-3.5243,-3.5439,-3.6087,-3.6307,-4.4221,-4.3939,-4.3632,-4.3479,-4.3479,-4.3442,-4.3039,-4.2433,-4.2268,-4.1864,-4.1077,-4.0249,-3.99,-3.9882,-3.9166,-3.8744,-3.8707,-3.8707,-3.8707,-3.8707,-3.8707,-3.8707,-3.8707,-3.8707,-3.8707,-3.8707,-3.8707,-3.853,-3.8203,-3.8152,-3.7535,-3.6488,-3.6328,-3.59,-3.5101,-3.4268,-3.3792,-3.3351,-3.2827,-3.2318,-3.2029,-3.1972,-3.232,-3.2771,-3.227,-3.1962,-3.1911,-3.2144,-3.2162,-3.1837,-3.2126,-3.2283,-3.2283,-3.23,-3.2471,-3.267,-3.2691,-3.2926,-3.3546,-3.4603,-3.5558,-3.6308,-3.7407,-3.8172,-3.81,-3.8156,-3.8209,-3.8209,-3.8209,-3.8209,-3.8209,-3.8209,-3.8209,-3.8209,-3.8209,-3.8209,-3.8209,-3.8209,-3.8209,-3.8209,-3.8209,-3.8209,-3.8209,-3.8209,-3.8209,-3.8209,-3.8209,-3.8209,-3.8209,-3.8209,-3.8191,-3.7991,-3.7575,-3.7067,-3.7031,-3.6705,-3.6417,-3.5965,-3.5258,-3.4645,-3.4371,-3.4081,-3.381,-3.3628,-3.3665,-3.3647,-3.3556,-3.3574,-3.3737,-3.381,-3.3882,-3.4027,-3.457,-3.4775,-3.5031,-4.4383,-4.3974,-4.3632,-4.3479,-4.3424,-4.2965,-4.2561,-4.2194,-4.1185,-4.0598,-4.023,-3.9496,-3.9129,-3.9129,-3.8836,-3.8707,-3.8707,-3.8707,-3.8707,-3.8707,-3.8707,-3.8707,-3.8707,-3.8707,-3.8707,-3.8707,-3.8707,-3.8627,-3.8515,-3.8483,-3.7997,-3.7023,-3.6067,-3.5203,-3.4334,-3.3196,-3.2527,-3.2402,-3.2301,-3.2126,-3.1857,-3.2002,-3.2159,-3.2199,-3.2371,-3.2453,-3.2418,-3.2765,-3.2781,-3.2453,-3.2569,-3.2619,-3.2651,-3.2829,-3.2923,-3.2957,-3.2925,-3.2971,-3.3145,-3.3905,-3.466,-3.5233,-3.6606,-3.7484,-3.752,-3.7901,-3.8209,-3.8209,-3.8209,-3.8209,-3.8209,-3.8209,-3.8209,-3.8209,-3.8209,-3.8209,-3.8209,-3.8209,-3.8209,-3.8209,-3.8209,-3.8209,-3.8209,-3.8209,-3.8209,-3.8209,-3.8209,-3.8209,-3.8209,-3.8209,-3.8028,-3.7557,-3.7176,-3.6633,-3.5476,-3.5457,-3.5276,-3.495,-3.4446,-3.4027,-3.3701,-3.3701,-3.352,-3.352,-3.3411,-3.3393,-3.3447,-3.3447,-3.3393,-3.3393,-3.3393,-3.3484,-3.3773,-3.4218,-3.4408,-4.4604,-4.4165,-4.3513,-4.3223,-4.3133,-4.2299,-4.1772,-4.1423,-4.0359,-3.9753,-3.946,-3.8927,-3.8707,-3.8707,-3.8707,-3.8707,-3.8707,-3.8707,-3.8707,-3.8707,-3.8707,-3.8707,-3.8707,-3.8707,-3.8707,-3.8707,-3.8707,-3.8707,-3.8637,-3.8339,-3.7708,-3.6839,-3.5483,-3.4416,-3.3568,-3.27,-3.2231,-3.2197,-3.2453,-3.2453,-3.2197,-3.2335,-3.2352,-3.2249,-3.2668,-3.2827,-3.2668,-3.297,-3.3047,-3.286,-3.2795,-3.2842,-3.2968,-3.3273,-3.3422,-3.3317,-3.3291,-3.3232,-3.3222,-3.402,-3.4747,-3.5013,-3.6435,-3.7393,-3.743,-3.7866,-3.8172,-3.8209,-3.8209,-3.8209,-3.8209,-3.8209,-3.8209,-3.8209,-3.8209,-3.8209,-3.8209,-3.8209,-3.8209,-3.8209,-3.8209,-3.8209,-3.8209,-3.8209,-3.8209,-3.8209,-3.8209,-3.8209,-3.8209,-3.7937,-3.7683,-3.7067,-3.6453,-3.5783,-3.4969,-3.4661,-3.4461,-3.4117,-3.4063,-3.3592,-3.3393,-3.3393,-3.3393,-3.3393,-3.3393,-3.3393,-3.3393,-3.3393,-3.3393,-3.3393,-3.3393,-3.3447,-3.3676,-3.3884,-3.4004,-4.4769,-4.4499,-4.3282,-4.2686,-4.2514,-4.1567,-4.0669,-4.0102,-3.9898,-3.9405,-3.8872,-3.8726,-3.8707,-3.8707,-3.8707,-3.8707,-3.8707,-3.8707,-3.8707,-3.8707,-3.8707,-3.8707,-3.8707,-3.8707,-3.8707,-3.8707,-3.8707,-3.867,-3.8545,-3.7669,-3.676,-3.5706,-3.4715,-3.3804,-3.2846,-3.3019,-3.3032,-3.2842,-3.2983,-3.3032,-3.2844,-3.2731,-3.2732,-3.2749,-3.3063,-3.3001,-3.2437,-3.2716,-3.2921,-3.2892,-3.2874,-3.2968,-3.3288,-3.3578,-3.3762,-3.3739,-3.3712,-3.3643,-3.3723,-3.4857,-3.5527,-3.5729,-3.7142,-3.7919,-3.7901,-3.8083,-3.8209,-3.8209,-3.8209,-3.8209,-3.8209,-3.8209,-3.8209,-3.8209,-3.8209,-3.8209,-3.8209,-3.8209,-3.8209,-3.8209,-3.8209,-3.8209,-3.8209,-3.8209,-3.8209,-3.8209,-3.8209,-3.8209,-3.8136,-3.7629,-3.7122,-3.6687,-3.591,-3.4969,-3.4428,-3.3976,-3.3683,-3.3447,-3.352,-3.3393,-3.3393,-3.3393,-3.3393,-3.3393,-3.3393,-3.3393,-3.3393,-3.3393,-3.3393,-3.3393,-3.3393,-3.3393,-3.3549,-3.3687,-3.3644,-4.3973,-4.3824,-4.2637,-4.2029,-4.178,-4.0915,-4.0283,-3.9843,-3.9331,-3.8946,-3.8726,-3.8707,-3.8707,-3.8707,-3.8707,-3.8707,-3.8707,-3.8707,-3.8707,-3.8707,-3.8707,-3.8707,-3.8707,-3.8707,-3.8707,-3.8707,-3.8707,-3.8395,-3.7903,-3.7497,-3.6665,-3.5349,-3.4624,-3.3944,-3.3144,-3.3014,-3.2874,-3.2827,-3.289,-3.2779,-3.2503,-3.2682,-3.2682,-3.2536,-3.3001,-3.3184,-3.3016,-3.3302,-3.3494,-3.348,-3.3494,-3.3536,-3.3652,-3.3734,-3.378,-3.3739,-3.3712,-3.3643,-3.3658,-3.4436,-3.5081,-3.5292,-3.6488,-3.7267,-3.7466,-3.7902,-3.8191,-3.8209,-3.8209,-3.8209,-3.8209,-3.8209,-3.8209,-3.8209,-3.8209,-3.8209,-3.8209,-3.8209,-3.8209,-3.8209,-3.8209,-3.8209,-3.8209,-3.8209,-3.8209,-3.8209,-3.8209,-3.8209,-3.81,-3.7466,-3.6741,-3.62,-3.517,-3.4356,-3.3954,-3.3719,-3.3556,-3.3393,-3.3393,-3.3393,-3.3393,-3.3393,-3.3393,-3.3393,-3.3393,-3.3393,-3.3393,-3.3393,-3.3393,-3.3393,-3.3393,-3.3393,-3.3411,-3.3441,-3.3452,-4.3468,-4.3578,-4.2202,-4.1531,-4.1239,-4.0291,-3.9781,-3.9519,-3.8974,-3.8707,-3.8707,-3.8707,-3.8707,-3.8707,-3.8707,-3.8707,-3.8707,-3.8707,-3.8707,-3.8707,-3.8707,-3.8707,-3.8707,-3.8707,-3.8707,-3.8634,-3.8395,-3.8025,-3.7492,-3.6713,-3.5816,-3.4882,-3.4193,-3.3612,-3.3142,-3.3029,-3.2986,-3.2968,-3.3001,-3.2876,-3.2732,-3.2765,-3.2747,-3.2732,-3.3096,-3.335,-3.348,-3.3694,-3.3807,-3.3807,-3.3807,-3.3807,-3.3807,-3.3807,-3.378,-3.3753,-3.3721,-3.3684,-3.3664,-3.4313,-3.4872,-3.5232,-3.627,-3.7158,-3.7448,-3.7991,-3.8191,-3.8209,-3.8209,-3.8209,-3.8209,-3.8209,-3.8209,-3.8209,-3.8209,-3.8209,-3.8209,-3.8209,-3.8209,-3.8209,-3.8209,-3.8209,-3.8209,-3.8209,-3.8209,-3.8209,-3.8209,-3.8209,-3.7991,-3.723,-3.6453,-3.5641,-3.4736,-3.4063,-3.3538,-3.3411,-3.3411,-3.3393,-3.3393,-3.3393,-3.3393,-3.3393,-3.3393,-3.3393,-3.3393,-3.3393,-3.3393,-3.3393,-3.3393,-3.3393,-3.3393,-3.3393,-3.3393,-3.3393,-3.3408,-4.3223,-4.3585,-4.1833,-4.1029,-4.0844,-3.9718,-3.9222,-3.9101,-3.8825,-3.8707,-3.8707,-3.8707,-3.8707,-3.8707,-3.8707,-3.8707,-3.8707,-3.8707,-3.8707,-3.8707,-3.8707,-3.8707,-3.8707,-3.8707,-3.8634,-3.8432,-3.7863,-3.7456,-3.7019,-3.5641,-3.4507,-3.4374,-3.3566,-3.2941,-3.3029,-3.3199,-3.3335,-3.3317,-3.3335,-3.3306,-3.3247,-3.3063,-3.2983,-3.3229,-3.3321,-3.348,-3.3707,-3.3793,-3.3807,-3.3807,-3.3807,-3.3807,-3.3807,-3.3807,-3.3788,-3.3793,-3.3788,-3.3766,-3.3863,-3.4367,-3.5005,-3.555,-3.6429,-3.7285,-3.781,-3.8028,-3.8209,-3.8209,-3.8209,-3.8209,-3.8209,-3.8209,-3.8209,-3.8209,-3.8209,-3.8209,-3.8209,-3.8209,-3.8209,-3.8209,-3.8209,-3.8209,-3.8209,-3.8209,-3.8209,-3.8209,-3.8209,-3.8172,-3.7738,-3.6942,-3.6055,-3.5204,-3.4338,-3.3864,-3.3393,-3.3393,-3.3393,-3.3393,-3.3393,-3.3393,-3.3393,-3.3393,-3.3393,-3.3393,-3.3393,-3.3393,-3.3393,-3.3393,-3.3393,-3.3393,-3.3393,-3.3393,-3.3393,-3.3393,-3.3393,-4.2545,-4.202,-4.0959,-4.0411,-4.0184,-3.9595,-3.9272,-3.9073,-3.8825,-3.8707,-3.8707,-3.8707,-3.8707,-3.8707,-3.8707,-3.8707,-3.8707,-3.8707,-3.8707,-3.8707,-3.8707,-3.8707,-3.8707,-3.8689,-3.8395,-3.7896,-3.7547,-3.6853,-3.572,-3.5103,-3.453,-3.3977,-3.3696,-3.3522,-3.3564,-3.3592,-3.3666,-3.3666,-3.3652,-3.3508,-3.335,-3.3451,-3.3451,-3.3321,-3.3508,-3.368,-3.3807,-3.3807,-3.3807,-3.3807,-3.3807,-3.3807,-3.3807,-3.3807,-3.3807,-3.3807,-3.3807,-3.3762,-3.3863,-3.4345,-3.4856,-3.5094,-3.6229,-3.7067,-3.7303,-3.7883,-3.8154,-3.8209,-3.8209,-3.8209,-3.8209,-3.8209,-3.8209,-3.8209,-3.8209,-3.8209,-3.8209,-3.8209,-3.8209,-3.8209,-3.8209,-3.8209,-3.8209,-3.8209,-3.8209,-3.8209,-3.8172,-3.8028,-3.7538,-3.6653,-3.575,-3.4896,-3.4135,-3.3701,-3.3393,-3.3393,-3.3393,-3.3393,-3.3393,-3.3393,-3.3393,-3.3393,-3.3393,-3.3393,-3.3393,-3.3393,-3.3393,-3.3393,-3.3393,-3.3393,-3.3393,-3.3393,-3.3393,-3.3393,-3.3393,-4.2163,-4.1934,-4.0788,-4.0206,-4.0017,-3.9651,-3.9414,-3.9205,-3.8848,-3.8707,-3.8707,-3.8707,-3.8707,-3.8707,-3.8707,-3.8707,-3.8707,-3.8707,-3.8707,-3.8707,-3.8707,-3.8707,-3.8707,-3.8689,-3.8285,-3.7529,-3.7162,-3.6266,-3.5169,-3.4674,-3.4229,-3.3903,-3.3807,-3.3807,-3.378,-3.3807,-3.3807,-3.378,-3.368,-3.348,-3.3335,-3.3332,-3.3379,-3.3321,-3.3508,-3.3638,-3.378,-3.3807,-3.3807,-3.3807,-3.3807,-3.3807,-3.3807,-3.3807,-3.3807,-3.3807,-3.3807,-3.3775,-3.3794,-3.4118,-3.4433,-3.4866,-3.5882,-3.656,-3.7067,-3.7738,-3.8209,-3.8209,-3.8209,-3.8209,-3.8209,-3.8209,-3.8209,-3.8209,-3.8209,-3.8209,-3.8209,-3.8209,-3.8209,-3.8209,-3.8209,-3.8209,-3.8209,-3.8209,-3.8209,-3.8209,-3.8209,-3.7991,-3.7611,-3.6526,-3.5623,-3.4899,-3.4081,-3.3556,-3.3393,-3.3393,-3.3393,-3.3393,-3.3393,-3.3393,-3.3393,-3.3393,-3.3393,-3.3393,-3.3393,-3.3393,-3.3393,-3.3393,-3.3393,-3.3393,-3.3393,-3.3393,-3.3393,-3.3393,-3.3393,-4.1925,-4.2412,-4.0922,-4.032,-4.0215,-3.9781,-3.9539,-3.9401,-3.896,-3.8753,-3.8707,-3.8707,-3.8707,-3.8707,-3.8707,-3.8707,-3.8707,-3.8707,-3.8707,-3.8707,-3.8707,-3.8707,-3.8707,-3.8707,-3.8028,-3.7129,-3.6501,-3.5771,-3.4876,-3.4119,-3.388,-3.3807,-3.3807,-3.3807,-3.3807,-3.3807,-3.3807,-3.3748,-3.3578,-3.3447,-3.3361,-3.3258,-3.3258,-3.339,-3.3437,-3.3564,-3.3753,-3.3807,-3.3807,-3.3807,-3.3807,-3.3807,-3.3807,-3.3807,-3.3807,-3.3807,-3.3793,-3.378,-3.3748,-3.3716,-3.3901,-3.4568,-3.5302,-3.6055,-3.6779,-3.7593,-3.8209,-3.8209,-3.8209,-3.8209,-3.8209,-3.8209,-3.8209,-3.8209,-3.8209,-3.8209,-3.8209,-3.8209,-3.8209,-3.8209,-3.8209,-3.8209,-3.8209,-3.8209,-3.8209,-3.8209,-3.8172,-3.7955,-3.743,-3.6508,-3.5804,-3.5279,-3.4407,-3.3447,-3.3393,-3.3393,-3.3393,-3.3393,-3.3393,-3.3393,-3.3393,-3.3393,-3.3393,-3.3393,-3.3393,-3.3393,-3.3393,-3.3393,-3.3393,-3.3393,-3.3393,-3.3393,-3.3393,-3.3393,-3.3393,-4.1294,-4.0807,-4.0454,-4.032,-4.0263,-3.9954,-3.9693,-3.9489,-3.9151,-3.8896,-3.8735,-3.8707,-3.8707,-3.8707,-3.8707,-3.8707,-3.8707,-3.8707,-3.8707,-3.8707,-3.8707,-3.8707,-3.8689,-3.867,-3.7554,-3.6321,-3.6156,-3.5495,-3.4394,-3.4009,-3.3807,-3.3807,-3.3807,-3.3807,-3.3807,-3.3807,-3.3807,-3.3793,-3.3707,-3.368,-3.3666,-3.3597,-3.3564,-3.3666,-3.3666,-3.3707,-3.378,-3.3807,-3.3807,-3.3807,-3.3807,-3.3807,-3.3807,-3.3807,-3.3807,-3.3793,-3.3753,-3.3726,-3.3698,-3.3619,-3.3611,-3.3978,-3.5102,-3.5858,-3.6075,-3.7431,-3.8118,-3.8209,-3.8209,-3.8209,-3.8209,-3.8209,-3.8209,-3.8209,-3.8209,-3.8209,-3.8209,-3.8209,-3.8209,-3.8209,-3.8209,-3.8209,-3.8209,-3.8209,-3.8209,-3.8209,-3.8082,-3.7901,-3.7214,-3.6435,-3.5802,-3.5243,-3.4335,-3.3411,-3.3393,-3.3393,-3.3393,-3.3393,-3.3393,-3.3393,-3.3393,-3.3393,-3.3393,-3.3393,-3.3393,-3.3393,-3.3393,-3.3393,-3.3393,-3.3393,-3.3393,-3.3393,-3.3393,-3.3393,-3.3393,-4.1341,-4.0873,-4.0472,-4.032,-4.0253,-4.0017,-3.9837,-3.9616,-3.9259,-3.9017,-3.8881,-3.8765,-3.8707,-3.8707,-3.8707,-3.8707,-3.8707,-3.8707,-3.8707,-3.8707,-3.8689,-3.8487,-3.8285,-3.8432,-3.7753,-3.634,-3.6211,-3.5532,-3.4614,-3.3972,-3.3807,-3.3807,-3.3807,-3.3807,-3.3807,-3.3807,-3.3807,-3.3807,-3.3807,-3.3807,-3.3807,-3.3807,-3.3807,-3.3807,-3.3807,-3.3807,-3.3807,-3.3807,-3.3807,-3.3807,-3.3807,-3.3807,-3.3807,-3.3807,-3.3807,-3.3793,-3.378,-3.3726,-3.3684,-3.3637,-3.3716,-3.4036,-3.5162,-3.5838,-3.6453,-3.7538,-3.81,-3.8209,-3.8209,-3.8209,-3.8209,-3.8209,-3.8209,-3.8209,-3.8209,-3.8209,-3.8209,-3.8209,-3.8209,-3.8209,-3.8209,-3.8209,-3.8209,-3.8209,-3.8209,-3.8209,-3.8191,-3.7973,-3.7158,-3.6363,-3.5566,-3.4863,-3.4009,-3.3429,-3.3393,-3.3393,-3.3393,-3.3393,-3.3393,-3.3393,-3.3393,-3.3393,-3.3393,-3.3393,-3.3393,-3.3393,-3.3393,-3.3393,-3.3393,-3.3393,-3.3393,-3.3393,-3.3393,-3.3393,-3.3393,-4.1426,-4.136,-4.0606,-4.032,-4.0272,-4.0077,-3.9935,-3.9837,-3.9421,-3.9205,-3.9059,-3.8851,-3.878,-3.8689,-3.8707,-3.8707,-3.8707,-3.8707,-3.8707,-3.8707,-3.845,-3.8248,-3.801,-3.7991,-3.79,-3.7401,-3.6684,-3.5752,-3.4747,-3.4192,-3.3825,-3.3807,-3.3807,-3.3807,-3.3807,-3.3807,-3.3807,-3.3807,-3.3807,-3.3807,-3.3807,-3.3807,-3.3807,-3.3807,-3.3807,-3.3807,-3.3807,-3.3807,-3.3807,-3.3807,-3.3807,-3.3807,-3.3807,-3.3807,-3.3807,-3.3807,-3.3775,-3.3739,-3.3671,-3.3637,-3.384,-3.4534,-3.5344,-3.6019,-3.6725,-3.7538,-3.8118,-3.8209,-3.8209,-3.8209,-3.8209,-3.8209,-3.8209,-3.8209,-3.8209,-3.8209,-3.8209,-3.8209,-3.8209,-3.8209,-3.8209,-3.8209,-3.8209,-3.8209,-3.8209,-3.8209,-3.8191,-3.7973,-3.7194,-3.6526,-3.5874,-3.5424,-3.4824,-3.4081,-3.3954,-3.3447,-3.3429,-3.3502,-3.3484,-3.3429,-3.3411,-3.3393,-3.3393,-3.3393,-3.3393,-3.3393,-3.3393,-3.3393,-3.3393,-3.3393,-3.3393,-3.3393,-3.3393,-3.3393,-3.3393,-4.0671,-4.0581,-4.0384,-4.0317,-4.0299,-4.0244,-4.0098,-3.9914,-3.9785,-3.9495,-3.9124,-3.9064,-3.8896,-3.8765,-3.8707,-3.8707,-3.8707,-3.8615,-3.8597,-3.8469,-3.8083,-3.7749,-3.7991,-3.7294,-3.7055,-3.7199,-3.6593,-3.5477,-3.4449,-3.3844,-3.3807,-3.3807,-3.3807,-3.3807,-3.3807,-3.3807,-3.3807,-3.3807,-3.3807,-3.3807,-3.3807,-3.3807,-3.3807,-3.3807,-3.3807,-3.3807,-3.3807,-3.3807,-3.3807,-3.3807,-3.3807,-3.3807,-3.3807,-3.3807,-3.3807,-3.3793,-3.3748,-3.3712,-3.3643,-3.3577,-3.3531,-3.393,-3.5002,-3.5783,-3.6381,-3.7305,-3.8082,-3.8209,-3.8209,-3.8209,-3.8209,-3.8209,-3.8209,-3.8209,-3.8209,-3.8209,-3.8209,-3.8209,-3.8209,-3.8209,-3.8209,-3.8209,-3.8209,-3.8209,-3.8209,-3.8209,-3.8209,-3.8064,-3.7557,-3.7085,-3.6635,-3.629,-3.6019,-3.5258,-3.4606,-3.39,-3.352,-3.3683,-3.3665,-3.352,-3.3484,-3.3411,-3.3393,-3.3393,-3.3393,-3.3393,-3.3393,-3.3393,-3.3393,-3.3393,-3.3393,-3.3393,-3.3393,-3.3393,-3.3393,-4.0458,-4.0398,-4.0325,-4.0308,-4.0319,-4.032,-4.0234,-4.0098,-3.9946,-3.9762,-3.9483,-3.9232,-3.905,-3.891,-3.8735,-3.8707,-3.8597,-3.8212,-3.8102,-3.79,-3.7327,-3.7033,-3.7477,-3.6578,-3.6266,-3.6156,-3.5734,-3.5293,-3.4449,-3.399,-3.3844,-3.3807,-3.3807,-3.3807,-3.3807,-3.3807,-3.3807,-3.3807,-3.3807,-3.3807,-3.3807,-3.3807,-3.3807,-3.3807,-3.3807,-3.3807,-3.3807,-3.3807,-3.3807,-3.3807,-3.3807,-3.3807,-3.3807,-3.3807,-3.3807,-3.3807,-3.3766,-3.3726,-3.3657,-3.3637,-3.3745,-3.4207,-3.5214,-3.5996,-3.6578,-3.7466,-3.8172,-3.8209,-3.8209,-3.8209,-3.8209,-3.8209,-3.8209,-3.8209,-3.8209,-3.8209,-3.8209,-3.8209,-3.8209,-3.8209,-3.8209,-3.8209,-3.8209,-3.8209,-3.8209,-3.8209,-3.8209,-3.8028,-3.7792,-3.7484,-3.7104,-3.6653,-3.6345,-3.5928,-3.5222,-3.4588,-3.4135,-3.4172,-3.4027,-3.3864,-3.3719,-3.3701,-3.352,-3.3393,-3.3393,-3.3393,-3.3393,-3.3393,-3.3393,-3.3393,-3.3393,-3.3393,-3.3393,-3.3393,-3.3393,-4.0466,-4.0424,-4.0362,-4.0308,-4.032,-4.031,-4.0301,-4.0273,-4.0087,-3.9946,-3.9829,-3.9389,-3.9058,-3.8772,-3.839,-3.8138,-3.8175,-3.7492,-3.729,-3.7074,-3.6431,-3.6083,-3.6248,-3.5862,-3.5532,-3.5298,-3.4857,-3.4766,-3.4491,-3.4082,-3.3862,-3.3807,-3.3807,-3.3807,-3.3807,-3.3807,-3.3807,-3.3807,-3.3807,-3.3807,-3.3807,-3.3807,-3.3807,-3.3807,-3.3807,-3.3807,-3.3807,-3.3807,-3.3807,-3.3807,-3.3807,-3.3807,-3.3807,-3.3807,-3.3807,-3.3807,-3.3807,-3.3766,-3.3712,-3.3675,-3.3915,-3.4527,-3.5387,-3.6173,-3.692,-3.7593,-3.8209,-3.8209,-3.8209,-3.8209,-3.8209,-3.8209,-3.8209,-3.8209,-3.8209,-3.8209,-3.8209,-3.8209,-3.8209,-3.8209,-3.8209,-3.8209,-3.8209,-3.8209,-3.8209,-3.8209,-3.8209,-3.8118,-3.7883,-3.772,-3.7339,-3.6798,-3.6453,-3.6309,-3.5838,-3.5351,-3.508,-3.515,-3.4806,-3.4498,-3.428,-3.4099,-3.3828,-3.352,-3.3393,-3.3393,-3.3393,-3.3393,-3.3393,-3.3393,-3.3393,-3.3393,-3.3393,-3.3393,-3.3393,-4.0495,-4.0466,-4.0396,-4.0353,-4.0308,-4.032,-4.032,-4.032,-4.0263,-4.0108,-3.9895,-3.9505,-3.8876,-3.8029,-3.7086,-3.6717,-3.6615,-3.6541,-3.6413,-3.6285,-3.5587,-3.5495,-3.5862,-3.4651,-3.4743,-3.4656,-3.427,-3.399,-3.4027,-3.3899,-3.3807,-3.3807,-3.3807,-3.3807,-3.3807,-3.3807,-3.3807,-3.3807,-3.3807,-3.3807,-3.3807,-3.3807,-3.3807,-3.3807,-3.3807,-3.3807,-3.3807,-3.3807,-3.3807,-3.3807,-3.3807,-3.3807,-3.3807,-3.3807,-3.3807,-3.3807,-3.3807,-3.378,-3.3712,-3.3689,-3.3966,-3.4666,-3.5408,-3.6159,-3.7031,-3.7738,-3.8209,-3.8209,-3.8209,-3.8209,-3.8209,-3.8209,-3.8209,-3.8209,-3.8209,-3.8209,-3.8209,-3.8209,-3.8209,-3.8209,-3.8209,-3.8209,-3.8209,-3.8209,-3.8209,-3.8209,-3.8191,-3.81,-3.8009,-3.7865,-3.781,-3.7341,-3.7069,-3.6906,-3.6635,-3.6146,-3.6055,-3.6109,-3.5532,-3.508,-3.4806,-3.4516,-3.3991,-3.3719,-3.3538,-3.3393,-3.3393,-3.3393,-3.3393,-3.3393,-3.3393,-3.3393,-3.3393,-3.3393,-3.3411,-4.0476,-4.0441,-4.0396,-4.0363,-4.0319,-4.031,-4.032,-4.032,-4.032,-4.0244,-3.9973,-3.9288,-3.8307,-3.7264,-3.6619,-3.6459,-3.6217,-3.5771,-3.5555,-3.5422,-3.4821,-3.4559,-3.4614,-3.4192,-3.41,-3.4156,-3.4027,-3.3899,-3.3807,-3.3807,-3.3807,-3.3807,-3.3807,-3.3807,-3.3807,-3.3807,-3.3807,-3.3807,-3.3807,-3.3807,-3.3807,-3.3807,-3.3807,-3.3807,-3.3807,-3.3807,-3.3807,-3.3807,-3.3807,-3.3807,-3.3807,-3.3807,-3.3807,-3.3807,-3.3807,-3.3807,-3.3807,-3.3793,-3.3766,-3.3726,-3.4128,-3.4768,-3.5536,-3.6438,-3.739,-3.7955,-3.8209,-3.8209,-3.8209,-3.8172,-3.8138,-3.8209,-3.8209,-3.8209,-3.8154,-3.8209,-3.8209,-3.8209,-3.8209,-3.8209,-3.8209,-3.8209,-3.8209,-3.8209,-3.8209,-3.8209,-3.8209,-3.8172,-3.8136,-3.81,-3.8082,-3.8064,-3.783,-3.7685,-3.7412,-3.7049,-3.7033,-3.6906,-3.6073,-3.5639,-3.5313,-3.4932,-3.4407,-3.3864,-3.352,-3.3411,-3.3393,-3.3393,-3.3393,-3.3393,-3.3393,-3.3447,-3.3502,-3.3447,-3.3502,-4.0468,-4.0424,-4.0407,-4.0373,-4.031,-4.032,-4.032,-4.032,-4.032,-4.0301,-3.9929,-3.8914,-3.7683,-3.6696,-3.6203,-3.5726,-3.5676,-3.5028,-3.4766,-3.4454,-3.4174,-3.3917,-3.3972,-3.3825,-3.3807,-3.3807,-3.3862,-3.3807,-3.3807,-3.3807,-3.3807,-3.3807,-3.3807,-3.3807,-3.3807,-3.3807,-3.3807,-3.3807,-3.3807,-3.3807,-3.3807,-3.3807,-3.3807,-3.3807,-3.3807,-3.3807,-3.3807,-3.3807,-3.3807,-3.3807,-3.3807,-3.3807,-3.3807,-3.3807,-3.3807,-3.3807,-3.3807,-3.3807,-3.3793,-3.384,-3.4193,-3.4891,-3.5845,-3.6853,-3.7896,-3.8225,-3.8028,-3.7865,-3.7828,-3.7756,-3.7685,-3.7667,-3.781,-3.7883,-3.8028,-3.8136,-3.8209,-3.8209,-3.8209,-3.8209,-3.8209,-3.8209,-3.8209,-3.8209,-3.8209,-3.8209,-3.8209,-3.8209,-3.8209,-3.8209,-3.8209,-3.8209,-3.8154,-3.8028,-3.7901,-3.7756,-3.7846,-3.7683,-3.6834,-3.629,-3.6019,-3.5439,-3.4808,-3.4262,-3.3755,-3.352,-3.3538,-3.3465,-3.3393,-3.3393,-3.3429,-3.3592,-3.3628,-3.3628,-3.3556,-4.0503,-4.0493,-4.0424,-4.0373,-4.0301,-4.032,-4.032,-4.032,-4.032,-4.0225,-3.9805,-3.8422,-3.7373,-3.658,-3.5371,-3.4642,-3.4427,-3.4037,-3.4031,-3.3985,-3.3807,-3.3807,-3.3807,-3.3807,-3.3807,-3.3807,-3.3807,-3.3807,-3.3807,-3.3807,-3.3807,-3.3807,-3.3807,-3.3807,-3.3807,-3.3807,-3.3807,-3.3807,-3.3807,-3.3807,-3.3807,-3.3807,-3.3807,-3.3807,-3.3807,-3.3807,-3.3807,-3.3807,-3.3807,-3.3807,-3.3793,-3.3793,-3.3793,-3.378,-3.378,-3.3766,-3.3766,-3.3766,-3.3766,-3.3808,-3.4151,-3.5027,-3.6049,-3.703,-3.7711,-3.8079,-3.7828,-3.7176,-3.7104,-3.6814,-3.6598,-3.658,-3.7212,-3.7484,-3.7792,-3.8154,-3.8209,-3.8209,-3.8209,-3.8209,-3.8209,-3.8209,-3.8209,-3.8209,-3.8209,-3.8209,-3.8209,-3.8209,-3.8209,-3.8209,-3.8209,-3.8209,-3.8209,-3.8172,-3.8191,-3.8136,-3.8064,-3.8046,-3.7594,-3.7142,-3.6832,-3.6146,-3.5457,-3.4932,-3.448,-3.4081,-3.3773,-3.3973,-3.3973,-3.3556,-3.3538,-3.4009,-3.428,-3.4371,-3.4045,-4.0492,-4.0502,-4.0485,-4.0398,-4.0309,-4.032,-4.032,-4.032,-4.0301,-3.9632,-3.8716,-3.786,-3.6872,-3.5794,-3.5181,-3.4446,-3.4221,-3.413,-3.3965,-3.3847,-3.3807,-3.3807,-3.3807,-3.3807,-3.3807,-3.3807,-3.3807,-3.3807,-3.3807,-3.3807,-3.3807,-3.3807,-3.3807,-3.3807,-3.3807,-3.3807,-3.3807,-3.3807,-3.3807,-3.3807,-3.3807,-3.3807,-3.3807,-3.3807,-3.3807,-3.3807,-3.3807,-3.3807,-3.3807,-3.3793,-3.3766,-3.3734,-3.3739,-3.3726,-3.3698,-3.3698,-3.3698,-3.3684,-3.373,-3.3748,-3.4106,-3.4873,-3.5838,-3.6601,-3.698,-3.686,-3.6667,-3.6343,-3.6272,-3.6001,-3.6037,-3.649,-3.7085,-3.7212,-3.7557,-3.8046,-3.8209,-3.8209,-3.8209,-3.8209,-3.8209,-3.8209,-3.8209,-3.8209,-3.8209,-3.8209,-3.8209,-3.8209,-3.8209,-3.8209,-3.8209,-3.8209,-3.8209,-3.8209,-3.8209,-3.8209,-3.8209,-3.8209,-3.8209,-3.7792,-3.7321,-3.6977,-3.6306,-3.5747,-3.5258,-3.4896,-3.4715,-3.4754,-3.4555,-3.4135,-3.4335,-3.4808,-3.4989,-3.5062,-3.4751,-4.0492,-4.0507,-4.0491,-4.0441,-4.0344,-4.0309,-4.031,-4.032,-4.031,-3.9508,-3.8075,-3.7808,-3.6868,-3.5646,-3.4965,-3.4682,-3.4367,-3.4221,-3.4023,-3.39,-3.3807,-3.3807,-3.3807,-3.3807,-3.3807,-3.3807,-3.3807,-3.3807,-3.3807,-3.3807,-3.3807,-3.3807,-3.3807,-3.3807,-3.3807,-3.3807,-3.3807,-3.3807,-3.3807,-3.3807,-3.3807,-3.3807,-3.3807,-3.3807,-3.3807,-3.3807,-3.3807,-3.3807,-3.3807,-3.3793,-3.378,-3.3721,-3.3712,-3.3671,-3.3643,-3.3629,-3.3633,-3.3587,-3.3661,-3.3744,-3.4092,-3.4826,-3.5239,-3.5709,-3.5848,-3.5859,-3.5926,-3.5476,-3.5439,-3.5491,-3.553,-3.6053,-3.6739,-3.6993,-3.7738,-3.8209,-3.8209,-3.8209,-3.8209,-3.8209,-3.8209,-3.8209,-3.8209,-3.8209,-3.8209,-3.8209,-3.8209,-3.8209,-3.8209,-3.8209,-3.8209,-3.8209,-3.8209,-3.8209,-3.8209,-3.8209,-3.8209,-3.8209,-3.8172,-3.8009,-3.7647,-3.7321,-3.6995,-3.6451,-3.6001,-3.5711,-3.5695,-3.5838,-3.5349,-3.47,-3.5204,-3.5856,-3.5566,-3.5602,-3.5566,-4.0496,-4.0489,-4.0507,-4.0458,-4.0388,-4.0325,-4.0307,-4.0308,-4.0291,-3.9775,-3.8782,-3.8094,-3.7234,-3.6249,-3.5352,-3.4782,-3.4475,-3.4298,-3.4086,-3.3855,-3.3807,-3.3807,-3.3807,-3.3807,-3.3807,-3.3807,-3.3807,-3.3807,-3.3807,-3.3807,-3.3807,-3.3807,-3.3807,-3.3807,-3.3807,-3.3807,-3.3807,-3.3807,-3.3807,-3.3807,-3.3807,-3.3807,-3.3807,-3.3807,-3.3807,-3.3807,-3.3807,-3.3807,-3.3807,-3.3807,-3.378,-3.3766,-3.3766,-3.3684,-3.3684,-3.3739,-3.3647,-3.3633,-3.3689,-3.3647,-3.3984,-3.4509,-3.4772,-3.4954,-3.5545,-3.5628,-3.5294,-3.4679,-3.4782,-3.4779,-3.4996,-3.5522,-3.634,-3.6993,-3.7738,-3.8209,-3.8209,-3.8209,-3.8209,-3.8209,-3.8209,-3.8209,-3.8209,-3.8209,-3.8209,-3.8209,-3.8209,-3.8209,-3.8209,-3.8209,-3.8209,-3.8209,-3.8209,-3.8209,-3.8209,-3.8209,-3.8209,-3.8209,-3.8172,-3.8046,-3.7883,-3.7611,-3.7285,-3.6995,-3.685,-3.6635,-3.6779,-3.6961,-3.6363,-3.591,-3.6417,-3.6798,-3.6435,-3.6218,-3.629,-4.0586,-4.0496,-4.05,-4.0503,-4.0452,-4.0396,-4.0334,-4.0317,-4.0252,-3.9804,-3.8935,-3.8075,-3.7254,-3.6398,-3.5555,-3.487,-3.4529,-3.4453,-3.4213,-3.3847,-3.3807,-3.3807,-3.3807,-3.3807,-3.3807,-3.3807,-3.3807,-3.3807,-3.3807,-3.3807,-3.3807,-3.3807,-3.3807,-3.3807,-3.3807,-3.3807,-3.3807,-3.3807,-3.3807,-3.3807,-3.3807,-3.3807,-3.3807,-3.3807,-3.3807,-3.3807,-3.3807,-3.3807,-3.3807,-3.3807,-3.378,-3.3753,-3.3726,-3.3675,-3.3615,-3.3643,-3.3577,-3.3534,-3.3549,-3.3538,-3.3611,-3.3894,-3.4073,-3.4157,-3.4309,-3.4294,-3.4068,-3.4114,-3.4419,-3.4528,-3.4769,-3.5962,-3.6812,-3.7049,-3.7629,-3.8064,-3.8209,-3.8209,-3.8209,-3.8209,-3.8209,-3.8209,-3.8209,-3.8209,-3.8209,-3.8209,-3.8209,-3.8209,-3.8209,-3.8209,-3.8209,-3.8209,-3.8209,-3.8209,-3.8209,-3.8209,-3.8209,-3.8209,-3.8209,-3.8172,-3.7991,-3.7828,-3.781,-3.7629,-3.7611,-3.7611,-3.7448,-3.7286,-3.7305,-3.7303,-3.7484,-3.7412,-3.6977,-3.7013,-3.7303,-4.0642,-4.0559,-4.0519,-4.0496,-4.05,-4.0447,-4.0388,-4.0344,-4.028,-3.966,-3.8609,-3.7912,-3.7043,-3.611,-3.5403,-3.4898,-3.4489,-3.4398,-3.4213,-3.3847,-3.3807,-3.3807,-3.3807,-3.3807,-3.3807,-3.3807,-3.3807,-3.3807,-3.3807,-3.3807,-3.3807,-3.3807,-3.3807,-3.3807,-3.3807,-3.3807,-3.3807,-3.3807,-3.3807,-3.3807,-3.3807,-3.3807,-3.3807,-3.3807,-3.3807,-3.3807,-3.3807,-3.3807,-3.3807,-3.3793,-3.3766,-3.3739,-3.3716,-3.3661,-3.3601,-3.3615,-3.3619,-3.3577,-3.3534,-3.3477,-3.3528,-3.3621,-3.3549,-3.3506,-3.3481,-3.3615,-3.3582,-3.3716,-3.4187,-3.4679,-3.5168,-3.6451,-3.7047,-3.7301,-3.7701,-3.8154,-3.8209,-3.8209,-3.8209,-3.8209,-3.8209,-3.8209,-3.8209,-3.8209,-3.8209,-3.8209,-3.8209,-3.8209,-3.8209,-3.8209,-3.8209,-3.8209,-3.8209,-3.8209,-3.8209,-3.8209,-3.8209,-3.8209,-3.8209,-3.8209,-3.8191,-3.8046,-3.8154,-3.8209,-3.8028,-3.7846,-3.7647,-3.7557,-3.7665,-3.781,-3.7973,-3.7792,-3.7466,-3.7611,-3.7883,-4.0706,-4.0694,-4.0564,-4.0504,-4.0489,-4.0507,-4.0458,-4.0388,-4.0248,-3.935,-3.7915,-3.7776,-3.6842,-3.5539,-3.5085,-3.4783,-3.4529,-3.4325,-3.408,-3.39,-3.3807,-3.3807,-3.3807,-3.3807,-3.3807,-3.3807,-3.3807,-3.3807,-3.3807,-3.3807,-3.3807,-3.3807,-3.3807,-3.3807,-3.3807,-3.3807,-3.3807,-3.3807,-3.3807,-3.3807,-3.3807,-3.3807,-3.3807,-3.3807,-3.3807,-3.3807,-3.3807,-3.3807,-3.3807,-3.3807,-3.3807,-3.3807,-3.378,-3.3726,-3.3734,-3.3734,-3.373,-3.3661,-3.3605,-3.3534,-3.3506,-3.352,-3.3466,-3.3441,-3.3426,-3.3404,-3.3408,-3.3643,-3.4147,-3.4948,-3.5729,-3.654,-3.7334,-3.768,-3.8046,-3.8209,-3.8209,-3.8209,-3.8209,-3.8209,-3.8209,-3.8209,-3.8209,-3.8209,-3.8209,-3.8209,-3.8209,-3.8209,-3.8209,-3.8209,-3.8209,-3.8209,-3.8209,-3.8209,-3.8209,-3.8209,-3.8209,-3.8209,-3.8209,-3.8209,-3.8209,-3.8209,-3.8209,-3.8209,-3.8209,-3.81,-3.7901,-3.7937,-3.8082,-3.8209,-3.8209,-3.8154,-3.781,-3.7901,-3.8118,-4.0849,-4.0694,-4.0655,-4.0581,-4.0504,-4.05,-4.0487,-4.0381,-3.9783,-3.9076,-3.8665,-3.7387,-3.6531,-3.6091,-3.5435,-3.4908,-3.4614,-3.4386,-3.4154,-3.3972,-3.382,-3.382,-3.3807,-3.3807,-3.3807,-3.3807,-3.3807,-3.3807,-3.3807,-3.3807,-3.3807,-3.3807,-3.3807,-3.3807,-3.3807,-3.3807,-3.3807,-3.3807,-3.3807,-3.3807,-3.3807,-3.3807,-3.3807,-3.3807,-3.3807,-3.3807,-3.3807,-3.3807,-3.3807,-3.3807,-3.3807,-3.3807,-3.3807,-3.3739,-3.3712,-3.3726,-3.3698,-3.3684,-3.3657,-3.3619,-3.3563,-3.3549,-3.3506,-3.3452,-3.3422,-3.3408,-3.3408,-3.3661,-3.4166,-3.4963,-3.5763,-3.6558,-3.7354,-3.7899,-3.8191,-3.8209,-3.8209,-3.8209,-3.8209,-3.8209,-3.8209,-3.8209,-3.8209,-3.8209,-3.8209,-3.8209,-3.8209,-3.8209,-3.8209,-3.8209,-3.8209,-3.8209,-3.8209,-3.8209,-3.8209,-3.8209,-3.8209,-3.8209,-3.8209,-3.8209,-3.8209,-3.8209,-3.8209,-3.8209,-3.8209,-3.8209,-3.8172,-3.8209,-3.8209,-3.8209,-3.8209,-3.8209,-3.8209,-3.8209,-3.8209,-4.0902,-4.0751,-4.0718,-4.0448,-4.0069,-4.0015,-3.9858,-3.9507,-3.9229,-3.8994,-3.8479,-3.7154,-3.6318,-3.5856,-3.5325,-3.4908,-3.4674,-3.4416,-3.4203,-3.4061,-3.386,-3.382,-3.3807,-3.3807,-3.3807,-3.3807,-3.3807,-3.3807,-3.3807,-3.3807,-3.3807,-3.3807,-3.3807,-3.3807,-3.3807,-3.3807,-3.3807,-3.3807,-3.3807,-3.3807,-3.3807,-3.3807,-3.3807,-3.3807,-3.3807,-3.3807,-3.3807,-3.3807,-3.3807,-3.3807,-3.3807,-3.3807,-3.3807,-3.3766,-3.3739,-3.3753,-3.3753,-3.3739,-3.3726,-3.3689,-3.3661,-3.3615,-3.3559,-3.3534,-3.3495,-3.3481,-3.3437,-3.3553,-3.4256,-3.4963,-3.5763,-3.6544,-3.7321,-3.8082,-3.8154,-3.8209,-3.8209,-3.8209,-3.8209,-3.8209,-3.8209,-3.8209,-3.8209,-3.8209,-3.8209,-3.8209,-3.8209,-3.8209,-3.8209,-3.8209,-3.8209,-3.8209,-3.8209,-3.8209,-3.8209,-3.8209,-3.8209,-3.8209,-3.8209,-3.8209,-3.8209,-3.8209,-3.8209,-3.8209,-3.8209,-3.8209,-3.8209,-3.8209,-3.8209,-3.8209,-3.8209,-3.8209,-3.8209,-3.8209,-3.8209,-4.094,-4.081,-4.0657,-4.0017,-3.9253,-3.9188,-3.8777,-3.8096,-3.8635,-3.8538,-3.7701,-3.681,-3.5927,-3.5439,-3.51,-3.4982,-3.4763,-3.4545,-3.4333,-3.4209,-3.3998,-3.39,-3.382,-3.3807,-3.3807,-3.3807,-3.3807,-3.3807,-3.3807,-3.3807,-3.3807,-3.3807,-3.3807,-3.3807,-3.3807,-3.3807,-3.3807,-3.3807,-3.3807,-3.3807,-3.3807,-3.3807,-3.3807,-3.3807,-3.3807,-3.3807,-3.3807,-3.3807,-3.3807,-3.3807,-3.3807,-3.3807,-3.3807,-3.3793,-3.3793,-3.3793,-3.3793,-3.3793,-3.378,-3.3739,-3.3716,-3.3671,-3.3629,-3.3577,-3.352,-3.3538,-3.3495,-3.3502,-3.4098,-3.4867,-3.5667,-3.6252,-3.6942,-3.7757,-3.8191,-3.8209,-3.8209,-3.8209,-3.8209,-3.8209,-3.8209,-3.8209,-3.8209,-3.8209,-3.8209,-3.8209,-3.8209,-3.8209,-3.8209,-3.8209,-3.8209,-3.8209,-3.8209,-3.8209,-3.8209,-3.8209,-3.8209,-3.8209,-3.8209,-3.8209,-3.8209,-3.8209,-3.8209,-3.8209,-3.8209,-3.8209,-3.8209,-3.8209,-3.8209,-3.8209,-3.8209,-3.8209,-3.8209,-3.8209,-3.8209,-4.1028,-4.0878,-4.007,-3.9174,-3.8368,-3.8315,-3.82,-3.7942,-3.7463,-3.721,-3.6849,-3.6059,-3.5514,-3.5283,-3.5149,-3.5054,-3.487,-3.4723,-3.4513,-3.4309,-3.4105,-3.3972,-3.3829,-3.3802,-3.382,-3.3807,-3.3807,-3.3807,-3.3807,-3.3807,-3.3807,-3.3807,-3.3807,-3.3807,-3.3807,-3.3807,-3.3807,-3.3807,-3.3807,-3.3807,-3.3807,-3.3807,-3.3807,-3.3807,-3.3807,-3.3807,-3.3807,-3.3807,-3.3807,-3.3807,-3.3807,-3.3807,-3.3807,-3.3807,-3.3807,-3.3807,-3.3807,-3.3807,-3.3793,-3.3748,-3.3739,-3.3703,-3.3629,-3.3577,-3.3549,-3.3563,-3.3581,-3.3607,-3.3924,-3.473,-3.5501,-3.6032,-3.6635,-3.7468,-3.8209,-3.8209,-3.8209,-3.8209,-3.8209,-3.8209,-3.8209,-3.8209,-3.8209,-3.8209,-3.8209,-3.8209,-3.8209,-3.8209,-3.8209,-3.8209,-3.8209,-3.8209,-3.8209,-3.8209,-3.8209,-3.8209,-3.8209,-3.8209,-3.8209,-3.8209,-3.8209,-3.8209,-3.8209,-3.8209,-3.8209,-3.8209,-3.8209,-3.8209,-3.8209,-3.8209,-3.8209,-3.8209,-3.8209,-3.8209,-3.8209,-4.0478,-4.0296,-3.9286,-3.8292,-3.7522,-3.743,-3.7212,-3.6786,-3.6308,-3.6086,-3.6044,-3.5538,-3.5285,-3.5261,-3.5209,-3.5149,-3.5,-3.4936,-3.4772,-3.4545,-3.4274,-3.4124,-3.3998,-3.3855,-3.382,-3.3807,-3.3807,-3.3807,-3.3807,-3.3807,-3.3807,-3.3807,-3.3807,-3.3807,-3.3807,-3.3807,-3.3807,-3.3807,-3.382,-3.382,-3.382,-3.3807,-3.3807,-3.3807,-3.3807,-3.3807,-3.3807,-3.3807,-3.3807,-3.3807,-3.3807,-3.3807,-3.3807,-3.3807,-3.3807,-3.3807,-3.3807,-3.3775,-3.3762,-3.3753,-3.3744,-3.3675,-3.3647,-3.3577,-3.3577,-3.3577,-3.352,-3.3542,-3.356,-3.424,-3.5323,-3.6001,-3.6852,-3.7685,-3.8065,-3.8209,-3.8209,-3.8209,-3.8209,-3.8209,-3.8209,-3.8209,-3.8209,-3.8209,-3.8209,-3.8209,-3.8209,-3.8209,-3.8209,-3.8209,-3.8209,-3.8209,-3.8209,-3.8209,-3.8209,-3.8209,-3.8209,-3.8209,-3.8209,-3.8209,-3.8209,-3.8209,-3.8209,-3.8209,-3.8209,-3.8209,-3.8209,-3.8209,-3.8209,-3.8209,-3.8209,-3.8209,-3.8209,-3.8209,-3.8209,-3.964,-3.926,-3.836,-3.7423,-3.6612,-3.6546,-3.6171,-3.552,-3.535,-3.535,-3.5396,-3.5323,-3.5261,-3.5218,-3.5182,-3.5182,-3.5149,-3.5046,-3.4926,-3.4753,-3.4472,-3.4298,-3.4136,-3.3967,-3.3895,-3.3834,-3.3807,-3.3807,-3.3807,-3.3807,-3.3807,-3.3807,-3.3807,-3.3807,-3.3807,-3.3807,-3.3807,-3.3834,-3.3829,-3.3847,-3.3834,-3.3807,-3.3807,-3.3807,-3.3807,-3.3807,-3.3807,-3.3807,-3.3807,-3.3793,-3.3793,-3.378,-3.378,-3.378,-3.378,-3.378,-3.378,-3.3766,-3.3739,-3.3698,-3.3675,-3.3619,-3.3605,-3.3591,-3.3577,-3.3549,-3.3477,-3.3513,-3.3531,-3.4152,-3.5235,-3.6164,-3.7033,-3.7757,-3.8011,-3.8209,-3.8209,-3.8209,-3.8209,-3.8209,-3.8209,-3.8209,-3.8172,-3.8191,-3.8191,-3.8191,-3.8191,-3.8209,-3.8209,-3.8209,-3.8209,-3.8209,-3.8209,-3.8209,-3.8209,-3.8209,-3.8209,-3.8209,-3.8209,-3.8209,-3.8209,-3.8209,-3.8209,-3.8209,-3.8209,-3.8209,-3.8209,-3.8209,-3.8209,-3.8209,-3.8209,-3.8209,-3.8209,-3.8209,-3.8209,-3.892,-3.7556,-3.7296,-3.6668,-3.5896,-3.5765,-3.5575,-3.5405,-3.5323,-3.5304,-3.5285,-3.5253,-3.5209,-3.5182,-3.5182,-3.5182,-3.5174,-3.5115,-3.5028,-3.4841,-3.4733,-3.4513,-3.4286,-3.413,-3.3979,-3.3881,-3.3807,-3.3807,-3.3807,-3.3807,-3.3807,-3.3807,-3.3807,-3.3807,-3.3807,-3.3807,-3.382,-3.3868,-3.3985,-3.4023,-3.3868,-3.386,-3.3807,-3.3807,-3.3807,-3.3807,-3.3807,-3.3807,-3.3807,-3.3793,-3.3748,-3.3739,-3.3739,-3.3753,-3.3753,-3.3753,-3.3753,-3.3753,-3.3726,-3.3671,-3.3633,-3.3591,-3.3563,-3.3491,-3.3495,-3.3466,-3.3491,-3.36,-3.3869,-3.4715,-3.5685,-3.6415,-3.723,-3.781,-3.8209,-3.8209,-3.8209,-3.8209,-3.8209,-3.8209,-3.8209,-3.8154,-3.8046,-3.8046,-3.8046,-3.8046,-3.8028,-3.8046,-3.8209,-3.8209,-3.8209,-3.8209,-3.8209,-3.8209,-3.8209,-3.8209,-3.8209,-3.8209,-3.8209,-3.8209,-3.8209,-3.8209,-3.8209,-3.8209,-3.8209,-3.8209,-3.8209,-3.8209,-3.8209,-3.8209,-3.8209,-3.8209,-3.8209,-3.8209,-3.8209]},{"header":{"parameterUnit":"m.s-1","parameterCategory":1,"la1":31.0,"la2":29.5877,"lo1":-88.7671,"lo2":-86.6584,"dy":0.0162,"dx":0.0185,"nx":115,"ny":88,"refTime":"2026-04-22T00:00:00:Z","depth":0,"parameterNumber":3,"parameterNumberName":"V-component_of_WINDS"},"data":[0.0,0.0,0.0,0.0,0.0,0.0,0.0,0.0,0.0,0.0,0.0,0.0,0.0,0.0,0.0,0.0,0.0,0.0,0.0,0.0,0.0,0.0,0.0,0.0,0.0,0.0,0.0,0.0,0.0,0.0,0.0,0.0,0.0,0.0,0.0,0.0,0.0,0.0,0.0,0.0,0.0,0.0,0.0,0.0,0.0,0.0,0.0,0.0,0.0,0.0,0.0,0.0,0.0,0.0,0.0,0.0,0.0,0.0,0.0,0.0,0.0,0.0,0.0,0.0,0.0,0.0,0.0,0.0,0.0,0.0,0.0,0.0,0.0,0.0,0.0,0.0,0.0,0.0,0.0,0.0,0.0,0.0,0.0,0.0,0.0,0.0,0.0,0.0,0.0,0.0,0.0,0.0,0.0,0.0,0.0,0.0,0.0,0.0,0.0,0.0,0.0,0.0,0.0,0.0,0.0,0.0,0.0,0.0,0.0,0.0,0.0,0.0,0.0,0.0,0.0,0.0,0.0,0.0,0.0,0.0,0.0,0.0,0.0,0.0,0.0,0.0,0.0,0.0,0.0,0.0,0.0,0.0,0.0,0.0,0.0,0.0,0.0,0.0,0.0,0.0,0.0,0.0,0.0,0.0,0.0,0.0,0.0,0.0,0.0,0.0,0.0,0.0,0.0,0.0,0.0,0.0,0.0,0.0,0.0,0.0,0.0,0.0,0.0,0.0,0.0,0.0,0.0,0.0,0.0,0.0,0.0,0.0,0.0,0.0,0.0,0.0,0.0,0.0,0.0,0.0,0.0,0.0,0.0,0.0,0.0,0.0,0.0,0.0,0.0,0.0,0.0,0.0,0.0,0.0,0.0,0.0,0.0,0.0,0.0,0.0,0.0,0.0,0.0,0.0,0.0,0.0,0.0,0.0,0.0,0.0,0.0,0.0,0.0,0.0,0.0,0.0,0.0,0.0,0.0,0.0,0.0,0.0,0.0,0.0,0.0,0.0,0.0,0.0,0.0,0.0,0.0,0.0,0.0,0.0,0.0,0.0,0.0,0.0,0.0,0.0,0.0,0.0,0.0,0.0,0.0,0.0,0.0,0.0,0.0,0.0,0.0,0.0,0.0,0.0,0.0,0.0,0.0,0.0,0.0,0.0,0.0,0.0,0.0,0.0,0.0,0.0,0.0,0.0,0.0,0.0,0.0,0.0,0.0,0.0,0.0,0.0,0.0,0.0,0.0,0.0,0.0,0.0,0.0,0.0,0.0,0.0,0.0,0.0,0.0,0.0,0.0,0.0,0.0,0.0,0.0,0.0,0.0,0.0,0.0,0.0,0.0,0.0,0.0,0.0,0.0,0.0,0.0,0.0,0.0,0.0,0.0,0.0,0.0,0.0,0.0,0.0,0.0,0.0,0.0,0.0,0.0,0.0,0.0,0.0,0.0,0.0,0.0,0.0,0.0,0.0,0.0,0.0,0.0,0.0,0.0,0.0,0.0,0.0,0.0,0.0,0.0,0.0,0.0,0.0,0.0,0.0,0.0,0.0,0.0,0.0,0.0,0.0,0.0,0.0,0.0,0.0,0.0,0.0,0.0,0.0,0.0,0.0,0.0,0.0,0.0,0.0,0.0,0.0,0.0,0.0,0.0,0.0,0.0,0.0,0.0,0.0,0.0,0.0,0.0,0.0,0.0,0.0,0.0,0.0,0.0,0.0,0.0,0.0,0.0,0.0,0.0,0.0,0.0,0.0,0.0,0.0,0.0,0.0,0.0,0.0,0.0,0.0,0.0,0.0,0.0,0.0,0.0,0.0,0.0,0.0,0.0,0.0,0.0,0.0,0.0,0.0,0.0,0.0,0.0,0.0,0.0,0.0,0.0,0.0,0.0,0.0,0.0,0.0,0.0,0.0,0.0,0.0,0.0,0.0,0.0,0.0,0.0,0.0,0.0,0.0,0.0,0.0,0.0,0.0,0.0,0.0,0.0,0.0,0.0,0.0,0.0,0.0,0.0,0.0,0.0,0.0,0.0,0.0,0.0,0.0,0.0,0.0,0.0,0.0,0.0,0.0,0.0,0.0,0.0,0.0,0.0,0.0,0.0,0.0,0.0,0.0,0.0,0.0,0.0,0.0,0.0,0.0,0.0,0.0,0.0,0.0,0.0,0.0,0.0,0.0,0.0,0.0,0.0,0.0,0.0,0.0,0.0,0.0,0.0,0.0,0.0,0.0,0.0,0.0,0.0,0.0,0.0,0.0,0.0,0.0,0.0,0.0,0.0,0.0,0.0,0.0,0.0,0.0,0.0,0.0,0.0,0.0,0.0,0.0,0.0,0.0,0.0,0.0,0.0,0.0,0.0,0.0,0.0,0.0,0.0,0.0,0.0,0.0,0.0,0.0,0.0,0.0,0.0,0.0,0.0,0.0,0.0,0.0,0.0,0.0,0.0,0.0,0.0,0.0,0.0,0.0,0.0,0.0,0.0,0.0,0.0,0.0,0.0,0.0,0.0,0.0,0.0,0.0,0.0,0.0,0.0,0.0,0.0,0.0,0.0,0.0,0.0,0.0,0.0,0.0,0.0,0.0,0.0,0.0,0.0,0.0,0.0,0.0,0.0,0.0,0.0,0.0,0.0,0.0,0.0,0.0,0.0,0.0,0.0,0.0,0.0,0.0,0.0,0.0,0.0,0.0,0.0,0.0,0.0,0.0,0.0,0.0,0.0,0.0,0.0,0.0,0.0,0.0,0.0,0.0,0.0,0.0,0.0,0.0,0.0,0.0,0.0,0.0,0.0,0.0,0.0,0.0,0.0,0.0,0.0,0.0,0.0,0.0,0.0,0.0,0.0,0.0,0.0,0.0,0.0,0.0,0.0,0.0,0.0,0.0,0.0,0.0,0.0,0.0,0.0,0.0,0.0,0.0,0.0,0.0,0.0,0.0,0.0,0.0,0.0,0.0,0.0,0.0,0.0,0.0,0.0,0.0,0.0,0.0,0.0,0.0,0.0,0.0,0.0,0.0,0.0,0.0,0.0,0.0,0.0,0.0,0.0,0.0,0.0,0.0,0.0,0.0,0.0,0.0,0.0,0.0,0.0,0.0,0.0,0.0,0.0,0.0,0.0,0.0,0.0,0.0,0.0,0.0,0.0,0.0,0.0,0.0,0.0,0.0,0.0,0.0,0.0,0.0,0.0,0.0,0.0,0.0,0.0,0.0,0.0,0.0,0.0,0.0,0.0,0.0,0.0,0.0,0.0,0.0,0.0,0.0,0.0,0.0,0.0,0.0,0.0,0.0,0.0,0.0,0.0,0.0,0.0,0.0,0.0,0.0,0.0,0.0,0.0,0.0,0.0,0.0,0.0,0.0,0.0,0.0,0.0,0.0,0.0,0.0,0.0,0.0,0.0,0.0,0.0,0.0,0.0,0.0,0.0,0.0,0.0,0.0,0.0,0.0,0.0,0.0,0.0,0.0,0.0,0.0,0.0,0.0,0.0,0.0,0.0,0.0,0.0,0.0,0.0,0.0,0.0,0.0,0.0,0.0,0.0,0.0,0.0,0.0,0.0,0.0,0.0,0.0,0.0,0.0,0.0,0.0,0.0,0.0,0.0,0.0,0.0,0.0,0.0,0.0,0.0,0.0,0.0,0.0,0.0,0.0,0.0,0.0,0.0,0.0,0.0,0.0,0.0,0.0,0.0,0.0,0.0,0.0,0.0,0.0,0.0,0.0,0.0,0.0,0.0,0.0,0.0,0.0,0.0,0.0,0.0,0.0,0.0,0.0,0.0,0.0,0.0,0.0,0.0,0.0,0.0,0.0,0.0,0.0,0.0,0.0,0.0,0.0,0.0,0.0,0.0,0.0,0.0,0.0,0.0,0.0,0.0,0.0,0.0,0.0,0.0,0.0,0.0,0.0,0.0,0.0,0.0,0.0,0.0,0.0,0.0,0.0,0.0,0.0,0.0,0.0,0.0,0.0,0.0,0.0,0.0,0.0,0.0,0.0,0.0,0.0,0.0,0.0,0.0,0.0,0.0,0.0,0.0,0.0,0.0,0.0,0.0,0.0,0.0,0.0,0.0,0.0,0.0,0.0,0.0,0.0,0.0,0.0,0.0,0.0,0.0,0.0,0.0,0.0,0.0,0.0,0.0,0.0,0.0,0.0,0.0,0.0,0.0,0.0,0.0,0.0,0.0,0.0,0.0,0.0,0.0,0.0,0.0,0.0,0.0,0.0,0.0,0.0,0.0,0.0,0.0,0.0,0.0,0.0,0.0,0.0,0.0,0.0,-1.7971,0.0,0.0,0.0,0.0,0.0,0.0,0.0,0.0,0.0,0.0,0.0,0.0,0.0,0.0,0.0,0.0,0.0,0.0,0.0,0.0,0.0,0.0,0.0,0.0,0.0,0.0,0.0,0.0,0.0,0.0,0.0,0.0,0.0,0.0,0.0,0.0,0.0,0.0,0.0,0.0,0.0,0.0,0.0,0.0,0.0,0.0,0.0,0.0,0.0,0.0,0.0,0.0,0.0,0.0,0.0,0.0,0.0,0.0,0.0,0.0,0.0,0.0,0.0,0.0,0.0,0.0,0.0,0.0,0.0,0.0,0.0,0.0,0.0,0.0,0.0,0.0,0.0,0.0,0.0,0.0,0.0,0.0,0.0,0.0,0.0,0.0,0.0,0.0,0.0,0.0,0.0,0.0,0.0,0.0,0.0,0.0,0.0,0.0,0.0,0.0,0.0,0.0,0.0,0.0,0.0,0.0,0.0,0.0,0.0,0.0,-1.7969,-1.8284,-1.7984,-1.7697,-1.75,0.0,0.0,0.0,0.0,0.0,0.0,0.0,0.0,0.0,0.0,0.0,0.0,0.0,0.0,0.0,0.0,0.0,0.0,0.0,0.0,0.0,0.0,0.0,0.0,0.0,0.0,0.0,0.0,0.0,0.0,0.0,0.0,0.0,0.0,0.0,0.0,0.0,0.0,0.0,0.0,0.0,0.0,0.0,0.0,0.0,0.0,0.0,0.0,0.0,0.0,0.0,0.0,0.0,0.0,0.0,0.0,0.0,0.0,0.0,0.0,0.0,0.0,0.0,0.0,0.0,0.0,0.0,0.0,0.0,0.0,0.0,0.0,0.0,0.0,0.0,0.0,0.0,0.0,0.0,0.0,0.0,0.0,0.0,0.0,0.0,0.0,0.0,0.0,0.0,0.0,0.0,0.0,0.0,0.0,0.0,0.0,0.0,0.0,0.0,0.0,0.0,0.0,0.0,0.0,0.0,0.0,0.0,0.0,0.0,0.0,0.0,0.0,-1.8203,-1.7845,-1.75,0.0,0.0,0.0,0.0,0.0,0.0,0.0,0.0,0.0,0.0,0.0,0.0,0.0,0.0,0.0,0.0,0.0,0.0,0.0,0.0,0.0,0.0,0.0,0.0,0.0,0.0,0.0,0.0,0.0,0.0,0.0,0.0,0.0,0.0,0.0,0.0,0.0,0.0,0.0,0.0,0.0,0.0,0.0,0.0,0.0,0.0,0.0,0.0,0.0,0.0,0.0,0.0,0.0,0.0,0.0,0.0,0.0,0.0,0.0,0.0,0.0,0.0,0.0,0.0,0.0,0.0,0.0,0.0,0.0,0.0,0.0,0.0,0.0,0.0,0.0,0.0,0.0,0.0,0.0,0.0,0.0,0.0,0.0,0.0,0.0,0.0,0.0,0.0,0.0,0.0,0.0,0.0,0.0,0.0,0.0,0.0,0.0,0.0,0.0,0.0,0.0,0.0,0.0,0.0,0.0,0.0,0.0,0.0,0.0,0.0,-1.8555,-1.9206,-1.8855,0.0,-1.9165,0.0,0.0,0.0,0.0,0.0,0.0,0.0,0.0,0.0,0.0,0.0,0.0,0.0,0.0,0.0,0.0,0.0,0.0,0.0,0.0,0.0,0.0,0.0,0.0,0.0,0.0,0.0,0.0,0.0,0.0,0.0,0.0,0.0,0.0,0.0,0.0,0.0,0.0,0.0,0.0,0.0,0.0,0.0,0.0,0.0,0.0,0.0,0.0,0.0,0.0,0.0,0.0,0.0,0.0,0.0,0.0,0.0,0.0,0.0,0.0,0.0,0.0,0.0,0.0,0.0,0.0,0.0,0.0,0.0,0.0,0.0,0.0,0.0,0.0,0.0,0.0,0.0,0.0,0.0,0.0,0.0,0.0,0.0,0.0,0.0,0.0,0.0,0.0,0.0,0.0,0.0,0.0,0.0,0.0,0.0,0.0,0.0,0.0,0.0,0.0,0.0,0.0,0.0,0.0,0.0,0.0,0.0,0.0,0.0,0.0,-1.8811,-1.9264,-1.8401,-1.815,0.0,0.0,0.0,0.0,0.0,0.0,0.0,0.0,0.0,0.0,0.0,0.0,0.0,0.0,0.0,0.0,0.0,0.0,0.0,0.0,0.0,0.0,0.0,0.0,0.0,0.0,0.0,0.0,0.0,0.0,0.0,0.0,0.0,0.0,0.0,0.0,0.0,0.0,0.0,0.0,0.0,0.0,0.0,0.0,0.0,0.0,0.0,0.0,0.0,0.0,0.0,0.0,0.0,0.0,0.0,0.0,0.0,0.0,0.0,0.0,0.0,0.0,0.0,0.0,0.0,0.0,0.0,0.0,0.0,0.0,0.0,0.0,0.0,0.0,0.0,0.0,0.0,0.0,0.0,0.0,0.0,0.0,0.0,0.0,0.0,0.0,0.0,0.0,0.0,0.0,0.0,0.0,0.0,0.0,0.0,0.0,0.0,0.0,0.0,0.0,0.0,0.0,0.0,0.0,0.0,0.0,0.0,0.0,0.0,0.0,-1.8621,-1.8906,-1.9089,-1.8214,-1.7876,-1.8168,0.0,0.0,0.0,0.0,0.0,0.0,0.0,0.0,0.0,0.0,0.0,0.0,0.0,0.0,0.0,0.0,0.0,0.0,0.0,0.0,0.0,0.0,0.0,0.0,0.0,0.0,0.0,0.0,0.0,0.0,0.0,0.0,0.0,0.0,0.0,0.0,0.0,0.0,0.0,0.0,0.0,0.0,0.0,0.0,0.0,0.0,0.0,0.0,0.0,0.0,0.0,0.0,0.0,0.0,0.0,0.0,0.0,0.0,0.0,0.0,0.0,0.0,0.0,0.0,0.0,0.0,0.0,0.0,0.0,0.0,0.0,0.0,0.0,0.0,0.0,0.0,0.0,0.0,0.0,0.0,0.0,0.0,0.0,0.0,0.0,0.0,0.0,0.0,0.0,0.0,0.0,0.0,0.0,0.0,0.0,0.0,0.0,0.0,0.0,0.0,0.0,0.0,0.0,0.0,0.0,0.0,0.0,0.0,-1.8299,-1.8621,-1.8796,-1.8825,-1.8854,-1.8602,0.0,0.0,0.0,0.0,0.0,0.0,0.0,0.0,0.0,0.0,0.0,0.0,0.0,0.0,0.0,0.0,0.0,0.0,0.0,0.0,0.0,0.0,0.0,0.0,0.0,0.0,0.0,0.0,0.0,0.0,0.0,0.0,0.0,0.0,0.0,0.0,0.0,0.0,0.0,0.0,0.0,0.0,0.0,0.0,0.0,0.0,0.0,0.0,0.0,0.0,0.0,0.0,0.0,0.0,0.0,0.0,0.0,0.0,0.0,0.0,0.0,0.0,0.0,0.0,0.0,0.0,0.0,0.0,0.0,0.0,0.0,0.0,0.0,0.0,0.0,0.0,0.0,0.0,0.0,0.0,0.0,0.0,0.0,0.0,0.0,0.0,0.0,0.0,0.0,0.0,0.0,0.0,0.0,0.0,0.0,0.0,0.0,0.0,0.0,0.0,0.0,0.0,0.0,0.0,0.0,0.0,0.0,0.0,0.0,-1.8306,-1.8621,-1.8891,-1.906,-1.8169,-1.764,0.0,0.0,0.0,0.0,0.0,0.0,0.0,0.0,0.0,0.0,0.0,0.0,0.0,0.0,0.0,0.0,0.0,0.0,0.0,0.0,0.0,0.0,0.0,0.0,0.0,0.0,0.0,0.0,0.0,0.0,0.0,0.0,0.0,0.0,0.0,0.0,0.0,0.0,0.0,0.0,0.0,0.0,0.0,0.0,0.0,0.0,0.0,0.0,0.0,0.0,0.0,0.0,0.0,0.0,0.0,0.0,0.0,0.0,0.0,0.0,0.0,0.0,0.0,0.0,0.0,0.0,0.0,0.0,0.0,0.0,0.0,0.0,0.0,0.0,0.0,0.0,0.0,0.0,0.0,0.0,0.0,0.0,0.0,0.0,0.0,0.0,0.0,0.0,0.0,0.0,0.0,0.0,0.0,0.0,0.0,0.0,0.0,0.0,0.0,0.0,0.0,0.0,0.0,0.0,0.0,0.0,0.0,0.0,0.0,-1.8317,0.0,-1.8745,-1.8826,-1.7811,-1.7153,0.0,0.0,0.0,0.0,0.0,0.0,0.0,0.0,0.0,0.0,0.0,0.0,0.0,0.0,0.0,0.0,0.0,0.0,0.0,0.0,0.0,0.0,0.0,0.0,0.0,0.0,0.0,0.0,0.0,0.0,0.0,0.0,0.0,0.0,0.0,0.0,0.0,0.0,0.0,0.0,0.0,0.0,0.0,0.0,0.0,0.0,0.0,0.0,0.0,0.0,0.0,0.0,0.0,0.0,0.0,0.0,0.0,0.0,0.0,0.0,0.0,0.0,0.0,0.0,0.0,0.0,0.0,0.0,0.0,0.0,0.0,0.0,0.0,0.0,0.0,0.0,0.0,0.0,0.0,0.0,0.0,0.0,0.0,0.0,0.0,0.0,0.0,0.0,0.0,0.0,0.0,0.0,0.0,0.0,0.0,0.0,0.0,0.0,0.0,0.0,0.0,0.0,0.0,0.0,0.0,0.0,0.0,0.0,-1.831,-1.8375,-1.8403,-1.829,-1.7917,-1.7959,-1.7442,0.0,0.0,0.0,0.0,0.0,0.0,0.0,0.0,0.0,0.0,0.0,0.0,0.0,0.0,0.0,0.0,0.0,0.0,0.0,0.0,0.0,0.0,0.0,0.0,0.0,0.0,0.0,0.0,0.0,0.0,0.0,0.0,0.0,0.0,0.0,0.0,0.0,0.0,0.0,0.0,0.0,0.0,0.0,0.0,0.0,0.0,0.0,0.0,0.0,0.0,0.0,0.0,0.0,0.0,0.0,0.0,0.0,0.0,0.0,0.0,0.0,0.0,0.0,0.0,0.0,0.0,0.0,0.0,0.0,0.0,0.0,0.0,0.0,0.0,0.0,0.0,0.0,0.0,0.0,0.0,0.0,0.0,0.0,0.0,0.0,0.0,0.0,0.0,0.0,0.0,0.0,0.0,0.0,0.0,0.0,0.0,0.0,0.0,0.0,0.0,0.0,0.0,0.0,0.0,0.0,0.0,0.0,0.0,0.0,-1.831,-1.8215,-1.829,-1.8547,-1.7711,-1.7077,0.0,0.0,0.0,0.0,0.0,0.0,0.0,0.0,0.0,0.0,0.0,0.0,0.0,0.0,0.0,0.0,0.0,0.0,0.0,0.0,0.0,0.0,0.0,0.0,0.0,0.0,0.0,0.0,0.0,0.0,0.0,0.0,0.0,0.0,0.0,0.0,0.0,0.0,0.0,0.0,0.0,0.0,0.0,0.0,0.0,0.0,0.0,0.0,0.0,0.0,0.0,0.0,0.0,0.0,0.0,0.0,0.0,0.0,0.0,0.0,0.0,0.0,0.0,0.0,0.0,0.0,0.0,0.0,0.0,0.0,0.0,0.0,0.0,0.0,0.0,0.0,0.0,0.0,0.0,0.0,0.0,0.0,0.0,0.0,0.0,0.0,0.0,0.0,0.0,0.0,0.0,0.0,0.0,0.0,0.0,0.0,0.0,0.0,0.0,0.0,0.0,0.0,0.0,0.0,0.0,0.0,0.0,0.0,0.0,-1.8644,-1.8428,-1.8471,-1.8705,-1.7888,-1.7307,-1.7113,0.0,0.0,0.0,0.0,0.0,0.0,0.0,0.0,0.0,0.0,0.0,0.0,0.0,0.0,0.0,0.0,0.0,0.0,0.0,0.0,0.0,0.0,0.0,0.0,0.0,0.0,0.0,0.0,0.0,0.0,0.0,0.0,0.0,0.0,0.0,0.0,0.0,0.0,0.0,0.0,0.0,0.0,0.0,0.0,0.0,0.0,0.0,0.0,0.0,0.0,0.0,0.0,0.0,0.0,0.0,0.0,0.0,0.0,0.0,0.0,0.0,0.0,0.0,0.0,0.0,0.0,0.0,0.0,0.0,0.0,0.0,0.0,0.0,0.0,0.0,0.0,0.0,0.0,0.0,0.0,0.0,0.0,0.0,0.0,0.0,0.0,0.0,0.0,0.0,0.0,0.0,0.0,0.0,0.0,0.0,0.0,0.0,0.0,0.0,0.0,0.0,0.0,0.0,0.0,0.0,0.0,0.0,0.0,-1.9241,-1.9043,-1.881,-1.8482,-1.8345,-1.8022,0.0,0.0,0.0,0.0,0.0,0.0,0.0,0.0,0.0,0.0,0.0,0.0,0.0,0.0,0.0,0.0,0.0,0.0,0.0,0.0,0.0,0.0,0.0,0.0,0.0,0.0,0.0,0.0,0.0,0.0,0.0,0.0,0.0,0.0,0.0,0.0,0.0,0.0,0.0,0.0,0.0,0.0,0.0,0.0,0.0,0.0,0.0,0.0,0.0,0.0,0.0,0.0,0.0,0.0,0.0,0.0,0.0,0.0,0.0,0.0,0.0,0.0,0.0,0.0,0.0,0.0,0.0,0.0,0.0,0.0,0.0,0.0,0.0,0.0,0.0,0.0,0.0,0.0,0.0,0.0,0.0,0.0,0.0,0.0,0.0,0.0,0.0,0.0,0.0,0.0,0.0,0.0,0.0,0.0,0.0,0.0,0.0,0.0,0.0,0.0,0.0,0.0,0.0,0.0,0.0,0.0,0.0,0.0,0.0,-1.9002,-1.9357,-1.9395,-1.9071,-1.8586,-1.8366,0.0,0.0,0.0,0.0,0.0,0.0,0.0,0.0,0.0,0.0,0.0,0.0,0.0,0.0,0.0,0.0,0.0,0.0,0.0,0.0,0.0,0.0,0.0,0.0,0.0,0.0,0.0,0.0,0.0,0.0,0.0,0.0,0.0,0.0,0.0,0.0,0.0,0.0,0.0,0.0,0.0,0.0,0.0,0.0,0.0,0.0,0.0,0.0,0.0,0.0,0.0,0.0,0.0,0.0,0.0,0.0,0.0,0.0,0.0,0.0,0.0,0.0,0.0,0.0,0.0,0.0,0.0,0.0,0.0,0.0,0.0,0.0,0.0,0.0,0.0,0.0,0.0,0.0,0.0,0.0,0.0,0.0,0.0,0.0,0.0,0.0,0.0,0.0,0.0,0.0,0.0,0.0,0.0,0.0,0.0,0.0,0.0,0.0,0.0,0.0,0.0,0.0,0.0,0.0,0.0,0.0,0.0,0.0,-1.8362,-1.9275,-1.9762,-1.9939,-1.9888,-1.9367,-1.9014,0.0,0.0,0.0,0.0,0.0,0.0,0.0,0.0,0.0,0.0,0.0,0.0,0.0,0.0,0.0,0.0,0.0,0.0,0.0,0.0,0.0,0.0,0.0,0.0,0.0,0.0,0.0,0.0,0.0,0.0,0.0,0.0,0.0,0.0,0.0,0.0,0.0,0.0,0.0,0.0,0.0,0.0,0.0,0.0,0.0,0.0,0.0,0.0,0.0,0.0,0.0,0.0,0.0,0.0,0.0,0.0,0.0,0.0,0.0,0.0,0.0,0.0,0.0,0.0,0.0,0.0,0.0,0.0,0.0,0.0,0.0,0.0,0.0,0.0,0.0,0.0,0.0,0.0,0.0,0.0,0.0,0.0,0.0,0.0,0.0,0.0,0.0,0.0,0.0,0.0,0.0,0.0,0.0,0.0,0.0,0.0,0.0,0.0,0.0,0.0,0.0,0.0,0.0,0.0,0.0,0.0,0.0,0.0,-1.8598,-1.9778,-2.0066,-2.0394,-2.0737,-2.0347,-1.9808,0.0,0.0,0.0,0.0,0.0,0.0,0.0,0.0,0.0,0.0,0.0,0.0,0.0,0.0,0.0,0.0,0.0,0.0,0.0,0.0,0.0,0.0,0.0,0.0,0.0,0.0,0.0,0.0,0.0,0.0,0.0,0.0,0.0,0.0,0.0,0.0,0.0,0.0,0.0,0.0,0.0,0.0,0.0,0.0,0.0,0.0,0.0,0.0,0.0,0.0,0.0,0.0,0.0,0.0,0.0,0.0,0.0,0.0,0.0,0.0,0.0,0.0,0.0,0.0,0.0,0.0,0.0,0.0,0.0,0.0,0.0,0.0,0.0,0.0,0.0,0.0,0.0,0.0,0.0,0.0,0.0,0.0,0.0,0.0,0.0,0.0,0.0,0.0,0.0,0.0,0.0,0.0,0.0,0.0,0.0,0.0,0.0,0.0,0.0,0.0,0.0,0.0,0.0,0.0,0.0,0.0,0.0,0.0,-1.8788,-1.9791,-2.0047,-2.0604,-2.1366,-2.0368,-2.0214,0.0,0.0,0.0,0.0,0.0,0.0,0.0,0.0,0.0,0.0,0.0,0.0,0.0,0.0,0.0,0.0,0.0,0.0,0.0,0.0,0.0,0.0,0.0,0.0,0.0,0.0,0.0,0.0,0.0,0.0,0.0,0.0,0.0,0.0,0.0,0.0,0.0,0.0,0.0,0.0,0.0,0.0,0.0,0.0,0.0,0.0,0.0,0.0,-1.9864,0.0,0.0,0.0,0.0,0.0,0.0,0.0,0.0,0.0,0.0,0.0,0.0,0.0,0.0,0.0,0.0,0.0,0.0,0.0,0.0,0.0,0.0,0.0,0.0,0.0,0.0,0.0,0.0,0.0,0.0,0.0,0.0,0.0,0.0,0.0,0.0,0.0,0.0,0.0,0.0,0.0,0.0,0.0,0.0,0.0,0.0,0.0,0.0,0.0,0.0,0.0,0.0,0.0,0.0,0.0,0.0,0.0,0.0,0.0,-1.8722,-1.9753,-2.0087,-2.0631,-2.1532,-2.0662,-2.0603,0.0,0.0,0.0,0.0,0.0,0.0,0.0,0.0,0.0,0.0,0.0,0.0,0.0,0.0,0.0,0.0,0.0,0.0,0.0,0.0,0.0,0.0,0.0,0.0,0.0,0.0,0.0,0.0,0.0,0.0,0.0,0.0,0.0,0.0,0.0,0.0,0.0,0.0,0.0,0.0,0.0,0.0,0.0,0.0,0.0,0.0,0.0,0.0,0.0,0.0,0.0,0.0,0.0,0.0,0.0,0.0,0.0,0.0,0.0,0.0,0.0,0.0,0.0,0.0,0.0,0.0,0.0,0.0,0.0,0.0,0.0,0.0,0.0,0.0,0.0,0.0,0.0,0.0,0.0,0.0,0.0,0.0,0.0,0.0,0.0,0.0,0.0,0.0,0.0,0.0,0.0,0.0,0.0,0.0,0.0,0.0,0.0,0.0,0.0,0.0,0.0,0.0,0.0,0.0,0.0,0.0,0.0,-1.8043,-1.8657,-1.976,-2.012,-2.0719,-2.1512,-2.1006,-2.0917,-2.1426,0.0,0.0,0.0,0.0,0.0,0.0,0.0,0.0,0.0,0.0,0.0,0.0,0.0,0.0,0.0,0.0,0.0,0.0,0.0,0.0,0.0,0.0,0.0,0.0,0.0,0.0,0.0,0.0,0.0,0.0,0.0,0.0,0.0,0.0,0.0,0.0,0.0,0.0,-1.9978,-1.9843,0.0,0.0,0.0,0.0,0.0,0.0,0.0,0.0,-2.0077,0.0,0.0,0.0,0.0,0.0,0.0,0.0,0.0,0.0,0.0,0.0,0.0,0.0,0.0,0.0,0.0,0.0,0.0,0.0,0.0,0.0,0.0,0.0,0.0,0.0,0.0,0.0,0.0,0.0,0.0,0.0,0.0,0.0,0.0,0.0,0.0,0.0,0.0,0.0,0.0,0.0,0.0,0.0,0.0,0.0,0.0,0.0,0.0,0.0,0.0,0.0,0.0,0.0,0.0,0.0,0.0,-1.8411,-1.84,-1.8865,-1.978,-2.0327,-2.0834,-2.1218,-2.0895,-2.1246,-2.2272,0.0,0.0,0.0,0.0,0.0,0.0,0.0,0.0,0.0,0.0,0.0,0.0,0.0,0.0,0.0,0.0,0.0,0.0,0.0,0.0,0.0,0.0,0.0,0.0,0.0,0.0,0.0,0.0,0.0,0.0,0.0,0.0,0.0,0.0,0.0,0.0,0.0,0.0,0.0,-1.9994,-2.0179,0.0,0.0,0.0,0.0,0.0,0.0,0.0,0.0,-2.0362,0.0,0.0,0.0,0.0,0.0,0.0,0.0,0.0,0.0,0.0,0.0,0.0,0.0,0.0,0.0,0.0,0.0,0.0,0.0,0.0,0.0,0.0,0.0,0.0,0.0,0.0,0.0,0.0,0.0,0.0,0.0,0.0,0.0,0.0,0.0,0.0,0.0,0.0,0.0,0.0,0.0,0.0,0.0,0.0,0.0,0.0,0.0,0.0,0.0,0.0,0.0,0.0,0.0,0.0,0.0,-1.8388,-1.8624,-1.9065,-1.9786,-2.0402,-2.0944,-2.145,-2.0966,-2.1368,0.0,0.0,0.0,0.0,0.0,0.0,0.0,0.0,0.0,0.0,0.0,0.0,0.0,0.0,0.0,0.0,0.0,0.0,0.0,0.0,0.0,0.0,0.0,0.0,0.0,0.0,0.0,0.0,0.0,0.0,0.0,0.0,0.0,0.0,0.0,0.0,0.0,0.0,0.0,0.0,-2.0537,-2.0801,-2.0969,0.0,0.0,0.0,0.0,0.0,0.0,-2.0387,-2.0285,0.0,0.0,0.0,0.0,0.0,0.0,0.0,0.0,0.0,0.0,0.0,0.0,0.0,0.0,0.0,0.0,0.0,0.0,0.0,0.0,0.0,0.0,0.0,0.0,0.0,0.0,0.0,0.0,0.0,0.0,0.0,0.0,0.0,0.0,0.0,0.0,0.0,0.0,0.0,0.0,0.0,0.0,0.0,0.0,0.0,0.0,0.0,0.0,0.0,0.0,0.0,0.0,0.0,0.0,0.0,-1.8247,-1.8698,-1.9178,-1.97,-2.0354,-2.0922,-2.1385,-2.0876,-2.1339,0.0,0.0,0.0,0.0,0.0,0.0,0.0,0.0,0.0,0.0,0.0,0.0,0.0,0.0,0.0,0.0,0.0,0.0,0.0,0.0,0.0,0.0,0.0,0.0,0.0,0.0,0.0,0.0,0.0,0.0,0.0,0.0,0.0,0.0,0.0,0.0,0.0,0.0,0.0,0.0,0.0,-2.1379,-2.1562,-2.132,0.0,0.0,0.0,0.0,-2.0467,-2.0581,0.0,0.0,0.0,0.0,0.0,0.0,0.0,0.0,0.0,0.0,0.0,0.0,0.0,0.0,0.0,0.0,0.0,0.0,0.0,0.0,0.0,0.0,0.0,0.0,0.0,0.0,0.0,0.0,0.0,0.0,0.0,0.0,0.0,0.0,0.0,0.0,0.0,0.0,0.0,0.0,0.0,0.0,0.0,0.0,0.0,0.0,0.0,0.0,0.0,0.0,0.0,0.0,0.0,0.0,0.0,0.0,-1.803,-1.8581,-1.9085,-1.9477,-2.0245,-2.0602,-2.0488,-2.0336,-2.0891,0.0,0.0,0.0,0.0,0.0,0.0,0.0,0.0,0.0,0.0,0.0,0.0,0.0,0.0,0.0,0.0,0.0,0.0,0.0,0.0,0.0,0.0,0.0,0.0,0.0,0.0,0.0,0.0,0.0,0.0,0.0,0.0,0.0,0.0,0.0,0.0,0.0,0.0,0.0,0.0,0.0,-2.1547,-2.1306,-2.0991,-2.075,0.0,0.0,-2.1196,-2.1489,-2.1767,0.0,0.0,0.0,0.0,0.0,0.0,0.0,0.0,0.0,0.0,0.0,0.0,0.0,0.0,0.0,0.0,0.0,0.0,0.0,0.0,0.0,0.0,0.0,0.0,0.0,0.0,0.0,0.0,0.0,0.0,0.0,0.0,0.0,0.0,0.0,0.0,0.0,0.0,0.0,0.0,0.0,0.0,0.0,0.0,0.0,0.0,0.0,0.0,0.0,0.0,0.0,0.0,0.0,0.0,0.0,-1.8325,-1.8457,-1.9071,-1.9482,-1.9619,-2.0169,-2.0503,-2.0524,-2.0755,-2.126,0.0,0.0,0.0,0.0,0.0,0.0,0.0,0.0,0.0,0.0,0.0,0.0,0.0,0.0,0.0,0.0,0.0,0.0,0.0,0.0,0.0,0.0,0.0,0.0,0.0,0.0,0.0,0.0,0.0,0.0,0.0,0.0,0.0,0.0,0.0,0.0,0.0,0.0,0.0,0.0,0.0,0.0,-2.1481,-2.1364,0.0,0.0,0.0,-2.1196,-2.1152,0.0,0.0,0.0,0.0,0.0,0.0,0.0,0.0,0.0,0.0,0.0,0.0,0.0,0.0,0.0,0.0,0.0,0.0,0.0,0.0,0.0,0.0,0.0,0.0,0.0,0.0,0.0,0.0,0.0,0.0,0.0,0.0,0.0,0.0,0.0,0.0,0.0,0.0,0.0,0.0,0.0,0.0,0.0,0.0,0.0,0.0,0.0,0.0,0.0,0.0,0.0,0.0,0.0,0.0,0.0,0.0,0.0,-1.8703,-1.9407,-1.9808,-1.9808,-2.0111,-2.0351,-2.0465,-2.1063,0.0,0.0,0.0,0.0,0.0,0.0,0.0,0.0,0.0,0.0,0.0,0.0,0.0,0.0,0.0,0.0,0.0,0.0,0.0,0.0,0.0,0.0,0.0,0.0,0.0,0.0,0.0,-2.0997,0.0,0.0,0.0,0.0,0.0,0.0,0.0,0.0,0.0,0.0,0.0,0.0,0.0,0.0,-2.1298,-2.154,-2.1576,-2.1657,0.0,0.0,-2.1211,-2.1203,-2.1679,-2.1686,0.0,0.0,0.0,0.0,0.0,0.0,0.0,0.0,0.0,0.0,0.0,0.0,0.0,0.0,0.0,0.0,0.0,0.0,0.0,0.0,0.0,0.0,0.0,0.0,0.0,0.0,0.0,0.0,0.0,0.0,0.0,0.0,0.0,0.0,0.0,0.0,0.0,0.0,0.0,0.0,0.0,0.0,0.0,0.0,0.0,0.0,0.0,0.0,0.0,0.0,0.0,0.0,0.0,0.0,-1.8024,-1.8344,-1.9301,-1.9801,-1.9808,-2.0111,-2.0158,-1.9878,-2.0834,-2.1291,0.0,0.0,0.0,0.0,0.0,0.0,0.0,0.0,0.0,0.0,0.0,0.0,0.0,0.0,0.0,0.0,0.0,0.0,0.0,0.0,0.0,0.0,0.0,0.0,0.0,0.0,0.0,0.0,0.0,0.0,0.0,0.0,0.0,0.0,0.0,0.0,0.0,0.0,0.0,0.0,0.0,-2.1218,-2.124,-2.124,-2.1554,0.0,-2.1796,-2.1503,-2.2359,-2.2769,-2.2586,-2.1342,0.0,0.0,0.0,0.0,0.0,0.0,0.0,0.0,0.0,0.0,0.0,0.0,0.0,0.0,0.0,0.0,0.0,0.0,0.0,0.0,0.0,0.0,0.0,0.0,0.0,0.0,0.0,0.0,0.0,0.0,0.0,0.0,0.0,0.0,0.0,0.0,0.0,0.0,0.0,0.0,0.0,0.0,0.0,0.0,0.0,0.0,0.0,0.0,0.0,0.0,0.0,0.0,0.0,-1.8166,-1.8303,-1.93,-1.9794,-1.9794,-1.9729,-1.9616,-1.9493,-2.1155,-2.1528,0.0,0.0,0.0,0.0,0.0,0.0,0.0,0.0,0.0,0.0,0.0,0.0,0.0,0.0,0.0,0.0,0.0,0.0,0.0,0.0,0.0,0.0,0.0,0.0,0.0,0.0,0.0,0.0,-2.2324,-2.1812,-2.0181,0.0,0.0,0.0,0.0,0.0,0.0,0.0,0.0,0.0,0.0,-2.053,-2.113,-2.1211,0.0,0.0,-2.1869,-2.1635,-2.1993,-2.2162,-2.1869,-2.073,-2.034,0.0,0.0,0.0,0.0,0.0,0.0,0.0,0.0,0.0,0.0,0.0,0.0,0.0,0.0,0.0,0.0,0.0,0.0,0.0,0.0,0.0,0.0,0.0,0.0,0.0,0.0,0.0,0.0,0.0,0.0,0.0,0.0,0.0,0.0,0.0,0.0,0.0,0.0,0.0,0.0,0.0,0.0,0.0,0.0,0.0,0.0,0.0,0.0,0.0,0.0,0.0,0.0,-1.8064,-1.816,-1.9118,-1.9669,-1.9669,-1.9301,-1.9236,-1.949,-2.1319,-2.171,0.0,0.0,0.0,0.0,0.0,0.0,0.0,0.0,0.0,0.0,0.0,0.0,0.0,0.0,0.0,0.0,0.0,0.0,0.0,0.0,0.0,0.0,0.0,0.0,0.0,0.0,0.0,0.0,-2.1691,-2.0925,-1.9704,0.0,0.0,0.0,0.0,0.0,0.0,0.0,0.0,0.0,0.0,-2.0296,-2.0962,-2.1064,-2.1254,-2.1811,-2.1533,-2.1328,-2.1525,-2.1635,-2.1401,-2.0523,0.0,0.0,0.0,0.0,0.0,0.0,0.0,0.0,0.0,0.0,0.0,0.0,0.0,0.0,0.0,0.0,0.0,0.0,0.0,0.0,0.0,0.0,0.0,0.0,0.0,0.0,0.0,-1.7026,0.0,0.0,-1.7286,0.0,0.0,0.0,0.0,0.0,0.0,0.0,0.0,0.0,0.0,0.0,0.0,0.0,0.0,0.0,0.0,0.0,0.0,0.0,0.0,0.0,0.0,-1.7508,-1.7823,-1.8774,-1.9331,-1.9331,-1.9016,-1.9137,-1.981,-2.126,-2.1835,-2.1472,0.0,0.0,0.0,0.0,0.0,0.0,0.0,0.0,0.0,0.0,0.0,0.0,0.0,0.0,0.0,0.0,0.0,0.0,0.0,0.0,0.0,0.0,0.0,0.0,0.0,0.0,-2.0076,-1.8397,-1.7881,0.0,0.0,0.0,0.0,0.0,0.0,0.0,0.0,0.0,-1.8752,-1.9894,-2.0698,-2.0728,-2.0728,-2.0859,-2.1196,-2.0706,-2.0446,-2.1123,-2.1474,-2.1474,0.0,0.0,0.0,0.0,0.0,0.0,0.0,0.0,0.0,0.0,0.0,0.0,0.0,0.0,0.0,0.0,0.0,0.0,0.0,0.0,0.0,0.0,0.0,0.0,0.0,0.0,0.0,-1.7129,-1.7273,0.0,0.0,0.0,0.0,0.0,0.0,0.0,0.0,0.0,0.0,0.0,-1.7664,-1.7337,0.0,0.0,0.0,0.0,0.0,0.0,0.0,0.0,0.0,0.0,0.0,0.0,-1.7172,-1.7461,-1.824,-1.873,-1.8935,-1.9322,-1.9571,-1.9885,-2.1876,-2.3004,-2.3047,0.0,0.0,0.0,0.0,0.0,0.0,0.0,0.0,0.0,0.0,0.0,0.0,0.0,0.0,0.0,0.0,0.0,0.0,0.0,0.0,0.0,0.0,0.0,0.0,0.0,-2.0619,0.0,0.0,0.0,0.0,0.0,0.0,0.0,0.0,0.0,0.0,0.0,-1.8496,-1.9038,-1.9491,-1.9916,-2.034,-2.0398,-2.0533,0.0,0.0,0.0,0.0,0.0,0.0,0.0,0.0,0.0,0.0,0.0,0.0,0.0,0.0,-2.0025,-1.8847,-1.854,-1.843,-1.8321,0.0,0.0,0.0,0.0,0.0,0.0,0.0,0.0,0.0,0.0,0.0,0.0,0.0,0.0,-1.7295,-1.7271,-1.7223,0.0,0.0,0.0,0.0,0.0,0.0,0.0,0.0,-1.7589,-1.7698,-1.7976,-1.7671,-1.7683,0.0,-1.7552,-1.7026,0.0,0.0,0.0,0.0,0.0,0.0,0.0,0.0,-1.7005,-1.7179,-1.7712,-1.8282,-1.8961,-1.9194,-1.9709,-2.0506,-2.2348,-2.3491,-2.3799,-2.2432,-2.1502,0.0,0.0,0.0,0.0,0.0,0.0,0.0,0.0,0.0,0.0,0.0,0.0,0.0,0.0,0.0,0.0,0.0,0.0,0.0,0.0,0.0,0.0,0.0,-2.0182,0.0,0.0,0.0,0.0,0.0,0.0,0.0,0.0,0.0,-1.7779,-1.8299,-1.8796,-1.922,-1.9469,-1.9725,-2.0025,0.0,0.0,0.0,0.0,0.0,0.0,0.0,-2.0008,-1.9528,-1.9535,-1.9564,-1.9492,-1.9952,-2.0252,-1.9813,0.0,0.0,-1.9125,-1.8884,-1.8811,-1.8811,-1.8899,-1.8891,-1.8679,-1.8811,-1.8745,0.0,0.0,0.0,0.0,0.0,0.0,0.0,0.0,-1.7505,-1.7492,0.0,-1.7527,0.0,0.0,0.0,0.0,-1.776,-1.7829,0.0,0.0,-1.7817,-1.7775,-1.7468,-1.7752,-1.8044,-1.8306,-1.8284,-1.7947,-1.7271,-1.6718,0.0,0.0,0.0,0.0,0.0,0.0,-1.6895,-1.6947,-1.7305,-1.8041,-1.9225,-1.88,-1.9583,-2.1696,-2.2646,-2.3335,-2.374,-2.2949,-2.2119,-2.1278,-2.121,0.0,0.0,0.0,0.0,0.0,0.0,0.0,0.0,0.0,0.0,0.0,0.0,0.0,0.0,0.0,0.0,0.0,0.0,0.0,0.0,-2.0223,0.0,0.0,0.0,0.0,0.0,0.0,0.0,0.0,0.0,0.0,-1.7801,-1.8642,-1.925,-1.9235,0.0,0.0,0.0,0.0,-1.9698,-1.9367,-1.9301,-1.9368,-1.933,-1.9828,-2.0106,-1.9806,0.0,0.0,-1.8986,-1.936,-1.9601,-1.8957,-1.9147,-1.9491,-1.9993,-1.9857,-1.9689,-1.9742,-1.9492,-1.9279,-1.9264,-1.9199,-1.9015,-1.6914,0.0,0.0,0.0,0.0,-1.6283,-1.6538,-1.6707,-1.6957,-1.7066,-1.7069,-1.6953,0.0,0.0,0.0,0.0,0.0,0.0,-1.7766,-1.7671,-1.758,-1.7703,-1.8012,-1.7931,-1.7981,-1.8299,-1.8299,-1.8079,-1.7677,-1.7494,-1.6901,-1.5935,0.0,0.0,0.0,0.0,-1.6726,-1.7172,-1.797,-1.8699,-1.9265,-2.0254,-2.1509,-2.3137,-2.347,-2.3662,-2.3779,-2.2969,-2.2393,-2.2148,-2.1522,0.0,0.0,0.0,0.0,0.0,0.0,0.0,0.0,0.0,0.0,0.0,0.0,0.0,0.0,0.0,0.0,0.0,0.0,0.0,-1.8633,-1.836,-1.777,0.0,0.0,0.0,0.0,0.0,0.0,0.0,0.0,0.0,-1.8094,-1.8613,-1.884,0.0,0.0,-1.9433,-1.9111,-1.9272,-1.9469,-1.9601,-1.9676,0.0,-1.993,-1.9923,-1.9864,-1.983,-1.9842,-1.9798,-1.958,-1.9828,-1.9967,-1.955,-1.9617,-1.9669,-1.9542,-1.9484,-1.947,-1.9411,-1.9338,-1.9279,-1.9264,-1.9103,-1.8796,-1.7201,-1.6663,-1.6486,-1.6406,-1.6366,-1.654,-1.6831,-1.7048,-1.7035,-1.7079,-1.71,-1.6995,-1.6932,-1.6998,-1.6895,0.0,0.0,0.0,-1.7816,-1.7808,-1.7563,-1.7662,-1.7855,-1.7845,-1.7918,-1.8101,-1.8108,-1.794,-1.7618,-1.7494,-1.6923,-1.5957,0.0,0.0,-1.571,-1.6068,-1.6372,-1.6619,-1.7236,-1.8077,-1.9096,-2.1006,-2.2593,-2.376,-2.3633,-2.3613,-2.3779,-2.3135,-2.2643,-2.2392,-2.198,-2.151,0.0,0.0,0.0,0.0,0.0,0.0,0.0,0.0,0.0,0.0,0.0,-2.2097,-2.1533,0.0,0.0,0.0,-2.0053,-1.9022,-1.7757,-1.7735,0.0,0.0,0.0,0.0,0.0,0.0,0.0,-1.7347,-1.7369,-1.7425,-1.7867,-1.8196,-1.8423,-1.8489,-1.8833,-1.8964,-1.8642,0.0,-1.8964,-1.9162,-1.9184,-1.9294,-1.9601,-1.9616,-1.9608,-1.9801,-1.9705,-1.9625,-1.9572,-1.9733,-1.9784,-1.9623,-1.9617,-1.9506,-1.9308,-1.9177,-1.9081,-1.9081,-1.9081,-1.9045,-1.8928,-1.873,-1.8498,-1.7481,-1.7213,-1.6894,-1.6951,-1.7159,-1.7186,-1.7353,-1.7574,-1.7551,-1.733,-1.71,-1.7246,-1.7184,-1.6975,-1.7164,0.0,-1.7683,-1.776,-1.7753,-1.7731,-1.7731,-1.7571,-1.7301,-1.7585,-1.7765,-1.7695,-1.7717,-1.7549,-1.7252,-1.6936,-1.6535,-1.5907,-1.6476,-1.6323,-1.5498,-1.5792,-1.5863,-1.5655,-1.5796,-1.6873,-1.8888,-2.1272,-2.2847,-2.3643,-2.3286,-2.3286,-2.3656,-2.3261,-2.2785,-2.2298,-2.233,-2.1984,-2.1034,0.0,0.0,0.0,0.0,0.0,0.0,0.0,0.0,0.0,0.0,0.0,0.0,0.0,0.0,0.0,-1.9528,0.0,-1.8192,-1.7886,0.0,0.0,0.0,-1.6433,-1.644,-1.6727,-1.691,-1.6932,0.0,0.0,-1.7323,-1.7585,-1.8035,-1.8635,-1.873,-1.8628,-1.8306,-1.8299,-1.8299,-1.8357,-1.835,-1.8467,-1.8847,-1.9111,-1.9426,-1.9625,-1.9492,-1.9302,-1.9228,-1.925,-1.925,-1.9184,-1.9199,-1.9184,-1.9191,-1.8979,-1.8745,-1.8701,-1.873,-1.8664,-1.8416,-1.8306,-1.8114,-1.7542,-1.7475,-1.7408,-1.7154,-1.6827,-1.7105,-1.7239,-1.728,-1.7042,-1.6874,-1.6794,-1.6596,-1.6524,-1.647,-1.6946,-1.6933,-1.6619,-1.7234,-1.7412,-1.7188,-1.7356,-1.7319,-1.7073,-1.7319,-1.7225,-1.6836,-1.7066,-1.6979,-1.663,-1.6459,-1.6133,-1.5698,-1.5897,-1.5906,-1.5783,-1.5734,-1.5755,-1.5913,-1.6675,-1.8086,-2.0123,-2.1674,-2.2522,-2.2553,-2.2775,-2.2842,-2.2761,-2.2621,-2.257,-2.264,-2.2076,-2.1736,-2.1656,-2.1094,0.0,0.0,0.0,0.0,0.0,0.0,0.0,0.0,0.0,-2.1133,-2.0898,0.0,-1.9703,0.0,-1.8854,-1.7771,-1.6906,-1.6801,0.0,0.0,-1.6602,-1.6565,-1.7047,-1.6998,-1.6991,-1.7186,-1.7235,-1.7421,-1.7669,-1.7765,-1.7867,-1.8028,-1.8262,-1.8299,-1.7991,-1.8152,-1.8299,-1.8306,-1.8482,-1.8701,-1.876,-1.9067,-1.9258,-1.9045,-1.895,-1.8906,-1.8899,-1.8694,-1.8533,-1.8533,-1.8533,-1.8533,-1.8547,-1.846,-1.8321,-1.813,-1.824,-1.8401,-1.8313,-1.8101,-1.7787,-1.7589,-1.7589,-1.7589,-1.7388,-1.7108,-1.7275,-1.732,-1.7179,-1.6834,-1.6633,-1.6493,-1.6351,-1.632,-1.6471,-1.6739,-1.6677,-1.6427,-1.6866,-1.6947,-1.6831,-1.7059,-1.7034,-1.6772,-1.7035,-1.6854,-1.6472,-1.6516,-1.6349,-1.6053,-1.5804,-1.5553,-1.5184,-1.5254,-1.5512,-1.5948,-1.5526,-1.5526,-1.5971,-1.6904,-1.828,-2.0112,-2.1408,-2.1964,-2.1763,-2.2165,-2.2212,-2.1883,-2.1883,-2.1926,-2.2045,-2.1732,-2.1489,-2.1438,-2.1093,-2.0771,0.0,0.0,0.0,0.0,0.0,0.0,0.0,0.0,0.0,0.0,0.0,-1.8836,-1.8475,-1.7693,-1.6969,-1.6455,-1.6543,-1.6756,-1.7033,-1.6908,-1.6945,-1.7242,-1.7055,-1.6961,-1.7099,-1.6989,-1.7018,-1.734,-1.7391,-1.7443,-1.7527,-1.775,-1.7801,-1.7662,-1.7765,-1.7867,-1.7882,-1.8028,-1.8203,-1.8321,-1.8628,-1.8782,-1.8621,-1.8577,-1.8525,-1.8386,-1.8211,-1.8043,-1.7911,-1.7984,-1.8086,-1.8079,-1.7955,-1.7808,-1.7662,-1.7501,-1.7552,-1.7801,-1.7611,-1.725,-1.7589,-1.7635,-1.7594,-1.7528,-1.7528,-1.7488,-1.74,-1.7172,-1.6794,-1.6486,-1.6254,-1.6191,-1.6285,-1.6438,-1.6466,-1.6466,-1.6438,-1.652,-1.6541,-1.6588,-1.6796,-1.6725,-1.6415,-1.6639,-1.6578,-1.6257,-1.5951,-1.5763,-1.5712,-1.5345,-1.5117,-1.4985,-1.4985,-1.5428,-1.6312,-1.5545,-1.546,-1.6131,-1.6976,-1.8111,-1.9448,-2.0733,-2.1282,-2.1116,-2.148,-2.1528,-2.1117,-2.1099,-2.114,-2.1182,-2.1291,-2.1183,-2.0938,-2.0991,-2.0878,0.0,-2.0488,0.0,0.0,0.0,0.0,0.0,0.0,0.0,0.0,-1.9129,-1.7843,-1.6634,-1.6377,-1.6309,-1.6309,-1.6646,-1.6947,-1.7172,-1.7235,-1.7264,-1.726,-1.7071,-1.6895,-1.6895,-1.6617,-1.6521,-1.6807,-1.6837,-1.6954,-1.7135,-1.7194,-1.7201,-1.7162,-1.725,-1.7337,-1.7286,-1.725,-1.7421,-1.7589,-1.7889,-1.8094,-1.8094,-1.8072,-1.8013,-1.7735,-1.764,-1.753,-1.7304,-1.7413,-1.7596,-1.7625,-1.7384,-1.7216,-1.7133,-1.6799,-1.6645,-1.7047,-1.7011,-1.667,-1.7589,-1.7555,-1.738,-1.728,-1.7266,-1.6974,-1.6981,-1.7166,-1.6636,-1.6192,-1.5912,-1.5858,-1.5752,-1.5644,-1.5866,-1.5846,-1.5683,-1.6108,-1.6265,-1.6258,-1.6337,-1.6197,-1.5943,-1.5927,-1.5765,-1.5424,-1.5367,-1.5625,-1.6246,-1.5812,-1.594,-1.6542,-1.6419,-1.6854,-1.7787,0.0,0.0,0.0,-1.7666,-1.8345,-1.8901,-2.0108,-2.0649,-2.0404,-2.0838,0.0,-2.0647,-2.0638,-2.0806,-2.1172,-2.0737,0.0,0.0,0.0,0.0,0.0,0.0,0.0,0.0,0.0,0.0,0.0,-1.9073,-1.8877,-1.8913,-1.7797,-1.6676,-1.5741,-1.5624,-1.5709,-1.5979,-1.6279,-1.6529,-1.6557,-1.7011,-1.7238,-1.6982,-1.6932,-1.6895,-1.6895,-1.6609,-1.6426,-1.6485,-1.6507,-1.6529,-1.6565,-1.6557,-1.655,-1.6565,-1.6996,-1.7264,-1.7318,-1.7091,-1.6917,-1.6667,-1.6991,-1.724,-1.7174,-1.7174,-1.716,-1.7094,-1.6866,-1.6652,-1.6557,-1.6646,-1.6712,-1.6705,-1.6587,-1.6572,-1.655,-1.6448,-1.6455,-1.6528,-1.6551,-1.6321,-1.734,-1.7128,-1.6994,-1.6927,0.0,-1.6613,-1.658,-1.675,-1.6406,-1.6106,-1.5832,-1.5825,-1.5671,-1.5404,-1.5545,-1.5538,-1.5404,-1.5691,-1.5812,-1.5798,-1.5934,-1.5798,-1.538,-1.5429,-1.5273,-1.4979,-1.5431,-1.5765,-1.6031,-1.6263,-1.6501,-1.6821,-1.6739,-1.718,-1.8109,-1.8037,-1.7876,-1.7666,-1.806,-1.855,-1.917,-1.9987,-2.0189,-1.9792,-2.0181,0.0,0.0,0.0,0.0,0.0,0.0,0.0,0.0,0.0,0.0,-1.9764,-1.987,-1.9889,-1.9753,-1.9847,-1.9733,-1.9317,-1.8504,-1.783,-1.7402,-1.6943,-1.6337,-1.5514,-1.5577,-1.5738,-1.5906,-1.6191,-1.6411,-1.6433,-1.666,-1.6784,-1.6675,-1.6521,-1.6389,-1.6352,-1.6096,-1.5957,-1.6118,-1.6148,-1.6213,-1.6345,-1.6411,-1.6404,-1.6433,-1.6638,-1.685,-1.685,-1.6778,-1.6609,-1.6463,-1.6529,-1.6661,-1.6653,-1.6661,-1.6595,-1.6411,-1.6257,-1.6096,-1.5965,-1.6023,-1.614,-1.6148,-1.6148,-1.6148,-1.6126,-1.6016,-1.5913,-1.5913,-1.603,-1.6009,-1.6927,-1.67,-1.6653,-1.6627,-1.6607,-1.6313,-1.6199,-1.6199,-1.6192,0.0,0.0,-1.5825,-1.5638,-1.5331,-1.5424,-1.5411,-1.5324,-1.5371,-1.5398,-1.5391,-1.5526,-1.5311,-1.4847,-1.4938,-1.49,-1.4699,-1.5436,-1.5767,-1.5733,-1.6427,-1.6788,-1.6739,-1.6854,-1.735,-1.8207,-1.8935,-1.9045,-1.851,-1.847,-1.8798,-1.9527,-1.9882,-1.9802,-1.9311,-1.9641,-1.9622,-1.921,-1.9265,-1.9353,-1.9504,-1.9511,-1.9636,-1.9833,-1.9824,-1.9758,-1.9656,-1.984,-1.9774,-1.94,-1.9579,-1.9615,-1.9337,-1.7914,-1.6882,-1.6437,-1.6458,-1.618,-1.5465,-1.563,-1.5826,-1.579,-1.6104,-1.6265,-1.6257,-1.6345,-1.6404,-1.6287,-1.6074,-1.595,-1.5884,-1.5665,-1.5484,-1.5789,-1.5833,-1.5906,-1.6133,-1.6148,-1.625,-1.6213,-1.636,-1.6448,-1.6382,-1.6345,-1.6316,-1.6242,-1.6177,-1.6199,-1.6177,-1.6184,-1.6111,-1.5906,-1.5833,-1.5723,-1.5533,-1.5665,-1.5796,-1.5833,-1.5833,-1.5826,-1.5783,-1.5586,-1.5389,-1.5418,-1.5643,-1.564,-1.674,-1.668,-1.644,-1.6333,-1.6355,-1.6012,-1.5885,-1.5892,-1.5892,-1.5872,-1.5825,-1.5825,-1.5531,-1.5102,-1.5545,-1.5498,-1.5095,-1.5284,-1.5398,-1.5371,-1.4921,-1.4646,-1.4559,-1.4347,-1.4326,-1.444,-1.4566,-1.5019,-1.565,-1.5816,-1.6131,-1.6747,-1.7432,-1.8238,-1.9063,-1.9222,-1.9262,-1.9173,-1.9164,-1.9213,-1.9341,-1.9396,-1.9405,-1.9311,-1.9356,-1.9201,-1.8815,-1.9118,-1.9215,-1.9124,-1.9236,-1.9429,-1.9636,-1.9441,-1.9155,-1.8648,-1.8658,-1.8627,-1.8584,-1.8889,-1.9183,-1.918,-1.7057,-1.6242,-1.7559,-1.6404,-1.5548,-1.5389,-1.5489,-1.5455,-1.5469,-1.5789,-1.5877,-1.5622,-1.6045,-1.6301,-1.6009,-1.5935,-1.5891,-1.5841,-1.5586,-1.5396,-1.5511,-1.5526,-1.554,-1.557,-1.5657,-1.5592,-1.5694,-1.603,-1.6213,-1.6052,-1.5979,-1.5862,-1.5701,-1.5577,-1.5621,-1.5562,-1.5606,-1.5621,-1.5562,-1.5469,-1.544,-1.5403,-1.5474,-1.5455,-1.5476,-1.5462,-1.5484,-1.5491,-1.5418,-1.5389,-1.5389,-1.5447,-1.5309,-1.638,-1.6219,-1.6086,-1.6032,-1.6019,-1.5838,-1.5825,-1.5825,-1.5825,-1.5825,-1.5825,-1.5825,-1.5511,-1.5055,-1.5244,-1.5124,-1.473,-1.4856,-1.4923,-1.4903,-1.4643,-1.4436,-1.4282,-1.4148,-1.4173,-1.4286,-1.4734,-1.5151,-1.556,-1.6008,-1.6419,-1.6739,-1.7545,-1.8447,-1.9253,-1.9292,-1.9292,-1.9292,-1.9292,-1.9292,-1.9292,-1.9292,-1.9201,-1.899,-1.8981,-1.8797,-1.8374,-1.8559,-1.8615,-1.8507,-1.8597,-1.8698,-1.8784,-1.8707,-1.8542,-1.8258,-1.7952,-1.7933,-1.8248,-1.837,-1.85,-1.8541,-1.7074,-1.6427,-1.7229,-1.6147,-1.5431,-1.5389,-1.5389,-1.5389,-1.5389,-1.552,-1.5549,-1.5403,-1.5701,-1.5789,-1.5687,-1.5608,-1.565,-1.5593,-1.5484,-1.5389,-1.5389,-1.5389,-1.5389,-1.5389,-1.5389,-1.5389,-1.5389,-1.5665,-1.5818,-1.5679,-1.565,-1.5599,-1.546,-1.5389,-1.5389,-1.5389,-1.5389,-1.5389,-1.5374,-1.5272,-1.5214,-1.5338,-1.525,-1.5214,-1.533,-1.5389,-1.5389,-1.5389,-1.5389,-1.5389,-1.5389,-1.5208,-1.495,-1.6039,-1.5825,-1.5825,-1.5825,-1.5825,-1.5825,-1.5825,-1.5825,-1.5825,-1.5825,-1.5771,-1.5718,-1.5444,-1.5042,-1.5015,-1.4803,-1.4543,-1.4516,-1.4516,-1.4516,-1.4449,-1.4309,-1.4102,-1.4088,-1.4088,-1.4173,-1.4783,-1.511,-1.5235,-1.6008,-1.6617,-1.7017,-1.7674,-1.8447,-1.9253,-1.921,-1.9164,-1.9164,-1.9091,-1.9127,-1.9292,-1.9219,-1.9017,-1.8742,-1.8623,-1.8347,-1.7981,-1.7878,-1.7887,-1.7962,-1.7878,-1.7923,-1.8091,-1.8081,-1.8082,-1.7926,-1.7621,-1.768,-1.8197,-1.79,-1.7857,-1.8238,-1.7107,-1.6494,-1.6617,-1.5906,-1.5389,-1.5389,-1.5389,-1.5389,-1.5389,-1.5396,-1.5389,-1.5389,-1.5389,-1.5418,-1.5396,-1.5389,-1.5389,-1.5389,-1.5389,-1.5389,-1.5389,-1.5389,-1.5389,-1.5389,-1.5389,-1.5389,-1.5389,-1.5389,-1.5389,-1.5389,-1.5389,-1.5403,-1.5389,-1.5389,-1.5389,-1.5389,-1.5316,-1.5265,-1.5206,-1.5002,-1.4933,-1.5094,-1.4958,-1.4933,-1.5145,-1.5189,-1.5167,-1.5145,-1.5138,-1.5196,-1.5228,-1.4905,-1.4664,-1.5811,-1.5832,-1.5825,-1.5825,-1.5825,-1.5825,-1.5825,-1.5825,-1.5825,-1.5825,-1.5792,-1.5551,-1.5264,-1.5035,-1.5008,-1.4783,-1.4516,-1.4516,-1.4509,-1.4432,-1.4249,-1.4108,-1.4088,-1.4088,-1.4088,-1.413,-1.4208,-1.4292,-1.4334,-1.511,-1.6288,-1.7715,-1.7997,-1.8399,-1.9137,-1.8935,-1.876,-1.8722,-1.8412,-1.8577,-1.9228,-1.8953,-1.8751,-1.8715,-1.8319,-1.7981,-1.7505,-1.728,-1.7261,-1.7506,-1.7262,-1.742,-1.7989,-1.8072,-1.7908,-1.7551,-1.7641,-1.8079,-1.8674,-1.7612,-1.7458,-1.8806,-1.6837,-1.5858,-1.6542,-1.5899,-1.5389,-1.5389,-1.5389,-1.5389,-1.5389,-1.5389,-1.5389,-1.5389,-1.5389,-1.5389,-1.5389,-1.5389,-1.5389,-1.5389,-1.5389,-1.5389,-1.5389,-1.5389,-1.5389,-1.5389,-1.5389,-1.5389,-1.5389,-1.5389,-1.5389,-1.5389,-1.5389,-1.5389,-1.5389,-1.5382,-1.5345,-1.5372,-1.5126,-1.4988,-1.4885,-1.4735,-1.4553,-1.4692,-1.4614,-1.4599,-1.4636,-1.4599,-1.4604,-1.4692,-1.4692,-1.467,-1.4816,-1.4641,-1.4474,-1.5255,-1.5778,-1.5825,-1.5825,-1.5825,-1.5825,-1.5825,-1.5818,-1.5651,-1.5571,-1.5511,-1.509,-1.491,-1.4995,-1.4783,-1.4543,-1.4269,-1.4262,-1.4269,-1.4255,-1.4142,-1.4088,-1.4088,-1.4088,-1.4088,-1.4088,-1.4088,-1.4088,-1.4166,-1.4461,-1.5276,-1.638,-1.6742,-1.7315,-1.8118,-1.8292,-1.8329,-1.8319,-1.7752,-1.7814,-1.8464,-1.8449,-1.8013,-1.7397,-1.7192,-1.6899,-1.6519,-1.6364,-1.6561,-1.7059,-1.7027,-1.7072,-1.7368,-1.6965,-1.6678,-1.6519,-1.6524,-1.6562,-1.6524,-1.6382,-1.6457,-1.6709,-1.5924,-1.559,-1.5865,-1.559,-1.5389,-1.5389,-1.5389,-1.5389,-1.5389,-1.5389,-1.5389,-1.5389,-1.5389,-1.5389,-1.5389,-1.5389,-1.5389,-1.5389,-1.5389,-1.5389,-1.5389,-1.5389,-1.5389,-1.5389,-1.5389,-1.5389,-1.5389,-1.5389,-1.5389,-1.5389,-1.5389,-1.5389,-1.5367,-1.5206,-1.5133,-1.5053,-1.4834,-1.467,-1.4618,-1.4399,-1.4238,-1.4452,-1.4335,-1.432,-1.4511,-1.4496,-1.4504,-1.4474,-1.4496,-1.4516,-1.4648,-1.4488,-1.4353,-1.4484,-1.535,-1.5683,-1.5825,-1.5825,-1.5825,-1.5731,-1.5691,-1.5484,-1.5357,-1.5231,-1.4743,-1.4636,-1.4776,-1.4536,-1.4275,-1.4102,-1.4088,-1.4088,-1.4088,-1.4088,-1.4088,-1.4088,-1.4088,-1.4088,-1.4088,-1.4088,-1.425,-1.4419,-1.4461,-1.4866,-1.561,-1.5989,-1.6411,-1.6921,-1.7238,-1.7427,-1.7566,-1.6987,-1.7037,-1.767,-1.7752,-1.7424,-1.6764,-1.6578,-1.6394,-1.6105,-1.5903,-1.6158,-1.6839,-1.6735,-1.6586,-1.6577,-1.6079,-1.5727,-1.5603,-1.5571,-1.5463,-1.5147,-1.5659,-1.5771,-1.5343,-1.5405,-1.5389,-1.5389,-1.5389,-1.5389,-1.5389,-1.5389,-1.5389,-1.5389,-1.5389,-1.5389,-1.5389,-1.5389,-1.5389,-1.5389,-1.5389,-1.5389,-1.5389,-1.5389,-1.5389,-1.5389,-1.5389,-1.5389,-1.5389,-1.5389,-1.5389,-1.5389,-1.5389,-1.5389,-1.5382,-1.5323,-1.5284,-1.5236,-1.509,-1.49,-1.475,-1.4553,-1.4372,-1.435,-1.4055,-1.3872,-1.402,-1.3946,-1.3946,-1.4011,-1.4166,-1.4247,-1.424,-1.4247,-1.4284,-1.4318,-1.417,-1.3982,-1.3414,-1.4436,-1.5397,-1.5825,-1.5825,-1.5812,-1.5665,-1.5444,-1.5384,-1.5237,-1.5001,-1.4649,-1.4522,-1.4516,-1.4255,-1.4102,-1.4088,-1.4088,-1.4088,-1.4088,-1.4088,-1.4088,-1.4088,-1.4088,-1.4088,-1.4088,-1.4088,-1.4454,-1.5193,-1.5269,-1.5643,-1.615,-1.6174,-1.6125,-1.595,-1.5752,-1.5802,-1.6538,-1.6188,-1.6246,-1.6851,-1.7,-1.7095,-1.7287,-1.7023,-1.6727,-1.6656,-1.6114,-1.6079,-1.6839,-1.6193,-1.5833,-1.5833,-1.5754,-1.5444,-1.5018,-1.5114,-1.5441,-1.5821,-1.5724,-1.5692,-1.5929,-1.5542,-1.5374,-1.5345,-1.5416,-1.5389,-1.5389,-1.5389,-1.5389,-1.5389,-1.5389,-1.5389,-1.5389,-1.5389,-1.5389,-1.5389,-1.5389,-1.5389,-1.5389,-1.5389,-1.5389,-1.5389,-1.5389,-1.5389,-1.5389,-1.5389,-1.5389,-1.5389,-1.5389,-1.5382,-1.5301,-1.5133,-1.4929,-1.4915,-1.4783,-1.4714,-1.4531,-1.4245,-1.4042,-1.3887,-1.377,-1.366,-1.3587,-1.3601,-1.3594,-1.3558,-1.3565,-1.3631,-1.366,-1.3689,-1.3748,-1.3967,-1.3611,-1.3491,-1.2727,-1.4394,-1.5397,-1.5825,-1.5805,-1.5638,-1.5491,-1.5357,-1.499,-1.4776,-1.4643,-1.4376,-1.4242,-1.4242,-1.4135,-1.4088,-1.4088,-1.4088,-1.4088,-1.4088,-1.4088,-1.4088,-1.4088,-1.4088,-1.4088,-1.4088,-1.4088,-1.425,-1.4496,-1.458,-1.4538,-1.4724,-1.5403,-1.5627,-1.5512,-1.6012,-1.6439,-1.6599,-1.6105,-1.6149,-1.6716,-1.6438,-1.6474,-1.7031,-1.6008,-1.5436,-1.5419,-1.4716,-1.4681,-1.5392,-1.5144,-1.5037,-1.4966,-1.4573,-1.4358,-1.433,-1.4402,-1.4637,-1.5061,-1.5229,-1.5115,-1.482,-1.4976,-1.5097,-1.5112,-1.5265,-1.5389,-1.5389,-1.5389,-1.5389,-1.5389,-1.5389,-1.5389,-1.5389,-1.5389,-1.5389,-1.5389,-1.5389,-1.5389,-1.5389,-1.5389,-1.5389,-1.5389,-1.5389,-1.5389,-1.5389,-1.5389,-1.5389,-1.5389,-1.5389,-1.5316,-1.5126,-1.4973,-1.4754,-1.4333,-1.4326,-1.4253,-1.4121,-1.3961,-1.3748,-1.3616,-1.3616,-1.3543,-1.3543,-1.3499,-1.3492,-1.3514,-1.3514,-1.3492,-1.3492,-1.3492,-1.3528,-1.3645,-1.3479,-1.3424,-1.2004,-1.3397,-1.4665,-1.5147,-1.5168,-1.5239,-1.5204,-1.5077,-1.4689,-1.4469,-1.4362,-1.4168,-1.4088,-1.4088,-1.4088,-1.4088,-1.4088,-1.4088,-1.4088,-1.4088,-1.4088,-1.4088,-1.4088,-1.4088,-1.4088,-1.4088,-1.4088,-1.4088,-1.411,-1.4239,-1.4145,-1.3957,-1.4879,-1.5233,-1.5121,-1.5554,-1.5895,-1.5965,-1.5436,-1.5392,-1.5965,-1.5683,-1.5648,-1.5903,-1.4931,-1.453,-1.4931,-1.425,-1.407,-1.4502,-1.4601,-1.4494,-1.4207,-1.3528,-1.3208,-1.3419,-1.3535,-1.368,-1.4059,-1.4528,-1.4615,-1.4279,-1.4721,-1.5061,-1.5075,-1.5299,-1.5374,-1.5389,-1.5389,-1.5389,-1.5389,-1.5389,-1.5389,-1.5389,-1.5389,-1.5389,-1.5389,-1.5389,-1.5389,-1.5389,-1.5389,-1.5389,-1.5389,-1.5389,-1.5389,-1.5389,-1.5389,-1.5389,-1.5389,-1.5279,-1.5177,-1.4929,-1.4728,-1.4457,-1.4128,-1.4004,-1.3923,-1.3784,-1.3762,-1.3572,-1.3492,-1.3492,-1.3492,-1.3492,-1.3492,-1.3492,-1.3492,-1.3492,-1.3492,-1.3492,-1.3492,-1.3514,-1.3521,-1.3475,-1.3437,-1.1214,-1.156,-1.3078,-1.387,-1.4019,-1.4618,-1.4752,-1.4596,-1.4472,-1.4342,-1.4148,-1.4095,-1.4088,-1.4088,-1.4088,-1.4088,-1.4088,-1.4088,-1.4088,-1.4088,-1.4088,-1.4088,-1.4088,-1.4088,-1.4088,-1.4088,-1.4088,-1.4075,-1.4077,-1.4413,-1.4434,-1.4336,-1.4691,-1.483,-1.4581,-1.4186,-1.4106,-1.4494,-1.4171,-1.4106,-1.4537,-1.4744,-1.4788,-1.4752,-1.4034,-1.4178,-1.5515,-1.4824,-1.4314,-1.443,-1.4422,-1.4207,-1.3491,-1.2806,-1.2372,-1.2489,-1.2562,-1.2746,-1.3029,-1.3775,-1.4309,-1.4435,-1.5006,-1.5272,-1.5265,-1.5387,-1.5389,-1.5389,-1.5389,-1.5389,-1.5389,-1.5389,-1.5389,-1.5389,-1.5389,-1.5389,-1.5389,-1.5389,-1.5389,-1.5389,-1.5389,-1.5389,-1.5389,-1.5389,-1.5389,-1.5389,-1.5389,-1.5389,-1.536,-1.5155,-1.4951,-1.4776,-1.4509,-1.4128,-1.3954,-1.377,-1.3609,-1.3514,-1.3543,-1.3492,-1.3492,-1.3492,-1.3492,-1.3492,-1.3492,-1.3492,-1.3492,-1.3492,-1.3492,-1.3492,-1.3492,-1.3492,-1.347,-1.344,-1.3338,-1.1015,-1.113,-1.2226,-1.3101,-1.3625,-1.369,-1.3969,-1.4452,-1.4315,-1.4175,-1.4095,-1.4088,-1.4088,-1.4088,-1.4088,-1.4088,-1.4088,-1.4088,-1.4088,-1.4088,-1.4088,-1.4088,-1.4088,-1.4088,-1.4088,-1.4088,-1.4088,-1.3975,-1.3842,-1.3926,-1.3754,-1.3481,-1.3989,-1.4104,-1.3941,-1.4099,-1.4422,-1.453,-1.4386,-1.4637,-1.5286,-1.4851,-1.4851,-1.5215,-1.4178,-1.3745,-1.4142,-1.3455,-1.3025,-1.3062,-1.3025,-1.2915,-1.2666,-1.2445,-1.2378,-1.2489,-1.2562,-1.2746,-1.3089,-1.3565,-1.3952,-1.4214,-1.4696,-1.5009,-1.509,-1.5313,-1.5382,-1.5389,-1.5389,-1.5389,-1.5389,-1.5389,-1.5389,-1.5389,-1.5389,-1.5389,-1.5389,-1.5389,-1.5389,-1.5389,-1.5389,-1.5389,-1.5389,-1.5389,-1.5389,-1.5389,-1.5389,-1.5389,-1.5345,-1.509,-1.4798,-1.4626,-1.4254,-1.3924,-1.3718,-1.3623,-1.3558,-1.3492,-1.3492,-1.3492,-1.3492,-1.3492,-1.3492,-1.3492,-1.3492,-1.3492,-1.3492,-1.3492,-1.3492,-1.3492,-1.3492,-1.3492,-1.3499,-1.3426,-1.3346,-1.0285,-1.0412,-1.116,-1.1762,-1.2412,-1.2704,-1.3262,-1.3849,-1.4041,-1.4088,-1.4088,-1.4088,-1.4088,-1.4088,-1.4088,-1.4088,-1.4088,-1.4088,-1.4088,-1.4088,-1.4088,-1.4088,-1.4088,-1.4088,-1.4088,-1.4062,-1.3975,-1.3793,-1.36,-1.3681,-1.357,-1.339,-1.3858,-1.4138,-1.3897,-1.4063,-1.4214,-1.4207,-1.4178,-1.4466,-1.4788,-1.4716,-1.4708,-1.4788,-1.4006,-1.339,-1.3062,-1.2556,-1.2305,-1.2305,-1.2305,-1.2305,-1.2305,-1.2305,-1.2378,-1.2452,-1.2482,-1.2636,-1.2965,-1.3344,-1.3737,-1.4101,-1.4608,-1.4966,-1.5082,-1.5301,-1.5382,-1.5389,-1.5389,-1.5389,-1.5389,-1.5389,-1.5389,-1.5389,-1.5389,-1.5389,-1.5389,-1.5389,-1.5389,-1.5389,-1.5389,-1.5389,-1.5389,-1.5389,-1.5389,-1.5389,-1.5389,-1.5389,-1.5301,-1.4995,-1.4728,-1.4445,-1.4078,-1.3762,-1.355,-1.3499,-1.3499,-1.3492,-1.3492,-1.3492,-1.3492,-1.3492,-1.3492,-1.3492,-1.3492,-1.3492,-1.3492,-1.3492,-1.3492,-1.3492,-1.3492,-1.3492,-1.3492,-1.3492,-1.3455,-0.9237,-0.9413,-0.9899,-1.023,-1.0563,-1.1907,-1.2649,-1.2894,-1.3701,-1.4088,-1.4088,-1.4088,-1.4088,-1.4088,-1.4088,-1.4088,-1.4088,-1.4088,-1.4088,-1.4088,-1.4088,-1.4088,-1.4088,-1.4088,-1.4062,-1.3988,-1.3781,-1.3586,-1.3474,-1.3592,-1.381,-1.367,-1.3946,-1.4366,-1.4063,-1.3709,-1.3426,-1.3419,-1.3426,-1.3499,-1.3644,-1.4034,-1.4171,-1.3637,-1.3462,-1.3062,-1.2519,-1.2342,-1.2305,-1.2305,-1.2305,-1.2305,-1.2305,-1.2305,-1.2298,-1.2342,-1.2298,-1.2415,-1.2661,-1.3149,-1.3613,-1.4093,-1.458,-1.5017,-1.5228,-1.5316,-1.5389,-1.5389,-1.5389,-1.5389,-1.5389,-1.5389,-1.5389,-1.5389,-1.5389,-1.5389,-1.5389,-1.5389,-1.5389,-1.5389,-1.5389,-1.5389,-1.5389,-1.5389,-1.5389,-1.5389,-1.5389,-1.5374,-1.5199,-1.4926,-1.4567,-1.4223,-1.3917,-1.3682,-1.3492,-1.3492,-1.3492,-1.3492,-1.3492,-1.3492,-1.3492,-1.3492,-1.3492,-1.3492,-1.3492,-1.3492,-1.3492,-1.3492,-1.3492,-1.3492,-1.3492,-1.3492,-1.3492,-1.3492,-1.3492,-0.9043,-0.898,-0.8987,-0.9376,-1.0066,-1.1214,-1.21,-1.279,-1.3701,-1.4088,-1.4088,-1.4088,-1.4088,-1.4088,-1.4088,-1.4088,-1.4088,-1.4088,-1.4088,-1.4088,-1.4088,-1.4088,-1.4088,-1.4082,-1.3975,-1.3746,-1.362,-1.3414,-1.3045,-1.3081,-1.2996,-1.2746,-1.2935,-1.2952,-1.2842,-1.2769,-1.2629,-1.2629,-1.2666,-1.2989,-1.339,-1.3135,-1.3135,-1.3462,-1.2989,-1.2592,-1.2305,-1.2305,-1.2305,-1.2305,-1.2305,-1.2305,-1.2305,-1.2305,-1.2305,-1.2305,-1.2305,-1.2372,-1.2661,-1.3098,-1.3511,-1.3868,-1.45,-1.4929,-1.5024,-1.5258,-1.5367,-1.5389,-1.5389,-1.5389,-1.5389,-1.5389,-1.5389,-1.5389,-1.5389,-1.5389,-1.5389,-1.5389,-1.5389,-1.5389,-1.5389,-1.5389,-1.5389,-1.5389,-1.5389,-1.5389,-1.5374,-1.5316,-1.5119,-1.4809,-1.4489,-1.4099,-1.3792,-1.3616,-1.3492,-1.3492,-1.3492,-1.3492,-1.3492,-1.3492,-1.3492,-1.3492,-1.3492,-1.3492,-1.3492,-1.3492,-1.3492,-1.3492,-1.3492,-1.3492,-1.3492,-1.3492,-1.3492,-1.3492,-1.3492,-0.8962,-0.8913,-0.867,-0.8867,-0.9515,-1.0717,-1.1628,-1.2314,-1.3519,-1.4088,-1.4088,-1.4088,-1.4088,-1.4088,-1.4088,-1.4088,-1.4088,-1.4088,-1.4088,-1.4088,-1.4088,-1.4088,-1.4088,-1.4082,-1.3935,-1.3613,-1.348,-1.32,-1.2844,-1.2663,-1.2458,-1.2382,-1.2305,-1.2305,-1.2378,-1.2305,-1.2305,-1.2378,-1.2592,-1.3062,-1.3426,-1.3382,-1.3317,-1.3462,-1.2989,-1.2703,-1.2378,-1.2305,-1.2305,-1.2305,-1.2305,-1.2305,-1.2305,-1.2305,-1.2305,-1.2305,-1.2305,-1.2335,-1.2509,-1.2926,-1.3304,-1.3646,-1.4316,-1.4725,-1.4929,-1.5199,-1.5389,-1.5389,-1.5389,-1.5389,-1.5389,-1.5389,-1.5389,-1.5389,-1.5389,-1.5389,-1.5389,-1.5389,-1.5389,-1.5389,-1.5389,-1.5389,-1.5389,-1.5389,-1.5389,-1.5389,-1.5389,-1.5301,-1.5148,-1.4757,-1.4438,-1.4144,-1.377,-1.3558,-1.3492,-1.3492,-1.3492,-1.3492,-1.3492,-1.3492,-1.3492,-1.3492,-1.3492,-1.3492,-1.3492,-1.3492,-1.3492,-1.3492,-1.3492,-1.3492,-1.3492,-1.3492,-1.3492,-1.3492,-1.3492,-0.8864,-0.9015,-0.8698,-0.8616,-0.8915,-1.0381,-1.1198,-1.1671,-1.313,-1.3962,-1.4088,-1.4088,-1.4088,-1.4088,-1.4088,-1.4088,-1.4088,-1.4088,-1.4088,-1.4088,-1.4088,-1.4088,-1.4088,-1.4088,-1.3841,-1.3514,-1.324,-1.3019,-1.2737,-1.2418,-1.2331,-1.2305,-1.2305,-1.2305,-1.2305,-1.2305,-1.2305,-1.2409,-1.2806,-1.3091,-1.331,-1.3564,-1.3564,-1.3237,-1.3171,-1.2842,-1.2452,-1.2305,-1.2305,-1.2305,-1.2305,-1.2305,-1.2305,-1.2305,-1.2305,-1.2305,-1.2342,-1.2378,-1.2409,-1.2774,-1.3056,-1.3443,-1.4084,-1.4567,-1.486,-1.5141,-1.5389,-1.5389,-1.5389,-1.5389,-1.5389,-1.5389,-1.5389,-1.5389,-1.5389,-1.5389,-1.5389,-1.5389,-1.5389,-1.5389,-1.5389,-1.5389,-1.5389,-1.5389,-1.5389,-1.5389,-1.5374,-1.5287,-1.5075,-1.475,-1.4511,-1.4298,-1.3901,-1.3514,-1.3492,-1.3492,-1.3492,-1.3492,-1.3492,-1.3492,-1.3492,-1.3492,-1.3492,-1.3492,-1.3492,-1.3492,-1.3492,-1.3492,-1.3492,-1.3492,-1.3492,-1.3492,-1.3492,-1.3492,-1.3492,-0.8636,-0.8674,-0.8645,-0.8616,-0.8788,-0.9777,-1.0636,-1.137,-1.2485,-1.344,-1.3955,-1.4088,-1.4088,-1.4088,-1.4088,-1.4088,-1.4088,-1.4088,-1.4088,-1.4088,-1.4088,-1.4088,-1.4082,-1.4075,-1.3715,-1.322,-1.316,-1.2919,-1.2518,-1.2378,-1.2305,-1.2305,-1.2305,-1.2305,-1.2305,-1.2305,-1.2305,-1.2342,-1.2519,-1.2592,-1.2629,-1.2813,-1.2842,-1.2629,-1.2629,-1.2519,-1.2378,-1.2305,-1.2305,-1.2305,-1.2305,-1.2305,-1.2305,-1.2305,-1.2305,-1.2342,-1.2452,-1.2526,-1.2599,-1.2863,-1.3155,-1.3342,-1.4004,-1.4533,-1.4621,-1.5123,-1.5352,-1.5389,-1.5389,-1.5389,-1.5389,-1.5389,-1.5389,-1.5389,-1.5389,-1.5389,-1.5389,-1.5389,-1.5389,-1.5389,-1.5389,-1.5389,-1.5389,-1.5389,-1.5389,-1.5389,-1.5338,-1.5265,-1.5035,-1.4721,-1.4465,-1.4284,-1.3872,-1.3499,-1.3492,-1.3492,-1.3492,-1.3492,-1.3492,-1.3492,-1.3492,-1.3492,-1.3492,-1.3492,-1.3492,-1.3492,-1.3492,-1.3492,-1.3492,-1.3492,-1.3492,-1.3492,-1.3492,-1.3492,-1.3492,-0.8505,-0.8548,-0.8557,-0.8616,-0.874,-0.9515,-1.0164,-1.0847,-1.2143,-1.296,-1.3483,-1.387,-1.4088,-1.4088,-1.4088,-1.4088,-1.4088,-1.4088,-1.4088,-1.4088,-1.4082,-1.4008,-1.3935,-1.3988,-1.3741,-1.3227,-1.318,-1.2933,-1.2599,-1.2365,-1.2305,-1.2305,-1.2305,-1.2305,-1.2305,-1.2305,-1.2305,-1.2305,-1.2305,-1.2305,-1.2305,-1.2305,-1.2305,-1.2305,-1.2305,-1.2305,-1.2305,-1.2305,-1.2305,-1.2305,-1.2305,-1.2305,-1.2305,-1.2305,-1.2305,-1.2342,-1.2378,-1.2526,-1.2636,-1.287,-1.3154,-1.3407,-1.4117,-1.4479,-1.4728,-1.5119,-1.5345,-1.5389,-1.5389,-1.5389,-1.5389,-1.5389,-1.5389,-1.5389,-1.5389,-1.5389,-1.5389,-1.5389,-1.5389,-1.5389,-1.5389,-1.5389,-1.5389,-1.5389,-1.5389,-1.5389,-1.5382,-1.5294,-1.4966,-1.4692,-1.437,-1.413,-1.374,-1.3506,-1.3492,-1.3492,-1.3492,-1.3492,-1.3492,-1.3492,-1.3492,-1.3492,-1.3492,-1.3492,-1.3492,-1.3492,-1.3492,-1.3492,-1.3492,-1.3492,-1.3492,-1.3492,-1.3492,-1.3492,-1.3492,-0.8381,-0.8415,-0.8492,-0.8524,-0.8652,-0.9345,-0.9772,-1.0164,-1.1537,-1.2314,-1.2833,-1.3568,-1.3828,-1.4082,-1.4088,-1.4088,-1.4088,-1.4088,-1.4088,-1.4088,-1.3995,-1.3921,-1.3834,-1.3828,-1.3794,-1.3567,-1.3307,-1.3013,-1.269,-1.2445,-1.2311,-1.2305,-1.2305,-1.2305,-1.2305,-1.2305,-1.2305,-1.2305,-1.2305,-1.2305,-1.2305,-1.2305,-1.2305,-1.2305,-1.2305,-1.2305,-1.2305,-1.2305,-1.2305,-1.2305,-1.2305,-1.2305,-1.2305,-1.2305,-1.2305,-1.2305,-1.2335,-1.2489,-1.2673,-1.287,-1.316,-1.369,-1.419,-1.4553,-1.4838,-1.5119,-1.5352,-1.5389,-1.5389,-1.5389,-1.5389,-1.5389,-1.5389,-1.5389,-1.5389,-1.5389,-1.5389,-1.5389,-1.5389,-1.5389,-1.5389,-1.5389,-1.5389,-1.5389,-1.5389,-1.5389,-1.5382,-1.5294,-1.498,-1.4757,-1.4494,-1.4357,-1.407,-1.377,-1.3718,-1.3514,-1.3506,-1.3536,-1.3528,-1.3506,-1.3499,-1.3492,-1.3492,-1.3492,-1.3492,-1.3492,-1.3492,-1.3492,-1.3492,-1.3492,-1.3492,-1.3492,-1.3492,-1.3492,-1.3492,-0.7768,-0.8026,-0.8216,-0.8248,-0.8336,-0.8692,-0.9257,-0.9859,-1.0289,-1.1278,-1.2571,-1.2881,-1.344,-1.387,-1.4088,-1.4088,-1.4088,-1.4055,-1.4048,-1.4001,-1.3861,-1.3693,-1.3828,-1.3574,-1.3487,-1.3493,-1.3273,-1.2913,-1.2538,-1.2318,-1.2305,-1.2305,-1.2305,-1.2305,-1.2305,-1.2305,-1.2305,-1.2305,-1.2305,-1.2305,-1.2305,-1.2305,-1.2305,-1.2305,-1.2305,-1.2305,-1.2305,-1.2305,-1.2305,-1.2305,-1.2305,-1.2305,-1.2305,-1.2305,-1.2305,-1.2342,-1.2409,-1.2562,-1.2746,-1.2973,-1.3251,-1.3623,-1.4097,-1.4457,-1.4699,-1.5072,-1.5338,-1.5389,-1.5389,-1.5389,-1.5389,-1.5389,-1.5389,-1.5389,-1.5389,-1.5389,-1.5389,-1.5389,-1.5389,-1.5389,-1.5389,-1.5389,-1.5389,-1.5389,-1.5389,-1.5389,-1.5389,-1.533,-1.5126,-1.4936,-1.4801,-1.4662,-1.4553,-1.4245,-1.3982,-1.3697,-1.3543,-1.3609,-1.3601,-1.3543,-1.3528,-1.3499,-1.3492,-1.3492,-1.3492,-1.3492,-1.3492,-1.3492,-1.3492,-1.3492,-1.3492,-1.3492,-1.3492,-1.3492,-1.3492,-0.7635,-0.7944,-0.8113,-0.8292,-0.8432,-0.8524,-0.8828,-0.9257,-0.9728,-1.0376,-1.1322,-1.2229,-1.2924,-1.3398,-1.3955,-1.4088,-1.4048,-1.3908,-1.3868,-1.3794,-1.354,-1.3433,-1.3641,-1.3313,-1.32,-1.316,-1.3006,-1.2846,-1.2538,-1.2371,-1.2318,-1.2305,-1.2305,-1.2305,-1.2305,-1.2305,-1.2305,-1.2305,-1.2305,-1.2305,-1.2305,-1.2305,-1.2305,-1.2305,-1.2305,-1.2305,-1.2305,-1.2305,-1.2305,-1.2305,-1.2305,-1.2305,-1.2305,-1.2305,-1.2305,-1.2305,-1.2415,-1.2526,-1.2709,-1.287,-1.308,-1.3561,-1.4094,-1.4452,-1.4732,-1.509,-1.5374,-1.5389,-1.5389,-1.5389,-1.5389,-1.5389,-1.5389,-1.5389,-1.5389,-1.5389,-1.5389,-1.5389,-1.5389,-1.5389,-1.5389,-1.5389,-1.5389,-1.5389,-1.5389,-1.5389,-1.5389,-1.5316,-1.5221,-1.5097,-1.4944,-1.4809,-1.4684,-1.4516,-1.4231,-1.3975,-1.3792,-1.3806,-1.3748,-1.3682,-1.3623,-1.3616,-1.3543,-1.3492,-1.3492,-1.3492,-1.3492,-1.3492,-1.3492,-1.3492,-1.3492,-1.3492,-1.3492,-1.3492,-1.3492,-0.7591,-0.7812,-0.8028,-0.8292,-0.8524,-0.8568,-0.8612,-0.8744,-0.9301,-0.9728,-1.0115,-1.1574,-1.2456,-1.2832,-1.3407,-1.3881,-1.3895,-1.36,-1.3527,-1.3494,-1.326,-1.3133,-1.3193,-1.3053,-1.2933,-1.2891,-1.273,-1.2697,-1.2596,-1.2405,-1.2325,-1.2305,-1.2305,-1.2305,-1.2305,-1.2305,-1.2305,-1.2305,-1.2305,-1.2305,-1.2305,-1.2305,-1.2305,-1.2305,-1.2305,-1.2305,-1.2305,-1.2305,-1.2305,-1.2305,-1.2305,-1.2305,-1.2305,-1.2305,-1.2305,-1.2305,-1.2305,-1.2415,-1.2562,-1.2716,-1.3019,-1.3601,-1.4029,-1.4431,-1.4823,-1.5141,-1.5389,-1.5389,-1.5389,-1.5389,-1.5389,-1.5389,-1.5389,-1.5389,-1.5389,-1.5389,-1.5389,-1.5389,-1.5389,-1.5389,-1.5389,-1.5389,-1.5389,-1.5389,-1.5389,-1.5389,-1.5389,-1.5352,-1.5258,-1.5192,-1.5039,-1.4867,-1.4728,-1.467,-1.4479,-1.4328,-1.4218,-1.4201,-1.4062,-1.3938,-1.385,-1.3777,-1.3667,-1.3543,-1.3492,-1.3492,-1.3492,-1.3492,-1.3492,-1.3492,-1.3492,-1.3492,-1.3492,-1.3492,-1.3492,-0.7323,-0.7591,-0.7852,-0.8072,-0.8292,-0.8524,-0.8616,-0.8616,-0.8788,-0.9213,-0.9854,-1.0956,-1.1793,-1.2402,-1.2996,-1.3273,-1.3327,-1.33,-1.3253,-1.3206,-1.2953,-1.2919,-1.3053,-1.2612,-1.2645,-1.2656,-1.2516,-1.2371,-1.2385,-1.2338,-1.2305,-1.2305,-1.2305,-1.2305,-1.2305,-1.2305,-1.2305,-1.2305,-1.2305,-1.2305,-1.2305,-1.2305,-1.2305,-1.2305,-1.2305,-1.2305,-1.2305,-1.2305,-1.2305,-1.2305,-1.2305,-1.2305,-1.2305,-1.2305,-1.2305,-1.2305,-1.2305,-1.2378,-1.2562,-1.268,-1.2996,-1.3568,-1.4082,-1.4518,-1.4915,-1.5199,-1.5389,-1.5389,-1.5389,-1.5389,-1.5389,-1.5389,-1.5389,-1.5389,-1.5389,-1.5389,-1.5389,-1.5389,-1.5389,-1.5389,-1.5389,-1.5389,-1.5389,-1.5389,-1.5389,-1.5389,-1.5382,-1.5345,-1.5309,-1.525,-1.5228,-1.5087,-1.4977,-1.4911,-1.4801,-1.4604,-1.4567,-1.4589,-1.4401,-1.4218,-1.4062,-1.3945,-1.3733,-1.3623,-1.355,-1.3492,-1.3492,-1.3492,-1.3492,-1.3492,-1.3492,-1.3492,-1.3492,-1.3492,-1.3499,-0.7319,-0.7724,-0.7852,-0.812,-0.8432,-0.8568,-0.8616,-0.8616,-0.8616,-0.8784,-0.9274,-1.0024,-1.103,-1.1973,-1.2431,-1.2777,-1.3048,-1.3019,-1.2985,-1.2893,-1.2717,-1.2579,-1.2599,-1.2445,-1.2412,-1.2432,-1.2385,-1.2338,-1.2305,-1.2305,-1.2305,-1.2305,-1.2305,-1.2305,-1.2305,-1.2305,-1.2305,-1.2305,-1.2305,-1.2305,-1.2305,-1.2305,-1.2305,-1.2305,-1.2305,-1.2305,-1.2305,-1.2305,-1.2305,-1.2305,-1.2305,-1.2305,-1.2305,-1.2305,-1.2305,-1.2305,-1.2305,-1.2342,-1.2415,-1.2526,-1.2845,-1.3303,-1.3864,-1.4399,-1.4964,-1.5287,-1.5389,-1.5389,-1.5389,-1.5374,-1.5409,-1.5389,-1.5389,-1.5389,-1.5367,-1.5389,-1.5389,-1.5389,-1.5389,-1.5389,-1.5389,-1.5389,-1.5389,-1.5389,-1.5389,-1.5389,-1.5389,-1.5374,-1.536,-1.5345,-1.5338,-1.533,-1.5284,-1.5226,-1.5068,-1.4922,-1.4962,-1.4911,-1.4575,-1.4399,-1.4267,-1.4114,-1.3901,-1.3682,-1.3543,-1.3499,-1.3492,-1.3492,-1.3492,-1.3492,-1.3492,-1.3514,-1.3536,-1.3514,-1.3536,-0.7363,-0.7812,-0.79,-0.8168,-0.8568,-0.8616,-0.8616,-0.8616,-0.8616,-0.8612,-0.8761,-0.9342,-1.0362,-1.1438,-1.1763,-1.2084,-1.259,-1.2662,-1.2697,-1.2583,-1.2438,-1.2345,-1.2365,-1.2311,-1.2305,-1.2305,-1.2325,-1.2305,-1.2305,-1.2305,-1.2305,-1.2305,-1.2305,-1.2305,-1.2305,-1.2305,-1.2305,-1.2305,-1.2305,-1.2305,-1.2305,-1.2305,-1.2305,-1.2305,-1.2305,-1.2305,-1.2305,-1.2305,-1.2305,-1.2305,-1.2305,-1.2305,-1.2305,-1.2305,-1.2305,-1.2305,-1.2305,-1.2305,-1.2342,-1.2442,-1.2614,-1.3089,-1.3715,-1.4517,-1.5119,-1.5347,-1.5316,-1.525,-1.5236,-1.5206,-1.5226,-1.5218,-1.5228,-1.5258,-1.5316,-1.536,-1.5389,-1.5389,-1.5389,-1.5389,-1.5389,-1.5389,-1.5389,-1.5389,-1.5389,-1.5389,-1.5389,-1.5389,-1.5389,-1.5389,-1.5389,-1.5389,-1.5367,-1.5316,-1.5265,-1.5206,-1.5243,-1.5177,-1.4882,-1.4662,-1.4553,-1.4318,-1.4108,-1.3843,-1.3638,-1.3543,-1.355,-1.3521,-1.3492,-1.3492,-1.3506,-1.3572,-1.3587,-1.3587,-1.3558,-0.7279,-0.7551,-0.7812,-0.8168,-0.8612,-0.8616,-0.8616,-0.8616,-0.8616,-0.8596,-0.8597,-0.9047,-0.9709,-1.0532,-1.0898,-1.1131,-1.1352,-1.2011,-1.226,-1.2328,-1.2305,-1.2305,-1.2305,-1.2305,-1.2305,-1.2305,-1.2305,-1.2305,-1.2305,-1.2305,-1.2305,-1.2305,-1.2305,-1.2305,-1.2305,-1.2305,-1.2305,-1.2305,-1.2305,-1.2305,-1.2305,-1.2305,-1.2305,-1.2305,-1.2305,-1.2305,-1.2305,-1.2305,-1.2305,-1.2305,-1.2342,-1.2342,-1.2342,-1.2378,-1.2378,-1.2415,-1.2415,-1.2415,-1.2415,-1.2472,-1.2726,-1.3227,-1.3838,-1.4493,-1.495,-1.524,-1.5236,-1.4973,-1.4944,-1.4827,-1.4787,-1.4779,-1.4988,-1.5097,-1.5221,-1.5367,-1.5389,-1.5389,-1.5389,-1.5389,-1.5389,-1.5389,-1.5389,-1.5389,-1.5389,-1.5389,-1.5389,-1.5389,-1.5389,-1.5389,-1.5389,-1.5389,-1.5389,-1.5374,-1.5382,-1.536,-1.533,-1.5323,-1.5189,-1.5006,-1.4834,-1.4604,-1.4326,-1.4114,-1.3931,-1.377,-1.3645,-1.3726,-1.3726,-1.3558,-1.355,-1.374,-1.385,-1.3887,-1.3755,-0.7231,-0.7507,-0.7595,-0.7944,-0.8384,-0.8524,-0.8616,-0.8616,-0.8612,-0.8469,-0.8273,-0.8437,-0.881,-0.934,-0.9591,-1.0244,-1.1037,-1.1378,-1.1861,-1.2194,-1.2305,-1.2305,-1.2305,-1.2305,-1.2305,-1.2305,-1.2305,-1.2305,-1.2305,-1.2305,-1.2305,-1.2305,-1.2305,-1.2305,-1.2305,-1.2305,-1.2305,-1.2305,-1.2305,-1.2305,-1.2305,-1.2305,-1.2305,-1.2305,-1.2305,-1.2305,-1.2305,-1.2305,-1.2305,-1.2342,-1.2415,-1.2445,-1.2489,-1.2526,-1.2599,-1.2599,-1.2599,-1.2636,-1.2569,-1.2576,-1.2624,-1.3082,-1.3623,-1.4142,-1.4567,-1.4659,-1.4721,-1.4637,-1.4655,-1.4545,-1.456,-1.4743,-1.4936,-1.4988,-1.5126,-1.5323,-1.5389,-1.5389,-1.5389,-1.5389,-1.5389,-1.5389,-1.5389,-1.5389,-1.5389,-1.5389,-1.5389,-1.5389,-1.5389,-1.5389,-1.5389,-1.5389,-1.5389,-1.5389,-1.5389,-1.5389,-1.5389,-1.5389,-1.5389,-1.5221,-1.5031,-1.4893,-1.4623,-1.4443,-1.4245,-1.4099,-1.4026,-1.4086,-1.4005,-1.3792,-1.3872,-1.4108,-1.4181,-1.421,-1.404,-0.7231,-0.737,-0.7459,-0.7724,-0.8116,-0.8384,-0.8476,-0.8524,-0.8568,-0.8398,-0.8093,-0.8036,-0.8131,-0.8394,-0.8718,-0.9415,-1.0507,-1.1037,-1.1632,-1.2046,-1.2305,-1.2305,-1.2305,-1.2305,-1.2305,-1.2305,-1.2305,-1.2305,-1.2305,-1.2305,-1.2305,-1.2305,-1.2305,-1.2305,-1.2305,-1.2305,-1.2305,-1.2305,-1.2305,-1.2305,-1.2305,-1.2305,-1.2305,-1.2305,-1.2305,-1.2305,-1.2305,-1.2305,-1.2305,-1.2342,-1.2378,-1.2482,-1.2562,-1.2673,-1.2746,-1.2783,-1.2826,-1.2893,-1.2753,-1.27,-1.2662,-1.3151,-1.3439,-1.3797,-1.4031,-1.4216,-1.4469,-1.4333,-1.4318,-1.4294,-1.4355,-1.4521,-1.475,-1.4852,-1.5199,-1.5389,-1.5389,-1.5389,-1.5389,-1.5389,-1.5389,-1.5389,-1.5389,-1.5389,-1.5389,-1.5389,-1.5389,-1.5389,-1.5389,-1.5389,-1.5389,-1.5389,-1.5389,-1.5389,-1.5389,-1.5389,-1.5389,-1.5389,-1.5374,-1.5309,-1.5163,-1.5031,-1.49,-1.4681,-1.4545,-1.4428,-1.4467,-1.4479,-1.4282,-1.4064,-1.4223,-1.4487,-1.437,-1.4384,-1.437,-0.7095,-0.7139,-0.737,-0.7635,-0.7896,-0.8113,-0.8201,-0.8292,-0.8472,-0.8455,-0.8243,-0.8097,-0.7914,-0.8036,-0.8365,-0.9117,-1.0008,-1.0732,-1.1446,-1.2114,-1.2305,-1.2305,-1.2305,-1.2305,-1.2305,-1.2305,-1.2305,-1.2305,-1.2305,-1.2305,-1.2305,-1.2305,-1.2305,-1.2305,-1.2305,-1.2305,-1.2305,-1.2305,-1.2305,-1.2305,-1.2305,-1.2305,-1.2305,-1.2305,-1.2305,-1.2305,-1.2305,-1.2305,-1.2305,-1.2305,-1.2378,-1.2415,-1.2415,-1.2636,-1.2636,-1.2489,-1.279,-1.2826,-1.268,-1.279,-1.3003,-1.3161,-1.3348,-1.3637,-1.4001,-1.4214,-1.426,-1.4011,-1.3965,-1.3919,-1.4006,-1.4217,-1.459,-1.4852,-1.5199,-1.5389,-1.5389,-1.5389,-1.5389,-1.5389,-1.5389,-1.5389,-1.5389,-1.5389,-1.5389,-1.5389,-1.5389,-1.5389,-1.5389,-1.5389,-1.5389,-1.5389,-1.5389,-1.5389,-1.5389,-1.5389,-1.5389,-1.5389,-1.5374,-1.5323,-1.5258,-1.5148,-1.5017,-1.49,-1.4842,-1.4801,-1.486,-1.4933,-1.4692,-1.4509,-1.4714,-1.4867,-1.4721,-1.4633,-1.4662,-0.6564,-0.7095,-0.7187,-0.7279,-0.7452,-0.7852,-0.8069,-0.8248,-0.8464,-0.8506,-0.8276,-0.8093,-0.7918,-0.7903,-0.8005,-0.8694,-0.982,-1.0083,-1.087,-1.2194,-1.2305,-1.2305,-1.2305,-1.2305,-1.2305,-1.2305,-1.2305,-1.2305,-1.2305,-1.2305,-1.2305,-1.2305,-1.2305,-1.2305,-1.2305,-1.2305,-1.2305,-1.2305,-1.2305,-1.2305,-1.2305,-1.2305,-1.2305,-1.2305,-1.2305,-1.2305,-1.2305,-1.2305,-1.2305,-1.2305,-1.2378,-1.2452,-1.2526,-1.2716,-1.282,-1.2746,-1.2973,-1.3083,-1.3046,-1.3127,-1.3155,-1.3181,-1.3207,-1.3369,-1.3515,-1.3552,-1.3592,-1.374,-1.3819,-1.3863,-1.4048,-1.4484,-1.478,-1.4922,-1.5155,-1.533,-1.5389,-1.5389,-1.5389,-1.5389,-1.5389,-1.5389,-1.5389,-1.5389,-1.5389,-1.5389,-1.5389,-1.5389,-1.5389,-1.5389,-1.5389,-1.5389,-1.5389,-1.5389,-1.5389,-1.5389,-1.5389,-1.5389,-1.5389,-1.5374,-1.5301,-1.5236,-1.5228,-1.5155,-1.5148,-1.5148,-1.5082,-1.5065,-1.5072,-1.5024,-1.5097,-1.5068,-1.4893,-1.4907,-1.5024,-0.6074,-0.6605,-0.6962,-0.7095,-0.7187,-0.7588,-0.7896,-0.8116,-0.8332,-0.834,-0.8119,-0.8015,-0.7874,-0.7758,-0.797,-0.8499,-0.989,-1.0271,-1.087,-1.2194,-1.2305,-1.2305,-1.2305,-1.2305,-1.2305,-1.2305,-1.2305,-1.2305,-1.2305,-1.2305,-1.2305,-1.2305,-1.2305,-1.2305,-1.2305,-1.2305,-1.2305,-1.2305,-1.2305,-1.2305,-1.2305,-1.2305,-1.2305,-1.2305,-1.2305,-1.2305,-1.2305,-1.2305,-1.2305,-1.2342,-1.2415,-1.2489,-1.2606,-1.2753,-1.2856,-1.282,-1.2863,-1.2973,-1.3083,-1.3229,-1.3207,-1.3075,-1.3046,-1.3156,-1.3273,-1.3411,-1.344,-1.3579,-1.3769,-1.4011,-1.4209,-1.4681,-1.4874,-1.4976,-1.5185,-1.5367,-1.5389,-1.5389,-1.5389,-1.5389,-1.5389,-1.5389,-1.5389,-1.5389,-1.5389,-1.5389,-1.5389,-1.5389,-1.5389,-1.5389,-1.5389,-1.5389,-1.5389,-1.5389,-1.5389,-1.5389,-1.5389,-1.5389,-1.5389,-1.5389,-1.5382,-1.5323,-1.5367,-1.5389,-1.5316,-1.5243,-1.5163,-1.5126,-1.517,-1.5228,-1.5294,-1.5221,-1.509,-1.5148,-1.5258,-0.563,-0.5855,-0.6697,-0.7051,-0.7139,-0.737,-0.7635,-0.7896,-0.8097,-0.8006,-0.7714,-0.79,-0.7789,-0.7716,-0.8221,-0.9036,-0.982,-1.0576,-1.1403,-1.2046,-1.2305,-1.2305,-1.2305,-1.2305,-1.2305,-1.2305,-1.2305,-1.2305,-1.2305,-1.2305,-1.2305,-1.2305,-1.2305,-1.2305,-1.2305,-1.2305,-1.2305,-1.2305,-1.2305,-1.2305,-1.2305,-1.2305,-1.2305,-1.2305,-1.2305,-1.2305,-1.2305,-1.2305,-1.2305,-1.2305,-1.2305,-1.2305,-1.2378,-1.2526,-1.2445,-1.2445,-1.2569,-1.2753,-1.29,-1.3083,-1.3156,-1.3119,-1.3309,-1.3426,-1.3463,-1.3411,-1.3455,-1.355,-1.371,-1.4075,-1.4435,-1.467,-1.4895,-1.508,-1.5323,-1.5389,-1.5389,-1.5389,-1.5389,-1.5389,-1.5389,-1.5389,-1.5389,-1.5389,-1.5389,-1.5389,-1.5389,-1.5389,-1.5389,-1.5389,-1.5389,-1.5389,-1.5389,-1.5389,-1.5389,-1.5389,-1.5389,-1.5389,-1.5389,-1.5389,-1.5389,-1.5389,-1.5389,-1.5389,-1.5389,-1.5345,-1.5265,-1.5279,-1.5338,-1.5389,-1.5389,-1.5367,-1.5228,-1.5265,-1.5352,-0.4474,-0.5719,-0.5985,-0.6473,-0.7051,-0.7187,-0.7367,-0.7621,-0.7733,-0.7684,-0.7647,-0.7564,-0.7557,-0.7466,-0.7734,-0.8703,-0.9518,-1.0308,-1.118,-1.1781,-1.2268,-1.2268,-1.2305,-1.2305,-1.2305,-1.2305,-1.2305,-1.2305,-1.2305,-1.2305,-1.2305,-1.2305,-1.2305,-1.2305,-1.2305,-1.2305,-1.2305,-1.2305,-1.2305,-1.2305,-1.2305,-1.2305,-1.2305,-1.2305,-1.2305,-1.2305,-1.2305,-1.2305,-1.2305,-1.2305,-1.2305,-1.2305,-1.2305,-1.2489,-1.2562,-1.2526,-1.2599,-1.2636,-1.2709,-1.2863,-1.301,-1.3046,-1.3156,-1.3346,-1.3419,-1.3455,-1.3455,-1.3557,-1.3717,-1.4037,-1.4404,-1.4678,-1.495,-1.5216,-1.5382,-1.5389,-1.5389,-1.5389,-1.5389,-1.5389,-1.5389,-1.5389,-1.5389,-1.5389,-1.5389,-1.5389,-1.5389,-1.5389,-1.5389,-1.5389,-1.5389,-1.5389,-1.5389,-1.5389,-1.5389,-1.5389,-1.5389,-1.5389,-1.5389,-1.5389,-1.5389,-1.5389,-1.5389,-1.5389,-1.5389,-1.5389,-1.5374,-1.5389,-1.5389,-1.5389,-1.5389,-1.5389,-1.5389,-1.5389,-1.5389,-0.3758,-0.5139,-0.5542,-0.618,-0.693,-0.7011,-0.7118,-0.7189,-0.7404,-0.7491,-0.748,-0.7433,-0.743,-0.754,-0.7872,-0.8542,-0.9372,-1.0276,-1.1031,-1.1521,-1.2157,-1.2268,-1.2305,-1.2305,-1.2305,-1.2305,-1.2305,-1.2305,-1.2305,-1.2305,-1.2305,-1.2305,-1.2305,-1.2305,-1.2305,-1.2305,-1.2305,-1.2305,-1.2305,-1.2305,-1.2305,-1.2305,-1.2305,-1.2305,-1.2305,-1.2305,-1.2305,-1.2305,-1.2305,-1.2305,-1.2305,-1.2305,-1.2305,-1.2415,-1.2489,-1.2452,-1.2452,-1.2489,-1.2526,-1.268,-1.2753,-1.282,-1.2966,-1.3083,-1.3236,-1.3273,-1.3382,-1.3514,-1.3754,-1.4037,-1.4404,-1.4765,-1.5031,-1.5338,-1.5367,-1.5389,-1.5389,-1.5389,-1.5389,-1.5389,-1.5389,-1.5389,-1.5389,-1.5389,-1.5389,-1.5389,-1.5389,-1.5389,-1.5389,-1.5389,-1.5389,-1.5389,-1.5389,-1.5389,-1.5389,-1.5389,-1.5389,-1.5389,-1.5389,-1.5389,-1.5389,-1.5389,-1.5389,-1.5389,-1.5389,-1.5389,-1.5389,-1.5389,-1.5389,-1.5389,-1.5389,-1.5389,-1.5389,-1.5389,-1.5389,-0.3312,-0.4289,-0.5262,-0.6159,-0.6833,-0.6866,-0.6837,-0.676,-0.7073,-0.7273,-0.7286,-0.7364,-0.7391,-0.7533,-0.7983,-0.8399,-0.9112,-0.9906,-1.0619,-1.1074,-1.1706,-1.2046,-1.2268,-1.2305,-1.2305,-1.2305,-1.2305,-1.2305,-1.2305,-1.2305,-1.2305,-1.2305,-1.2305,-1.2305,-1.2305,-1.2305,-1.2305,-1.2305,-1.2305,-1.2305,-1.2305,-1.2305,-1.2305,-1.2305,-1.2305,-1.2305,-1.2305,-1.2305,-1.2305,-1.2305,-1.2305,-1.2305,-1.2305,-1.2342,-1.2342,-1.2342,-1.2342,-1.2342,-1.2378,-1.2489,-1.2606,-1.2673,-1.2783,-1.2973,-1.3119,-1.3127,-1.3236,-1.3324,-1.3518,-1.391,-1.4275,-1.4601,-1.4926,-1.5255,-1.5382,-1.5389,-1.5389,-1.5389,-1.5389,-1.5389,-1.5389,-1.5389,-1.5389,-1.5389,-1.5389,-1.5389,-1.5389,-1.5389,-1.5389,-1.5389,-1.5389,-1.5389,-1.5389,-1.5389,-1.5389,-1.5389,-1.5389,-1.5389,-1.5389,-1.5389,-1.5389,-1.5389,-1.5389,-1.5389,-1.5389,-1.5389,-1.5389,-1.5389,-1.5389,-1.5389,-1.5389,-1.5389,-1.5389,-1.5389,-1.5389,-0.233,-0.3352,-0.492,-0.5986,-0.6679,-0.6756,-0.6736,-0.6733,-0.6859,-0.6938,-0.6954,-0.7132,-0.7266,-0.7419,-0.7672,-0.8093,-0.8775,-0.9263,-1.0019,-1.0694,-1.1329,-1.1781,-1.2187,-1.2261,-1.2268,-1.2305,-1.2305,-1.2305,-1.2305,-1.2305,-1.2305,-1.2305,-1.2305,-1.2305,-1.2305,-1.2305,-1.2305,-1.2305,-1.2305,-1.2305,-1.2305,-1.2305,-1.2305,-1.2305,-1.2305,-1.2305,-1.2305,-1.2305,-1.2305,-1.2305,-1.2305,-1.2305,-1.2305,-1.2305,-1.2305,-1.2305,-1.2305,-1.2305,-1.2342,-1.2409,-1.2489,-1.2643,-1.2783,-1.2973,-1.3046,-1.301,-1.3017,-1.3111,-1.332,-1.3724,-1.4164,-1.4467,-1.4801,-1.5138,-1.5389,-1.5389,-1.5389,-1.5389,-1.5389,-1.5389,-1.5389,-1.5389,-1.5389,-1.5389,-1.5389,-1.5389,-1.5389,-1.5389,-1.5389,-1.5389,-1.5389,-1.5389,-1.5389,-1.5389,-1.5389,-1.5389,-1.5389,-1.5389,-1.5389,-1.5389,-1.5389,-1.5389,-1.5389,-1.5389,-1.5389,-1.5389,-1.5389,-1.5389,-1.5389,-1.5389,-1.5389,-1.5389,-1.5389,-1.5389,-1.5389,-0.1989,-0.3039,-0.4737,-0.5937,-0.6532,-0.66,-0.6603,-0.6652,-0.677,-0.6892,-0.7006,-0.715,-0.7219,-0.7334,-0.7484,-0.7672,-0.8241,-0.8589,-0.9155,-0.9906,-1.0807,-1.1335,-1.1706,-1.2114,-1.2268,-1.2305,-1.2305,-1.2305,-1.2305,-1.2305,-1.2305,-1.2305,-1.2305,-1.2305,-1.2305,-1.2305,-1.2305,-1.2305,-1.2268,-1.2268,-1.2268,-1.2305,-1.2305,-1.2305,-1.2305,-1.2305,-1.2305,-1.2305,-1.2305,-1.2305,-1.2305,-1.2305,-1.2305,-1.2305,-1.2305,-1.2305,-1.2305,-1.2335,-1.2372,-1.2452,-1.2532,-1.2716,-1.279,-1.2973,-1.2973,-1.2973,-1.3119,-1.317,-1.3177,-1.3531,-1.4137,-1.4545,-1.4889,-1.5226,-1.5379,-1.5389,-1.5389,-1.5389,-1.5389,-1.5389,-1.5389,-1.5389,-1.5389,-1.5389,-1.5389,-1.5389,-1.5389,-1.5389,-1.5389,-1.5389,-1.5389,-1.5389,-1.5389,-1.5389,-1.5389,-1.5389,-1.5389,-1.5389,-1.5389,-1.5389,-1.5389,-1.5389,-1.5389,-1.5389,-1.5389,-1.5389,-1.5389,-1.5389,-1.5389,-1.5389,-1.5389,-1.5389,-1.5389,-1.5389,-1.5389,-0.1947,-0.3004,-0.4583,-0.5676,-0.6291,-0.6444,-0.6541,-0.6623,-0.6791,-0.6992,-0.7161,-0.7227,-0.7334,-0.7446,-0.7518,-0.7518,-0.7672,-0.8131,-0.8546,-0.915,-1.0088,-1.0732,-1.1298,-1.1737,-1.2003,-1.2231,-1.2305,-1.2305,-1.2305,-1.2305,-1.2305,-1.2305,-1.2305,-1.2305,-1.2305,-1.2305,-1.2305,-1.2231,-1.2187,-1.2194,-1.2231,-1.2305,-1.2305,-1.2305,-1.2305,-1.2305,-1.2305,-1.2305,-1.2305,-1.2342,-1.2342,-1.2378,-1.2378,-1.2378,-1.2378,-1.2378,-1.2378,-1.2415,-1.2489,-1.2599,-1.2716,-1.2863,-1.29,-1.2936,-1.2973,-1.3046,-1.3229,-1.3243,-1.3251,-1.3539,-1.4146,-1.4611,-1.4962,-1.5255,-1.5357,-1.5389,-1.5389,-1.5389,-1.5389,-1.5389,-1.5389,-1.5389,-1.5374,-1.5382,-1.5382,-1.5382,-1.5382,-1.5389,-1.5389,-1.5389,-1.5389,-1.5389,-1.5389,-1.5389,-1.5389,-1.5389,-1.5389,-1.5389,-1.5389,-1.5389,-1.5389,-1.5389,-1.5389,-1.5389,-1.5389,-1.5389,-1.5389,-1.5389,-1.5389,-1.5389,-1.5389,-1.5389,-1.5389,-1.5389,-1.5389,-0.1869,-0.275,-0.3714,-0.4583,-0.5325,-0.6025,-0.6433,-0.6602,-0.6826,-0.7022,-0.7219,-0.7373,-0.7484,-0.7518,-0.7518,-0.7518,-0.7557,-0.7825,-0.8208,-0.8808,-0.9226,-1.0019,-1.0769,-1.1254,-1.17,-1.204,-1.2305,-1.2305,-1.2305,-1.2305,-1.2305,-1.2305,-1.2305,-1.2305,-1.2305,-1.2305,-1.2268,-1.2077,-1.1744,-1.1632,-1.2077,-1.2157,-1.2305,-1.2305,-1.2305,-1.2305,-1.2305,-1.2305,-1.2305,-1.2342,-1.2409,-1.2489,-1.2489,-1.2452,-1.2452,-1.2452,-1.2452,-1.2452,-1.2526,-1.2673,-1.2826,-1.2936,-1.301,-1.3193,-1.3236,-1.3309,-1.3404,-1.3448,-1.3512,-1.3762,-1.4282,-1.4666,-1.4995,-1.5228,-1.5389,-1.5389,-1.5389,-1.5389,-1.5389,-1.5389,-1.5389,-1.5367,-1.5323,-1.5323,-1.5323,-1.5323,-1.5316,-1.5323,-1.5389,-1.5389,-1.5389,-1.5389,-1.5389,-1.5389,-1.5389,-1.5389,-1.5389,-1.5389,-1.5389,-1.5389,-1.5389,-1.5389,-1.5389,-1.5389,-1.5389,-1.5389,-1.5389,-1.5389,-1.5389,-1.5389,-1.5389,-1.5389,-1.5389,-1.5389,-1.5389]}]]